[[{"header":{"parameterUnit":"m.s-1","parameterCategory":1,"la1":31.0,"la2":29.5877,"lo1":-88.7671,"lo2":-86.6584,"dy":0.0162,"dx":0.0185,"nx":115,"ny":88,"refTime":"2023-09-08T18:00:00:Z","depth":0,"parameterNumber":2,"parameterNumberName":"U-component_of_WINDS"},"data":[0.0,0.0,0.0,0.0,0.0,0.0,0.0,0.0,0.0,0.0,0.0,0.0,0.0,0.0,0.0,0.0,0.0,0.0,0.0,0.0,0.0,0.0,0.0,0.0,0.0,0.0,0.0,0.0,0.0,0.0,0.0,0.0,0.0,0.0,0.0,0.0,0.0,0.0,0.0,0.0,0.0,0.0,0.0,0.0,0.0,0.0,0.0,0.0,0.0,0.0,0.0,0.0,0.0,0.0,0.0,0.0,0.0,0.0,0.0,0.0,0.0,0.0,0.0,0.0,0.0,0.0,0.0,0.0,0.0,0.0,0.0,0.0,0.0,0.0,0.0,0.0,0.0,0.0,0.0,0.0,0.0,0.0,0.0,0.0,0.0,0.0,0.0,0.0,0.0,0.0,0.0,0.0,0.0,0.0,0.0,0.0,0.0,0.0,0.0,0.0,0.0,0.0,0.0,0.0,0.0,0.0,0.0,0.0,0.0,0.0,0.0,0.0,0.0,0.0,0.0,0.0,0.0,0.0,0.0,0.0,0.0,0.0,0.0,0.0,0.0,0.0,0.0,0.0,0.0,0.0,0.0,0.0,0.0,0.0,0.0,0.0,0.0,0.0,0.0,0.0,0.0,0.0,0.0,0.0,0.0,0.0,0.0,0.0,0.0,0.0,0.0,0.0,0.0,0.0,0.0,0.0,0.0,0.0,0.0,0.0,0.0,0.0,0.0,0.0,0.0,0.0,0.0,0.0,0.0,0.0,0.0,0.0,0.0,0.0,0.0,0.0,0.0,0.0,0.0,0.0,0.0,0.0,0.0,0.0,0.0,0.0,0.0,0.0,0.0,0.0,0.0,0.0,0.0,0.0,0.0,0.0,0.0,0.0,0.0,0.0,0.0,0.0,0.0,0.0,0.0,0.0,0.0,0.0,0.0,0.0,0.0,0.0,0.0,0.0,0.0,0.0,0.0,0.0,0.0,0.0,0.0,0.0,0.0,0.0,0.0,0.0,0.0,0.0,0.0,0.0,0.0,0.0,0.0,0.0,0.0,0.0,0.0,0.0,0.0,0.0,0.0,0.0,0.0,0.0,0.0,0.0,0.0,0.0,0.0,0.0,0.0,0.0,0.0,0.0,0.0,0.0,0.0,0.0,0.0,0.0,0.0,0.0,0.0,0.0,0.0,0.0,0.0,0.0,0.0,0.0,0.0,0.0,0.0,0.0,0.0,0.0,0.0,0.0,0.0,0.0,0.0,0.0,0.0,0.0,0.0,0.0,0.0,0.0,0.0,0.0,0.0,0.0,0.0,0.0,0.0,0.0,0.0,0.0,0.0,0.0,0.0,0.0,0.0,0.0,0.0,0.0,0.0,0.0,0.0,0.0,0.0,0.0,0.0,0.0,0.0,0.0,0.0,0.0,0.0,0.0,0.0,0.0,0.0,0.0,0.0,0.0,0.0,0.0,0.0,0.0,0.0,0.0,0.0,0.0,0.0,0.0,0.0,0.0,0.0,0.0,0.0,0.0,0.0,0.0,0.0,0.0,0.0,0.0,0.0,0.0,0.0,0.0,0.0,0.0,0.0,0.0,0.0,0.0,0.0,0.0,0.0,0.0,0.0,0.0,0.0,0.0,0.0,0.0,0.0,0.0,0.0,0.0,0.0,0.0,0.0,0.0,0.0,0.0,0.0,0.0,0.0,0.0,0.0,0.0,0.0,0.0,0.0,0.0,0.0,0.0,0.0,0.0,0.0,0.0,0.0,0.0,0.0,0.0,0.0,0.0,0.0,0.0,0.0,0.0,0.0,0.0,0.0,0.0,0.0,0.0,0.0,0.0,0.0,0.0,0.0,0.0,0.0,0.0,0.0,0.0,0.0,0.0,0.0,0.0,0.0,0.0,0.0,0.0,0.0,0.0,0.0,0.0,0.0,0.0,0.0,0.0,0.0,0.0,0.0,0.0,0.0,0.0,0.0,0.0,0.0,0.0,0.0,0.0,0.0,0.0,0.0,0.0,0.0,0.0,0.0,0.0,0.0,0.0,0.0,0.0,0.0,0.0,0.0,0.0,0.0,0.0,0.0,0.0,0.0,0.0,0.0,0.0,0.0,0.0,0.0,0.0,0.0,0.0,0.0,0.0,0.0,0.0,0.0,0.0,0.0,0.0,0.0,0.0,0.0,0.0,0.0,0.0,0.0,0.0,0.0,0.0,0.0,0.0,0.0,0.0,0.0,0.0,0.0,0.0,0.0,0.0,0.0,0.0,0.0,0.0,0.0,0.0,0.0,0.0,0.0,0.0,0.0,0.0,0.0,0.0,0.0,0.0,0.0,0.0,0.0,0.0,0.0,0.0,0.0,0.0,0.0,0.0,0.0,0.0,0.0,0.0,0.0,0.0,0.0,0.0,0.0,0.0,0.0,0.0,0.0,0.0,0.0,0.0,0.0,0.0,0.0,0.0,0.0,0.0,0.0,0.0,0.0,0.0,0.0,0.0,0.0,0.0,0.0,0.0,0.0,0.0,0.0,0.0,0.0,0.0,0.0,0.0,0.0,0.0,0.0,0.0,0.0,0.0,0.0,0.0,0.0,0.0,0.0,0.0,0.0,0.0,0.0,0.0,0.0,0.0,0.0,0.0,0.0,0.0,0.0,0.0,0.0,0.0,0.0,0.0,0.0,0.0,0.0,0.0,0.0,0.0,0.0,0.0,0.0,0.0,0.0,0.0,0.0,0.0,0.0,0.0,0.0,0.0,0.0,0.0,0.0,0.0,0.0,0.0,0.0,0.0,0.0,0.0,0.0,0.0,0.0,0.0,0.0,0.0,0.0,0.0,0.0,0.0,0.0,0.0,0.0,0.0,0.0,0.0,0.0,0.0,0.0,0.0,0.0,0.0,0.0,0.0,0.0,0.0,0.0,0.0,0.0,0.0,0.0,0.0,0.0,0.0,0.0,0.0,0.0,0.0,0.0,0.0,0.0,0.0,0.0,0.0,0.0,0.0,0.0,0.0,0.0,0.0,0.0,0.0,0.0,0.0,0.0,0.0,0.0,0.0,0.0,0.0,0.0,0.0,0.0,0.0,0.0,0.0,0.0,0.0,0.0,0.0,0.0,0.0,0.0,0.0,0.0,0.0,0.0,0.0,0.0,0.0,0.0,0.0,0.0,0.0,0.0,0.0,0.0,0.0,0.0,0.0,0.0,0.0,0.0,0.0,0.0,0.0,0.0,0.0,0.0,0.0,0.0,0.0,0.0,0.0,0.0,0.0,0.0,0.0,0.0,0.0,0.0,0.0,0.0,0.0,0.0,0.0,0.0,0.0,0.0,0.0,0.0,0.0,0.0,0.0,0.0,0.0,0.0,0.0,0.0,0.0,0.0,0.0,0.0,0.0,0.0,0.0,0.0,0.0,0.0,0.0,0.0,0.0,0.0,0.0,0.0,0.0,0.0,0.0,0.0,0.0,0.0,0.0,0.0,0.0,0.0,0.0,0.0,0.0,0.0,0.0,0.0,0.0,0.0,0.0,0.0,0.0,0.0,0.0,0.0,0.0,0.0,0.0,0.0,0.0,0.0,0.0,0.0,0.0,0.0,0.0,0.0,0.0,0.0,0.0,0.0,0.0,0.0,0.0,0.0,0.0,0.0,0.0,0.0,0.0,0.0,0.0,0.0,0.0,0.0,0.0,0.0,0.0,0.0,0.0,0.0,0.0,0.0,0.0,0.0,0.0,0.0,0.0,0.0,0.0,0.0,0.0,0.0,0.0,0.0,0.0,0.0,0.0,0.0,0.0,0.0,0.0,0.0,0.0,0.0,0.0,0.0,0.0,0.0,0.0,0.0,0.0,0.0,0.0,0.0,0.0,0.0,0.0,0.0,0.0,0.0,0.0,0.0,0.0,0.0,0.0,0.0,0.0,0.0,0.0,0.0,0.0,0.0,0.0,0.0,0.0,0.0,0.0,0.0,0.0,0.0,0.0,0.0,0.0,0.0,0.0,0.0,0.0,0.0,0.0,0.0,0.0,0.0,0.0,0.0,0.0,0.0,0.0,0.0,0.0,0.0,0.0,0.0,0.0,0.0,0.0,0.0,0.0,0.0,0.0,0.0,0.0,0.0,0.0,0.0,0.0,0.0,0.0,0.0,0.0,0.0,0.0,0.0,0.0,0.0,0.0,0.0,0.0,0.0,0.0,0.0,0.0,0.0,0.0,0.0,0.0,0.0,0.0,0.0,0.0,0.0,0.0,0.0,0.0,0.0,0.0,0.0,0.0,0.0,0.0,0.0,0.0,0.0,0.0,0.7299,0.0,0.0,0.0,0.0,0.0,0.0,0.0,0.0,0.0,0.0,0.0,0.0,0.0,0.0,0.0,0.0,0.0,0.0,0.0,0.0,0.0,0.0,0.0,0.0,0.0,0.0,0.0,0.0,0.0,0.0,0.0,0.0,0.0,0.0,0.0,0.0,0.0,0.0,0.0,0.0,0.0,0.0,0.0,0.0,0.0,0.0,0.0,0.0,0.0,0.0,0.0,0.0,0.0,0.0,0.0,0.0,0.0,0.0,0.0,0.0,0.0,0.0,0.0,0.0,0.0,0.0,0.0,0.0,0.0,0.0,0.0,0.0,0.0,0.0,0.0,0.0,0.0,0.0,0.0,0.0,0.0,0.0,0.0,0.0,0.0,0.0,0.0,0.0,0.0,0.0,0.0,0.0,0.0,0.0,0.0,0.0,0.0,0.0,0.0,0.0,0.0,0.0,0.0,0.0,0.0,0.0,0.0,0.0,0.0,0.0,0.4979,0.4954,0.4959,0.5737,0.7378,0.0,0.0,0.0,0.0,0.0,0.0,0.0,0.0,0.0,0.0,0.0,0.0,0.0,0.0,0.0,0.0,0.0,0.0,0.0,0.0,0.0,0.0,0.0,0.0,0.0,0.0,0.0,0.0,0.0,0.0,0.0,0.0,0.0,0.0,0.0,0.0,0.0,0.0,0.0,0.0,0.0,0.0,0.0,0.0,0.0,0.0,0.0,0.0,0.0,0.0,0.0,0.0,0.0,0.0,0.0,0.0,0.0,0.0,0.0,0.0,0.0,0.0,0.0,0.0,0.0,0.0,0.0,0.0,0.0,0.0,0.0,0.0,0.0,0.0,0.0,0.0,0.0,0.0,0.0,0.0,0.0,0.0,0.0,0.0,0.0,0.0,0.0,0.0,0.0,0.0,0.0,0.0,0.0,0.0,0.0,0.0,0.0,0.0,0.0,0.0,0.0,0.0,0.0,0.0,0.0,0.0,0.0,0.0,0.0,0.0,0.0,0.0,0.5003,0.578,0.7439,0.0,0.0,0.0,0.0,0.0,0.0,0.0,0.0,0.0,0.0,0.0,0.0,0.0,0.0,0.0,0.0,0.0,0.0,0.0,0.0,0.0,0.0,0.0,0.0,0.0,0.0,0.0,0.0,0.0,0.0,0.0,0.0,0.0,0.0,0.0,0.0,0.0,0.0,0.0,0.0,0.0,0.0,0.0,0.0,0.0,0.0,0.0,0.0,0.0,0.0,0.0,0.0,0.0,0.0,0.0,0.0,0.0,0.0,0.0,0.0,0.0,0.0,0.0,0.0,0.0,0.0,0.0,0.0,0.0,0.0,0.0,0.0,0.0,0.0,0.0,0.0,0.0,0.0,0.0,0.0,0.0,0.0,0.0,0.0,0.0,0.0,0.0,0.0,0.0,0.0,0.0,0.0,0.0,0.0,0.0,0.0,0.0,0.0,0.0,0.0,0.0,0.0,0.0,0.0,0.0,0.0,0.0,0.0,0.0,0.0,0.501,0.4997,0.5011,0.0,0.7433,0.0,0.0,0.0,0.0,0.0,0.0,0.0,0.0,0.0,0.0,0.0,0.0,0.0,0.0,0.0,0.0,0.0,0.0,0.0,0.0,0.0,0.0,0.0,0.0,0.0,0.0,0.0,0.0,0.0,0.0,0.0,0.0,0.0,0.0,0.0,0.0,0.0,0.0,0.0,0.0,0.0,0.0,0.0,0.0,0.0,0.0,0.0,0.0,0.0,0.0,0.0,0.0,0.0,0.0,0.0,0.0,0.0,0.0,0.0,0.0,0.0,0.0,0.0,0.0,0.0,0.0,0.0,0.0,0.0,0.0,0.0,0.0,0.0,0.0,0.0,0.0,0.0,0.0,0.0,0.0,0.0,0.0,0.0,0.0,0.0,0.0,0.0,0.0,0.0,0.0,0.0,0.0,0.0,0.0,0.0,0.0,0.0,0.0,0.0,0.0,0.0,0.0,0.0,0.0,0.0,0.0,0.0,0.0,0.0,0.0,0.5005,0.5008,0.596,0.7027,0.0,0.0,0.0,0.0,0.0,0.0,0.0,0.0,0.0,0.0,0.0,0.0,0.0,0.0,0.0,0.0,0.0,0.0,0.0,0.0,0.0,0.0,0.0,0.0,0.0,0.0,0.0,0.0,0.0,0.0,0.0,0.0,0.0,0.0,0.0,0.0,0.0,0.0,0.0,0.0,0.0,0.0,0.0,0.0,0.0,0.0,0.0,0.0,0.0,0.0,0.0,0.0,0.0,0.0,0.0,0.0,0.0,0.0,0.0,0.0,0.0,0.0,0.0,0.0,0.0,0.0,0.0,0.0,0.0,0.0,0.0,0.0,0.0,0.0,0.0,0.0,0.0,0.0,0.0,0.0,0.0,0.0,0.0,0.0,0.0,0.0,0.0,0.0,0.0,0.0,0.0,0.0,0.0,0.0,0.0,0.0,0.0,0.0,0.0,0.0,0.0,0.0,0.0,0.0,0.0,0.0,0.0,0.0,0.0,0.0,0.504,0.5129,0.5421,0.7221,0.8367,0.8732,0.0,0.0,0.0,0.0,0.0,0.0,0.0,0.0,0.0,0.0,0.0,0.0,0.0,0.0,0.0,0.0,0.0,0.0,0.0,0.0,0.0,0.0,0.0,0.0,0.0,0.0,0.0,0.0,0.0,0.0,0.0,0.0,0.0,0.0,0.0,0.0,0.0,0.0,0.0,0.0,0.0,0.0,0.0,0.0,0.0,0.0,0.0,0.0,0.0,0.0,0.0,0.0,0.0,0.0,0.0,0.0,0.0,0.0,0.0,0.0,0.0,0.0,0.0,0.0,0.0,0.0,0.0,0.0,0.0,0.0,0.0,0.0,0.0,0.0,0.0,0.0,0.0,0.0,0.0,0.0,0.0,0.0,0.0,0.0,0.0,0.0,0.0,0.0,0.0,0.0,0.0,0.0,0.0,0.0,0.0,0.0,0.0,0.0,0.0,0.0,0.0,0.0,0.0,0.0,0.0,0.0,0.0,0.0,0.5114,0.5102,0.5459,0.6275,0.867,0.9612,0.0,0.0,0.0,0.0,0.0,0.0,0.0,0.0,0.0,0.0,0.0,0.0,0.0,0.0,0.0,0.0,0.0,0.0,0.0,0.0,0.0,0.0,0.0,0.0,0.0,0.0,0.0,0.0,0.0,0.0,0.0,0.0,0.0,0.0,0.0,0.0,0.0,0.0,0.0,0.0,0.0,0.0,0.0,0.0,0.0,0.0,0.0,0.0,0.0,0.0,0.0,0.0,0.0,0.0,0.0,0.0,0.0,0.0,0.0,0.0,0.0,0.0,0.0,0.0,0.0,0.0,0.0,0.0,0.0,0.0,0.0,0.0,0.0,0.0,0.0,0.0,0.0,0.0,0.0,0.0,0.0,0.0,0.0,0.0,0.0,0.0,0.0,0.0,0.0,0.0,0.0,0.0,0.0,0.0,0.0,0.0,0.0,0.0,0.0,0.0,0.0,0.0,0.0,0.0,0.0,0.0,0.0,0.0,0.0,0.583,0.5377,0.6004,0.7854,0.9329,0.9955,0.0,0.0,0.0,0.0,0.0,0.0,0.0,0.0,0.0,0.0,0.0,0.0,0.0,0.0,0.0,0.0,0.0,0.0,0.0,0.0,0.0,0.0,0.0,0.0,0.0,0.0,0.0,0.0,0.0,0.0,0.0,0.0,0.0,0.0,0.0,0.0,0.0,0.0,0.0,0.0,0.0,0.0,0.0,0.0,0.0,0.0,0.0,0.0,0.0,0.0,0.0,0.0,0.0,0.0,0.0,0.0,0.0,0.0,0.0,0.0,0.0,0.0,0.0,0.0,0.0,0.0,0.0,0.0,0.0,0.0,0.0,0.0,0.0,0.0,0.0,0.0,0.0,0.0,0.0,0.0,0.0,0.0,0.0,0.0,0.0,0.0,0.0,0.0,0.0,0.0,0.0,0.0,0.0,0.0,0.0,0.0,0.0,0.0,0.0,0.0,0.0,0.0,0.0,0.0,0.0,0.0,0.0,0.0,0.0,0.6677,0.0,0.6842,0.8723,0.964,1.0112,0.0,0.0,0.0,0.0,0.0,0.0,0.0,0.0,0.0,0.0,0.0,0.0,0.0,0.0,0.0,0.0,0.0,0.0,0.0,0.0,0.0,0.0,0.0,0.0,0.0,0.0,0.0,0.0,0.0,0.0,0.0,0.0,0.0,0.0,0.0,0.0,0.0,0.0,0.0,0.0,0.0,0.0,0.0,0.0,0.0,0.0,0.0,0.0,0.0,0.0,0.0,0.0,0.0,0.0,0.0,0.0,0.0,0.0,0.0,0.0,0.0,0.0,0.0,0.0,0.0,0.0,0.0,0.0,0.0,0.0,0.0,0.0,0.0,0.0,0.0,0.0,0.0,0.0,0.0,0.0,0.0,0.0,0.0,0.0,0.0,0.0,0.0,0.0,0.0,0.0,0.0,0.0,0.0,0.0,0.0,0.0,0.0,0.0,0.0,0.0,0.0,0.0,0.0,0.0,0.0,0.0,0.0,0.0,0.763,0.7603,0.7624,0.8019,0.88,0.9671,1.0104,0.0,0.0,0.0,0.0,0.0,0.0,0.0,0.0,0.0,0.0,0.0,0.0,0.0,0.0,0.0,0.0,0.0,0.0,0.0,0.0,0.0,0.0,0.0,0.0,0.0,0.0,0.0,0.0,0.0,0.0,0.0,0.0,0.0,0.0,0.0,0.0,0.0,0.0,0.0,0.0,0.0,0.0,0.0,0.0,0.0,0.0,0.0,0.0,0.0,0.0,0.0,0.0,0.0,0.0,0.0,0.0,0.0,0.0,0.0,0.0,0.0,0.0,0.0,0.0,0.0,0.0,0.0,0.0,0.0,0.0,0.0,0.0,0.0,0.0,0.0,0.0,0.0,0.0,0.0,0.0,0.0,0.0,0.0,0.0,0.0,0.0,0.0,0.0,0.0,0.0,0.0,0.0,0.0,0.0,0.0,0.0,0.0,0.0,0.0,0.0,0.0,0.0,0.0,0.0,0.0,0.0,0.0,0.0,0.0,0.8485,0.9022,0.9445,0.969,0.995,1.0095,0.0,0.0,0.0,0.0,0.0,0.0,0.0,0.0,0.0,0.0,0.0,0.0,0.0,0.0,0.0,0.0,0.0,0.0,0.0,0.0,0.0,0.0,0.0,0.0,0.0,0.0,0.0,0.0,0.0,0.0,0.0,0.0,0.0,0.0,0.0,0.0,0.0,0.0,0.0,0.0,0.0,0.0,0.0,0.0,0.0,0.0,0.0,0.0,0.0,0.0,0.0,0.0,0.0,0.0,0.0,0.0,0.0,0.0,0.0,0.0,0.0,0.0,0.0,0.0,0.0,0.0,0.0,0.0,0.0,0.0,0.0,0.0,0.0,0.0,0.0,0.0,0.0,0.0,0.0,0.0,0.0,0.0,0.0,0.0,0.0,0.0,0.0,0.0,0.0,0.0,0.0,0.0,0.0,0.0,0.0,0.0,0.0,0.0,0.0,0.0,0.0,0.0,0.0,0.0,0.0,0.0,0.0,0.0,0.0,1.0211,1.0114,1.0108,1.0112,1.01,1.011,1.0096,0.0,0.0,0.0,0.0,0.0,0.0,0.0,0.0,0.0,0.0,0.0,0.0,0.0,0.0,0.0,0.0,0.0,0.0,0.0,0.0,0.0,0.0,0.0,0.0,0.0,0.0,0.0,0.0,0.0,0.0,0.0,0.0,0.0,0.0,0.0,0.0,0.0,0.0,0.0,0.0,0.0,0.0,0.0,0.0,0.0,0.0,0.0,0.0,0.0,0.0,0.0,0.0,0.0,0.0,0.0,0.0,0.0,0.0,0.0,0.0,0.0,0.0,0.0,0.0,0.0,0.0,0.0,0.0,0.0,0.0,0.0,0.0,0.0,0.0,0.0,0.0,0.0,0.0,0.0,0.0,0.0,0.0,0.0,0.0,0.0,0.0,0.0,0.0,0.0,0.0,0.0,0.0,0.0,0.0,0.0,0.0,0.0,0.0,0.0,0.0,0.0,0.0,0.0,0.0,0.0,0.0,0.0,0.0,1.2497,1.1122,1.0335,1.0167,1.0191,1.0163,0.0,0.0,0.0,0.0,0.0,0.0,0.0,0.0,0.0,0.0,0.0,0.0,0.0,0.0,0.0,0.0,0.0,0.0,0.0,0.0,0.0,0.0,0.0,0.0,0.0,0.0,0.0,0.0,0.0,0.0,0.0,0.0,0.0,0.0,0.0,0.0,0.0,0.0,0.0,0.0,0.0,0.0,0.0,0.0,0.0,0.0,0.0,0.0,0.0,0.0,0.0,0.0,0.0,0.0,0.0,0.0,0.0,0.0,0.0,0.0,0.0,0.0,0.0,0.0,0.0,0.0,0.0,0.0,0.0,0.0,0.0,0.0,0.0,0.0,0.0,0.0,0.0,0.0,0.0,0.0,0.0,0.0,0.0,0.0,0.0,0.0,0.0,0.0,0.0,0.0,0.0,0.0,0.0,0.0,0.0,0.0,0.0,0.0,0.0,0.0,0.0,0.0,0.0,0.0,0.0,0.0,0.0,0.0,0.0,1.247,1.3263,1.2839,1.1089,1.1176,1.0895,0.0,0.0,0.0,0.0,0.0,0.0,0.0,0.0,0.0,0.0,0.0,0.0,0.0,0.0,0.0,0.0,0.0,0.0,0.0,0.0,0.0,0.0,0.0,0.0,0.0,0.0,0.0,0.0,0.0,0.0,0.0,0.0,0.0,0.0,0.0,0.0,0.0,0.0,0.0,0.0,0.0,0.0,0.0,0.0,0.0,0.0,0.0,0.0,0.0,0.0,0.0,0.0,0.0,0.0,0.0,0.0,0.0,0.0,0.0,0.0,0.0,0.0,0.0,0.0,0.0,0.0,0.0,0.0,0.0,0.0,0.0,0.0,0.0,0.0,0.0,0.0,0.0,0.0,0.0,0.0,0.0,0.0,0.0,0.0,0.0,0.0,0.0,0.0,0.0,0.0,0.0,0.0,0.0,0.0,0.0,0.0,0.0,0.0,0.0,0.0,0.0,0.0,0.0,0.0,0.0,0.0,0.0,0.0,1.3562,1.3419,1.4384,1.4068,1.2311,1.1863,1.1291,0.0,0.0,0.0,0.0,0.0,0.0,0.0,0.0,0.0,0.0,0.0,0.0,0.0,0.0,0.0,0.0,0.0,0.0,0.0,0.0,0.0,0.0,0.0,0.0,0.0,0.0,0.0,0.0,0.0,0.0,0.0,0.0,0.0,0.0,0.0,0.0,0.0,0.0,0.0,0.0,0.0,0.0,0.0,0.0,0.0,0.0,0.0,0.0,0.0,0.0,0.0,0.0,0.0,0.0,0.0,0.0,0.0,0.0,0.0,0.0,0.0,0.0,0.0,0.0,0.0,0.0,0.0,0.0,0.0,0.0,0.0,0.0,0.0,0.0,0.0,0.0,0.0,0.0,0.0,0.0,0.0,0.0,0.0,0.0,0.0,0.0,0.0,0.0,0.0,0.0,0.0,0.0,0.0,0.0,0.0,0.0,0.0,0.0,0.0,0.0,0.0,0.0,0.0,0.0,0.0,0.0,0.0,0.0,1.399,1.4747,1.4765,1.4429,1.3707,1.2485,1.1604,0.0,0.0,0.0,0.0,0.0,0.0,0.0,0.0,0.0,0.0,0.0,0.0,0.0,0.0,0.0,0.0,0.0,0.0,0.0,0.0,0.0,0.0,0.0,0.0,0.0,0.0,0.0,0.0,0.0,0.0,0.0,0.0,0.0,0.0,0.0,0.0,0.0,0.0,0.0,0.0,0.0,0.0,0.0,0.0,0.0,0.0,0.0,0.0,0.0,0.0,0.0,0.0,0.0,0.0,0.0,0.0,0.0,0.0,0.0,0.0,0.0,0.0,0.0,0.0,0.0,0.0,0.0,0.0,0.0,0.0,0.0,0.0,0.0,0.0,0.0,0.0,0.0,0.0,0.0,0.0,0.0,0.0,0.0,0.0,0.0,0.0,0.0,0.0,0.0,0.0,0.0,0.0,0.0,0.0,0.0,0.0,0.0,0.0,0.0,0.0,0.0,0.0,0.0,0.0,0.0,0.0,0.0,0.0,1.4447,1.4643,1.4635,1.4553,1.4386,1.3594,1.255,0.0,0.0,0.0,0.0,0.0,0.0,0.0,0.0,0.0,0.0,0.0,0.0,0.0,0.0,0.0,0.0,0.0,0.0,0.0,0.0,0.0,0.0,0.0,0.0,0.0,0.0,0.0,0.0,0.0,0.0,0.0,0.0,0.0,0.0,0.0,0.0,0.0,0.0,0.0,0.0,0.0,0.0,0.0,0.0,0.0,0.0,0.0,0.0,0.765,0.0,0.0,0.0,0.0,0.0,0.0,0.0,0.0,0.0,0.0,0.0,0.0,0.0,0.0,0.0,0.0,0.0,0.0,0.0,0.0,0.0,0.0,0.0,0.0,0.0,0.0,0.0,0.0,0.0,0.0,0.0,0.0,0.0,0.0,0.0,0.0,0.0,0.0,0.0,0.0,0.0,0.0,0.0,0.0,0.0,0.0,0.0,0.0,0.0,0.0,0.0,0.0,0.0,0.0,0.0,0.0,0.0,0.0,0.0,1.4422,1.4464,1.4458,1.4492,1.4489,1.42,1.3495,0.0,0.0,0.0,0.0,0.0,0.0,0.0,0.0,0.0,0.0,0.0,0.0,0.0,0.0,0.0,0.0,0.0,0.0,0.0,0.0,0.0,0.0,0.0,0.0,0.0,0.0,0.0,0.0,0.0,0.0,0.0,0.0,0.0,0.0,0.0,0.0,0.0,0.0,0.0,0.0,0.0,0.0,0.0,0.0,0.0,0.0,0.0,0.0,0.0,0.0,0.0,0.0,0.0,0.0,0.0,0.0,0.0,0.0,0.0,0.0,0.0,0.0,0.0,0.0,0.0,0.0,0.0,0.0,0.0,0.0,0.0,0.0,0.0,0.0,0.0,0.0,0.0,0.0,0.0,0.0,0.0,0.0,0.0,0.0,0.0,0.0,0.0,0.0,0.0,0.0,0.0,0.0,0.0,0.0,0.0,0.0,0.0,0.0,0.0,0.0,0.0,0.0,0.0,0.0,0.0,0.0,0.0,1.3764,1.4185,1.4255,1.4255,1.427,1.4356,1.4421,1.4143,1.3449,0.0,0.0,0.0,0.0,0.0,0.0,0.0,0.0,0.0,0.0,0.0,0.0,0.0,0.0,0.0,0.0,0.0,0.0,0.0,0.0,0.0,0.0,0.0,0.0,0.0,0.0,0.0,0.0,0.0,0.0,0.0,0.0,0.0,0.0,0.0,0.0,0.0,0.0,0.7753,0.7574,0.0,0.0,0.0,0.0,0.0,0.0,0.0,0.0,0.7139,0.0,0.0,0.0,0.0,0.0,0.0,0.0,0.0,0.0,0.0,0.0,0.0,0.0,0.0,0.0,0.0,0.0,0.0,0.0,0.0,0.0,0.0,0.0,0.0,0.0,0.0,0.0,0.0,0.0,0.0,0.0,0.0,0.0,0.0,0.0,0.0,0.0,0.0,0.0,0.0,0.0,0.0,0.0,0.0,0.0,0.0,0.0,0.0,0.0,0.0,0.0,0.0,0.0,0.0,0.0,0.0,1.2842,1.3636,1.4026,1.4058,1.405,1.4078,1.415,1.4281,1.3974,1.3194,0.0,0.0,0.0,0.0,0.0,0.0,0.0,0.0,0.0,0.0,0.0,0.0,0.0,0.0,0.0,0.0,0.0,0.0,0.0,0.0,0.0,0.0,0.0,0.0,0.0,0.0,0.0,0.0,0.0,0.0,0.0,0.0,0.0,0.0,0.0,0.0,0.0,0.0,0.0,0.7328,0.7155,0.0,0.0,0.0,0.0,0.0,0.0,0.0,0.0,0.6894,0.0,0.0,0.0,0.0,0.0,0.0,0.0,0.0,0.0,0.0,0.0,0.0,0.0,0.0,0.0,0.0,0.0,0.0,0.0,0.0,0.0,0.0,0.0,0.0,0.0,0.0,0.0,0.0,0.0,0.0,0.0,0.0,0.0,0.0,0.0,0.0,0.0,0.0,0.0,0.0,0.0,0.0,0.0,0.0,0.0,0.0,0.0,0.0,0.0,0.0,0.0,0.0,0.0,0.0,0.0,1.3153,1.3524,1.37,1.3748,1.3763,1.3759,1.3851,1.3977,1.3699,0.0,0.0,0.0,0.0,0.0,0.0,0.0,0.0,0.0,0.0,0.0,0.0,0.0,0.0,0.0,0.0,0.0,0.0,0.0,0.0,0.0,0.0,0.0,0.0,0.0,0.0,0.0,0.0,0.0,0.0,0.0,0.0,0.0,0.0,0.0,0.0,0.0,0.0,0.0,0.0,0.7088,0.6894,0.6807,0.0,0.0,0.0,0.0,0.0,0.0,0.6945,0.7118,0.0,0.0,0.0,0.0,0.0,0.0,0.0,0.0,0.0,0.0,0.0,0.0,0.0,0.0,0.0,0.0,0.0,0.0,0.0,0.0,0.0,0.0,0.0,0.0,0.0,0.0,0.0,0.0,0.0,0.0,0.0,0.0,0.0,0.0,0.0,0.0,0.0,0.0,0.0,0.0,0.0,0.0,0.0,0.0,0.0,0.0,0.0,0.0,0.0,0.0,0.0,0.0,0.0,0.0,0.0,1.336,1.3345,1.3329,1.3379,1.3379,1.3412,1.3477,1.3461,1.3127,0.0,0.0,0.0,0.0,0.0,0.0,0.0,0.0,0.0,0.0,0.0,0.0,0.0,0.0,0.0,0.0,0.0,0.0,0.0,0.0,0.0,0.0,0.0,0.0,0.0,0.0,0.0,0.0,0.0,0.0,0.0,0.0,0.0,0.0,0.0,0.0,0.0,0.0,0.0,0.0,0.0,0.6689,0.6547,0.6425,0.0,0.0,0.0,0.0,0.6888,0.711,0.0,0.0,0.0,0.0,0.0,0.0,0.0,0.0,0.0,0.0,0.0,0.0,0.0,0.0,0.0,0.0,0.0,0.0,0.0,0.0,0.0,0.0,0.0,0.0,0.0,0.0,0.0,0.0,0.0,0.0,0.0,0.0,0.0,0.0,0.0,0.0,0.0,0.0,0.0,0.0,0.0,0.0,0.0,0.0,0.0,0.0,0.0,0.0,0.0,0.0,0.0,0.0,0.0,0.0,0.0,0.0,1.3052,1.3034,1.3015,1.2962,1.2962,1.2998,1.3069,1.2555,1.1957,0.0,0.0,0.0,0.0,0.0,0.0,0.0,0.0,0.0,0.0,0.0,0.0,0.0,0.0,0.0,0.0,0.0,0.0,0.0,0.0,0.0,0.0,0.0,0.0,0.0,0.0,0.0,0.0,0.0,0.0,0.0,0.0,0.0,0.0,0.0,0.0,0.0,0.0,0.0,0.0,0.0,0.649,0.6361,0.617,0.6032,0.0,0.0,0.6606,0.6724,0.7099,0.0,0.0,0.0,0.0,0.0,0.0,0.0,0.0,0.0,0.0,0.0,0.0,0.0,0.0,0.0,0.0,0.0,0.0,0.0,0.0,0.0,0.0,0.0,0.0,0.0,0.0,0.0,0.0,0.0,0.0,0.0,0.0,0.0,0.0,0.0,0.0,0.0,0.0,0.0,0.0,0.0,0.0,0.0,0.0,0.0,0.0,0.0,0.0,0.0,0.0,0.0,0.0,0.0,0.0,0.0,1.2954,1.3199,1.2831,1.2549,1.2455,1.2602,1.2411,1.1885,1.15,1.0832,0.0,0.0,0.0,0.0,0.0,0.0,0.0,0.0,0.0,0.0,0.0,0.0,0.0,0.0,0.0,0.0,0.0,0.0,0.0,0.0,0.0,0.0,0.0,0.0,0.0,0.0,0.0,0.0,0.0,0.0,0.0,0.0,0.0,0.0,0.0,0.0,0.0,0.0,0.0,0.0,0.0,0.0,0.6116,0.6131,0.0,0.0,0.0,0.6822,0.716,0.0,0.0,0.0,0.0,0.0,0.0,0.0,0.0,0.0,0.0,0.0,0.0,0.0,0.0,0.0,0.0,0.0,0.0,0.0,0.0,0.0,0.0,0.0,0.0,0.0,0.0,0.0,0.0,0.0,0.0,0.0,0.0,0.0,0.0,0.0,0.0,0.0,0.0,0.0,0.0,0.0,0.0,0.0,0.0,0.0,0.0,0.0,0.0,0.0,0.0,0.0,0.0,0.0,0.0,0.0,0.0,0.0,1.3151,1.2608,1.217,1.1882,1.2128,1.1767,1.0768,1.0234,0.0,0.0,0.0,0.0,0.0,0.0,0.0,0.0,0.0,0.0,0.0,0.0,0.0,0.0,0.0,0.0,0.0,0.0,0.0,0.0,0.0,0.0,0.0,0.0,0.0,0.0,0.0,0.2201,0.0,0.0,0.0,0.0,0.0,0.0,0.0,0.0,0.0,0.0,0.0,0.0,0.0,0.0,0.6483,0.6204,0.6318,0.6369,0.0,0.0,0.7001,0.7447,0.7692,0.7962,0.0,0.0,0.0,0.0,0.0,0.0,0.0,0.0,0.0,0.0,0.0,0.0,0.0,0.0,0.0,0.0,0.0,0.0,0.0,0.0,0.0,0.0,0.0,0.0,0.0,0.0,0.0,0.0,0.0,0.0,0.0,0.0,0.0,0.0,0.0,0.0,0.0,0.0,0.0,0.0,0.0,0.0,0.0,0.0,0.0,0.0,0.0,0.0,0.0,0.0,0.0,0.0,0.0,0.0,0.0,1.2559,1.2395,1.1956,1.1302,1.1468,1.1062,0.9981,0.8628,0.7757,0.0,0.0,0.0,0.0,0.0,0.0,0.0,0.0,0.0,0.0,0.0,0.0,0.0,0.0,0.0,0.0,0.0,0.0,0.0,0.0,0.0,0.0,0.0,0.0,0.0,0.0,0.0,0.0,0.0,0.0,0.0,0.0,0.0,0.0,0.0,0.0,0.0,0.0,0.0,0.0,0.0,0.7225,0.6961,0.6782,0.6627,0.0,0.0,0.7068,0.7273,0.7653,0.8011,0.828,0.0,0.0,0.0,0.0,0.0,0.0,0.0,0.0,0.0,0.0,0.0,0.0,0.0,0.0,0.0,0.0,0.0,0.0,0.0,0.0,0.0,0.0,0.0,0.0,0.0,0.0,0.0,0.0,0.0,0.0,0.0,0.0,0.0,0.0,0.0,0.0,0.0,0.0,0.0,0.0,0.0,0.0,0.0,0.0,0.0,0.0,0.0,0.0,0.0,0.0,0.0,0.0,0.0,1.277,1.2573,1.2038,1.1362,1.0619,1.0472,0.9888,0.8883,0.7327,0.6213,0.0,0.0,0.0,0.0,0.0,0.0,0.0,0.0,0.0,0.0,0.0,0.0,0.0,0.0,0.0,0.0,0.0,0.0,0.0,0.0,0.0,0.0,0.0,0.0,0.0,0.0,0.0,0.0,-0.1809,-0.2171,-0.1749,0.0,0.0,0.0,0.0,0.0,0.0,0.0,0.0,0.0,0.0,0.7093,0.6749,0.6751,0.0,0.0,0.6942,0.7206,0.7404,0.7511,0.7656,0.785,0.7898,0.0,0.0,0.0,0.0,0.0,0.0,0.0,0.0,0.0,0.0,0.0,0.0,0.0,0.0,0.0,0.0,0.0,0.0,0.0,0.0,0.0,0.0,0.0,0.0,0.0,0.0,0.0,0.0,0.0,0.0,0.0,0.0,0.0,0.0,0.0,0.0,0.0,0.0,0.0,0.0,0.0,0.0,0.0,0.0,0.0,0.0,0.0,0.0,0.0,0.0,0.0,0.0,1.2726,1.2524,1.174,1.092,1.0119,0.9567,0.8829,0.7798,0.6112,0.4989,0.0,0.0,0.0,0.0,0.0,0.0,0.0,0.0,0.0,0.0,0.0,0.0,0.0,0.0,0.0,0.0,0.0,0.0,0.0,0.0,0.0,0.0,0.0,0.0,0.0,0.0,0.0,0.0,-0.2607,-0.2536,-0.1779,0.0,0.0,0.0,0.0,0.0,0.0,0.0,0.0,0.0,0.0,0.7189,0.6842,0.6873,0.6915,0.6841,0.6973,0.7145,0.7303,0.7375,0.7448,0.7509,0.0,0.0,0.0,0.0,0.0,0.0,0.0,0.0,0.0,0.0,0.0,0.0,0.0,0.0,0.0,0.0,0.0,0.0,0.0,0.0,0.0,0.0,0.0,0.0,0.0,0.0,0.0,0.0,0.0,0.0,1.1676,0.0,0.0,0.0,0.0,0.0,0.0,0.0,0.0,0.0,0.0,0.0,0.0,0.0,0.0,0.0,0.0,0.0,0.0,0.0,0.0,0.0,0.0,1.252,1.2373,1.1604,1.072,0.9805,0.8888,0.7925,0.6869,0.5009,0.4189,0.4399,0.0,0.0,0.0,0.0,0.0,0.0,0.0,0.0,0.0,0.0,0.0,0.0,0.0,0.0,0.0,0.0,0.0,0.0,0.0,0.0,0.0,0.0,0.0,0.0,0.0,0.0,-0.297,-0.2852,-0.2321,0.0,0.0,0.0,0.0,0.0,0.0,0.0,0.0,0.0,0.0,0.7728,0.7715,0.7511,0.7264,0.7026,0.6906,0.6842,0.6859,0.6911,0.7176,0.7386,0.0,0.0,0.0,0.0,0.0,0.0,0.0,0.0,0.0,0.0,0.0,0.0,0.0,0.0,0.0,0.0,0.0,0.0,0.0,0.0,0.0,0.0,0.0,0.0,0.0,0.0,0.0,0.9638,0.9659,0.0,0.0,0.0,0.0,0.0,0.0,0.0,0.0,0.0,0.0,0.0,1.038,1.0671,0.0,0.0,0.0,0.0,0.0,0.0,0.0,0.0,0.0,0.0,0.0,0.0,1.2044,1.1477,1.0945,1.0124,0.8951,0.8318,0.7551,0.6571,0.5061,0.3519,0.1952,0.0,0.0,0.0,0.0,0.0,0.0,0.0,0.0,0.0,0.0,0.0,0.0,0.0,0.0,0.0,0.0,0.0,0.0,0.0,0.0,0.0,0.0,0.0,0.0,0.0,-0.3174,0.0,0.0,0.0,0.0,0.0,0.0,0.0,0.0,0.0,0.0,0.0,0.7276,0.7517,0.7386,0.7266,0.7302,0.7028,0.6893,0.0,0.0,0.0,0.0,0.0,0.0,0.0,0.0,0.0,0.0,0.0,0.0,0.0,0.0,0.5933,0.6072,0.5901,0.5605,0.51,0.0,0.0,0.0,0.0,0.0,0.0,0.0,0.0,0.0,0.0,0.0,0.0,0.0,0.0,0.8803,0.0,0.9058,0.0,0.0,0.0,0.0,0.0,0.0,0.0,0.0,0.9244,0.9167,0.9447,0.9588,0.9701,0.0,1.0106,1.0308,0.0,0.0,0.0,0.0,0.0,0.0,0.0,0.0,1.133,1.0737,1.02,0.9482,0.8503,0.7786,0.7006,0.615,0.4585,0.2799,0.0801,-0.0126,-0.0664,0.0,0.0,0.0,0.0,0.0,0.0,0.0,0.0,0.0,0.0,0.0,0.0,0.0,0.0,0.0,0.0,0.0,0.0,0.0,0.0,0.0,0.0,0.0,-0.3774,0.0,0.0,0.0,0.0,0.0,0.0,0.0,0.0,0.0,0.6657,0.6785,0.694,0.7238,0.7037,0.6905,0.7072,0.0,0.0,0.0,0.0,0.0,0.0,0.0,0.6743,0.6713,0.6684,0.6646,0.6485,0.6214,0.5957,0.5838,0.0,0.0,0.5364,0.5227,0.492,0.4416,0.4093,0.3822,0.3473,0.2854,0.2366,0.0,0.0,0.0,0.0,0.0,0.0,0.0,0.0,0.8536,0.8475,0.0,0.8722,0.0,0.0,0.0,0.0,0.0,0.8675,0.0,0.0,0.8008,0.7918,0.8174,0.8437,0.8491,0.8417,0.879,0.8963,0.9028,1.0517,0.0,0.0,0.0,0.0,0.0,0.0,1.033,1.0118,0.9404,0.8874,0.8411,0.7316,0.6357,0.5617,0.361,0.2051,0.1024,-0.0225,-0.095,-0.0976,-0.0755,0.0,0.0,0.0,0.0,0.0,0.0,0.0,0.0,0.0,0.0,0.0,0.0,0.0,0.0,0.0,0.0,0.0,0.0,0.0,0.0,-0.3538,0.0,0.0,0.0,0.0,0.0,0.0,0.0,0.0,0.0,0.0,0.6222,0.6508,0.6746,0.686,0.0,0.0,0.0,0.0,0.6527,0.632,0.6209,0.6068,0.6024,0.6252,0.6428,0.6282,0.0,0.0,0.6215,0.591,0.5642,0.5303,0.4865,0.4657,0.4938,0.4591,0.4085,0.351,0.3067,0.2632,0.2377,0.1837,0.1164,0.6284,0.0,0.0,0.0,0.0,0.656,0.6614,0.6763,0.6727,0.6679,0.6673,0.7056,0.0,0.0,0.0,0.0,0.0,0.0,0.7025,0.7114,0.6938,0.7048,0.743,0.7594,0.7715,0.7747,0.7866,0.7964,0.8088,0.8514,0.9126,0.9798,0.0,0.0,0.0,0.0,0.9171,0.8844,0.8503,0.8024,0.7432,0.682,0.5812,0.4382,0.3097,0.2053,0.1245,0.0381,-0.0275,-0.0699,-0.0385,0.0,0.0,0.0,0.0,0.0,0.0,0.0,0.0,0.0,0.0,0.0,0.0,0.0,0.0,0.0,0.0,0.0,0.0,0.0,-0.3748,-0.3804,-0.3523,0.0,0.0,0.0,0.0,0.0,0.0,0.0,0.0,0.0,0.6336,0.6609,0.6699,0.0,0.0,0.6229,0.6451,0.6298,0.6212,0.6281,0.6237,0.0,0.6002,0.602,0.5983,0.5905,0.5706,0.5529,0.5356,0.5043,0.4696,0.4355,0.3921,0.3565,0.3293,0.3429,0.3303,0.2857,0.2595,0.2239,0.1614,0.0985,0.0403,0.4548,0.4743,0.5081,0.5271,0.531,0.5257,0.5371,0.5562,0.5515,0.5468,0.5417,0.5719,0.5918,0.5969,0.6263,0.0,0.0,0.0,0.5815,0.5823,0.576,0.5923,0.6249,0.6357,0.6519,0.673,0.6681,0.6789,0.6945,0.6886,0.71,0.7691,0.0,0.0,0.8226,0.8164,0.799,0.773,0.7489,0.7183,0.6713,0.6074,0.5061,0.3646,0.286,0.2139,0.1507,0.0909,0.0386,-0.0023,0.0102,0.035,0.0,0.0,0.0,0.0,0.0,0.0,0.0,0.0,0.0,0.0,0.0,0.186,0.0,0.0,0.0,0.0,-0.2661,-0.3288,-0.3731,-0.3338,0.0,0.0,0.0,0.0,0.0,0.0,0.0,0.5807,0.6168,0.6321,0.6356,0.65,0.646,0.6257,0.6028,0.597,0.6153,0.0,0.5878,0.5979,0.5873,0.5707,0.5539,0.5448,0.5361,0.5198,0.4927,0.4705,0.4482,0.4216,0.3865,0.348,0.3129,0.2724,0.2373,0.237,0.2277,0.2012,0.1791,0.1435,0.0806,0.0179,-0.0403,0.2991,0.2549,0.3589,0.412,0.4293,0.4403,0.4498,0.4543,0.4698,0.4636,0.4577,0.468,0.4838,0.4941,0.5214,0.0,0.5113,0.4901,0.4732,0.456,0.456,0.4673,0.4791,0.4893,0.5105,0.5374,0.5324,0.5437,0.5609,0.5437,0.532,0.537,0.6561,0.7172,0.7193,0.6925,0.6726,0.6669,0.6463,0.6288,0.6044,0.5142,0.42,0.3332,0.2784,0.2285,0.1855,0.1356,0.1046,0.0924,0.0759,0.0825,0.1175,0.0,0.0,0.0,0.0,0.0,0.0,0.0,0.0,0.0,0.0,0.0,0.0,0.0,0.0,0.0,-0.3137,0.0,-0.2964,-0.2503,0.0,0.0,0.0,0.1085,0.2362,0.3618,0.4762,0.5676,0.0,0.0,0.6216,0.6173,0.6048,0.5937,0.5773,0.5734,0.5893,0.575,0.5588,0.5404,0.5188,0.4966,0.4797,0.4709,0.4578,0.432,0.4228,0.4005,0.3609,0.3382,0.312,0.2773,0.2415,0.2146,0.1975,0.1433,0.103,0.094,0.0672,0.0313,-0.0045,-0.0632,-0.1266,0.1708,0.1493,0.1726,0.2297,0.3038,0.3036,0.3146,0.3239,0.3219,0.3184,0.318,0.3329,0.3511,0.3729,0.3953,0.3956,0.3852,0.3799,0.3633,0.3516,0.3633,0.3741,0.3744,0.3901,0.4009,0.4064,0.4064,0.4067,0.4122,0.4067,0.3953,0.3837,0.413,0.4752,0.5681,0.5733,0.5651,0.5404,0.5389,0.5162,0.4831,0.4303,0.38,0.3323,0.2825,0.2438,0.2181,0.1861,0.1785,0.1939,0.1944,0.196,0.2021,0.2528,0.0,0.0,0.0,0.0,0.0,0.0,0.0,0.0,0.0,-0.1239,-0.2461,0.0,-0.3672,0.0,-0.3327,-0.3423,-0.4245,-0.2948,0.0,0.0,0.0192,0.1633,0.3162,0.3918,0.4664,0.5629,0.5699,0.5679,0.5696,0.5567,0.5422,0.5114,0.5275,0.5338,0.5101,0.5062,0.4932,0.4714,0.4578,0.4447,0.4268,0.4049,0.3832,0.366,0.3388,0.3167,0.2951,0.2632,0.2368,0.2194,0.1746,0.1298,0.094,0.0537,0.0089,-0.0268,-0.0358,-0.0407,-0.0885,-0.164,-0.2364,0.0566,0.035,0.0344,0.0667,0.1215,0.1641,0.1868,0.1903,0.1872,0.1857,0.1913,0.2203,0.255,0.2792,0.3072,0.3132,0.3079,0.3079,0.297,0.2689,0.2805,0.2858,0.2854,0.2963,0.3072,0.3188,0.3186,0.3186,0.3186,0.3186,0.313,0.3016,0.2903,0.3094,0.3678,0.4197,0.4437,0.435,0.4275,0.416,0.4017,0.3648,0.3331,0.3147,0.2783,0.2528,0.2374,0.2268,0.2324,0.2614,0.2962,0.3229,0.3459,0.3741,0.3915,0.0,0.0,0.0,0.0,0.0,0.0,0.0,0.0,0.0,0.0,0.0,-0.3691,-0.3722,-0.3203,-0.3119,-0.3685,-0.2118,-0.0877,-0.0422,0.0836,0.2106,0.3181,0.3776,0.4376,0.5038,0.5096,0.5053,0.5014,0.4923,0.4748,0.4447,0.4491,0.453,0.4487,0.4447,0.432,0.4096,0.3965,0.3836,0.3605,0.3385,0.3123,0.286,0.2677,0.2502,0.2373,0.1969,0.1609,0.1478,0.0985,0.0447,0.0045,-0.0268,-0.0716,-0.1344,-0.1432,-0.1408,-0.1649,-0.228,-0.2883,-0.065,-0.0919,-0.0913,-0.0829,-0.0741,0.0065,0.051,0.0622,0.062,0.0618,0.0675,0.1191,0.162,0.1915,0.2188,0.2354,0.2352,0.2354,0.2186,0.1965,0.1909,0.1964,0.1959,0.1959,0.2128,0.241,0.241,0.241,0.241,0.241,0.241,0.2354,0.2071,0.1847,0.1676,0.2547,0.3083,0.3334,0.3188,0.3212,0.3313,0.3067,0.2868,0.2803,0.2623,0.2483,0.2334,0.2486,0.2716,0.297,0.3695,0.4306,0.4803,0.4849,0.4861,0.0,0.4068,0.0,0.0,0.0,0.0,0.0,0.0,0.0,0.0,-0.3221,-0.3426,-0.3428,-0.2846,-0.2456,-0.2239,-0.0857,0.0225,0.0549,0.1512,0.2347,0.2867,0.3404,0.3924,0.4276,0.4403,0.4403,0.4276,0.4232,0.41,0.3836,0.3653,0.3605,0.3781,0.3785,0.37,0.352,0.3347,0.3081,0.2857,0.2682,0.2504,0.2146,0.1967,0.1878,0.1748,0.1299,0.0851,0.0537,0.0179,-0.0313,-0.0806,-0.1074,-0.1477,-0.2199,-0.2373,-0.2357,-0.2396,-0.2706,-0.317,-0.2547,-0.275,-0.2423,-0.2301,-0.2426,-0.2157,-0.1328,-0.0264,-0.0322,-0.0315,-0.0307,-0.006,0.0117,0.0175,0.0397,0.0505,0.0504,0.0504,0.0505,0.0561,0.0561,0.0617,0.0729,0.0728,0.0784,0.0841,0.084,0.084,0.084,0.084,0.0785,0.0673,0.0616,0.0673,0.084,0.0,0.0,0.0,0.2413,0.2427,0.2429,0.2405,0.2305,0.2264,0.2218,0.0,0.208,0.2275,0.2537,0.2926,0.3581,0.0,0.0,0.0,0.0,0.0,0.0,0.0,0.0,0.0,0.0,0.0,-0.2526,-0.2939,-0.3463,-0.3561,-0.3416,-0.3044,-0.2432,-0.1871,-0.1438,-0.0615,0.0355,0.1319,0.167,0.2084,0.2816,0.307,0.3303,0.3711,0.3799,0.3755,0.3633,0.3575,0.3442,0.3182,0.3034,0.2898,0.2682,0.2948,0.3034,0.286,0.2593,0.2326,0.2196,0.2107,0.2016,0.1884,0.1343,0.0984,0.076,0.0447,0.0045,-0.0358,-0.0672,-0.1119,-0.1749,-0.1925,-0.2057,-0.2551,-0.2862,-0.303,-0.3012,-0.3319,-0.3785,-0.3442,0.0,-0.353,-0.3438,0.0,-0.3378,-0.2856,-0.2144,-0.1786,-0.1616,-0.1509,-0.1302,-0.1212,-0.1234,-0.1156,-0.1082,-0.1066,-0.1066,-0.1066,-0.101,-0.0841,-0.0673,-0.0449,-0.0449,-0.0449,-0.0449,-0.0449,-0.0449,-0.0449,-0.0449,-0.0449,-0.0561,-0.0561,-0.0336,-0.0,0.0224,0.0778,0.1748,0.1772,0.183,0.1965,0.1892,0.179,0.1756,0.1768,0.0,0.0,0.0,0.0,0.0,0.0,0.0,0.0,0.4966,0.0,0.4194,0.3856,0.2751,0.0702,-0.0845,-0.1889,-0.2366,-0.2752,-0.3125,-0.3338,-0.3212,-0.2961,-0.2579,-0.2154,-0.1617,-0.0928,-0.0244,0.0538,0.1423,0.1736,0.2073,0.2609,0.2814,0.3017,0.3266,0.3319,0.3228,0.313,0.3039,0.2848,0.2652,0.2472,0.2351,0.2211,0.2355,0.2457,0.2328,0.2105,0.1791,0.1432,0.1344,0.121,0.094,0.0626,0.0268,-0.0045,-0.0358,-0.0672,-0.1165,-0.1477,-0.1789,-0.2192,-0.2457,-0.2677,-0.3081,-0.3435,-0.3714,-0.3848,-0.4103,-0.4404,-0.4183,-0.4334,-0.446,-0.4483,-0.4292,-0.4274,-0.4201,-0.4023,0.0,0.0,0.0,-0.2516,-0.2447,-0.2393,-0.2378,-0.2332,-0.2324,-0.2322,-0.2315,-0.2247,-0.2021,-0.174,-0.1458,-0.1458,-0.1401,-0.1402,-0.1402,-0.1402,-0.1402,-0.1402,-0.1401,-0.1402,-0.1401,-0.1178,-0.0729,-0.0393,0.0112,0.0784,0.0982,0.1233,0.149,0.1307,0.126,0.1251,0.1342,0.1495,0.1815,0.1796,0.2107,0.2789,0.3517,0.4195,0.4688,0.4937,0.4803,0.4271,0.4228,0.3142,0.0696,-0.0951,-0.1983,-0.2419,-0.2724,-0.2922,-0.2931,-0.2679,-0.2431,-0.2158,-0.1901,-0.1415,-0.0509,0.0043,0.0611,0.1264,0.1688,0.2044,0.2344,0.2549,0.2721,0.2899,0.2804,0.2713,0.2657,0.2509,0.2319,0.2157,0.186,0.1678,0.1661,0.1698,0.1743,0.1657,0.1433,0.1165,0.0761,0.0492,0.0313,-0.0,-0.0224,-0.0492,-0.0895,-0.1119,-0.1477,-0.1927,-0.2148,-0.2368,-0.2635,-0.299,-0.3341,-0.3744,-0.4092,-0.4395,-0.4675,-0.4875,-0.5033,-0.5306,-0.5591,-0.5626,-0.5555,-0.5545,-0.5421,-0.5287,-0.5096,-0.4092,-0.3616,-0.3597,-0.3508,-0.3394,-0.324,-0.316,-0.3007,-0.2803,-0.2801,-0.2703,-0.2467,-0.241,-0.2296,-0.2071,-0.1959,-0.1903,-0.1903,-0.179,-0.1736,-0.1736,-0.1736,-0.1736,-0.1734,-0.1734,-0.1513,-0.1122,-0.1122,-0.1066,-0.0953,-0.0167,0.022,0.032,0.0527,0.0672,0.0801,0.1012,0.118,0.1227,0.1278,0.1383,0.1641,0.2255,0.2767,0.3187,0.3341,0.3155,0.276,0.312,0.2457,0.0348,-0.0851,-0.1661,-0.2116,-0.2202,-0.2356,-0.2607,-0.2408,-0.2195,-0.1943,-0.1539,-0.1017,-0.031,0.0092,0.0562,0.1086,0.146,0.1743,0.2002,0.2201,0.2305,0.2274,0.2213,0.2121,0.1928,0.1978,0.188,0.1617,0.1159,0.0742,0.0525,0.0643,0.0807,0.0671,0.0403,0.0224,-0.0,-0.0268,-0.0492,-0.0582,-0.1165,-0.1567,-0.1882,-0.1925,-0.2099,-0.2506,-0.2724,-0.2987,-0.3341,-0.3737,-0.4005,-0.4276,-0.4622,-0.5009,-0.5318,-0.5581,-0.5793,-0.6325,-0.663,-0.671,-0.6656,-0.6557,-0.6301,-0.6105,-0.5892,-0.5422,-0.502,-0.4686,-0.4492,-0.4367,-0.4238,-0.399,-0.384,-0.3667,-0.355,-0.3409,-0.3301,-0.3242,-0.3046,-0.2868,-0.2709,-0.2517,-0.241,-0.2352,-0.2296,-0.2296,-0.2296,-0.2296,-0.2296,-0.2127,-0.1903,-0.1681,-0.1569,-0.1568,-0.1568,-0.1009,-0.0668,-0.0657,-0.0431,-0.0264,-0.0052,0.02,0.0393,0.054,0.0676,0.0909,0.11,0.1578,0.1876,0.2074,0.2516,0.26,0.2242,0.2109,0.1559,0.0379,-0.08,-0.1647,-0.1901,-0.1987,-0.205,-0.2008,-0.1838,-0.1699,-0.1515,-0.1153,-0.0771,-0.0325,0.024,0.0688,0.0885,0.1249,0.1526,0.1763,0.1924,0.2043,0.2131,0.2033,0.1766,0.1338,0.123,0.1124,0.0748,0.0264,-0.0102,-0.0384,-0.0516,-0.0413,-0.0225,-0.0268,-0.0582,-0.094,-0.121,-0.1343,-0.1431,-0.1744,-0.2148,-0.246,-0.2591,-0.2768,-0.3081,-0.3344,-0.3612,-0.3965,-0.4272,-0.4583,-0.4845,-0.5188,-0.5534,-0.5836,-0.6301,-0.6562,-0.7326,-0.7561,-0.7714,-0.7681,-0.7474,-0.711,-0.6869,-0.6743,-0.6634,-0.635,-0.5888,-0.5554,-0.5353,-0.525,-0.4922,-0.4655,-0.4535,-0.4344,-0.4268,-0.423,-0.4133,-0.3912,-0.3666,-0.3447,-0.3224,-0.2999,-0.2925,-0.2914,-0.2914,-0.2914,-0.2914,-0.2802,-0.2519,-0.2294,-0.2181,-0.2071,-0.2015,-0.1959,-0.1737,-0.157,-0.1401,-0.1257,-0.1078,-0.086,-0.0625,-0.0408,-0.0204,-0.0051,0.0252,0.0605,0.0908,0.1094,0.1161,0.1687,0.1903,0.162,0.1151,0.0598,-0.0,-0.0966,-0.1614,-0.1752,-0.1845,-0.1776,-0.153,-0.1461,-0.1332,-0.1149,-0.0852,-0.0578,-0.0291,0.02,0.0664,0.0766,0.0978,0.11,0.1342,0.1456,0.1634,0.1677,0.1515,0.1176,0.0785,0.0449,0.0168,-0.0334,-0.0762,-0.0985,-0.1076,-0.1438,-0.1545,-0.127,-0.103,-0.1164,-0.1837,-0.1973,-0.2061,-0.2233,-0.2322,-0.2588,-0.2943,-0.3167,-0.3388,-0.3697,-0.4005,-0.4272,-0.4539,-0.4845,-0.5106,-0.541,-0.575,-0.6087,-0.6435,-0.6937,-0.7231,-0.8174,-0.8551,-0.8623,-0.8435,-0.829,-0.7892,-0.7709,-0.7653,-0.748,-0.7391,-0.7195,-0.6609,-0.6207,-0.599,-0.5855,-0.5571,-0.5294,-0.5174,-0.5043,-0.4928,-0.4891,-0.4766,-0.4575,-0.4324,-0.4082,-0.3785,-0.3642,-0.3546,-0.3538,-0.3474,-0.3471,-0.3304,-0.3021,-0.285,-0.2796,-0.2687,-0.2635,-0.2635,-0.2579,-0.2296,-0.179,-0.173,-0.1616,-0.1452,-0.1296,-0.122,-0.1113,-0.0976,-0.0706,-0.0302,-0.0101,0.0151,0.0351,0.0451,0.045,0.0299,0.01,-0.0399,-0.1346,-0.1449,-0.1493,-0.1598,-0.1642,-0.1595,-0.1455,-0.1395,-0.1291,-0.1049,-0.0752,-0.0451,-0.0151,-0.0,0.0265,0.0637,0.0543,0.039,0.0445,0.0502,0.0503,0.0392,0.0224,0.0112,-0.0112,-0.0393,-0.0785,-0.1457,-0.1804,-0.2002,-0.1918,-0.2046,-0.2311,-0.2226,-0.2016,-0.1835,-0.2101,-0.2279,-0.2549,-0.2812,-0.299,-0.3255,-0.352,-0.3829,-0.4092,-0.4316,-0.4622,-0.4927,-0.5188,-0.5448,-0.5707,-0.5927,-0.6307,-0.6725,-0.7202,-0.7538,-0.7704,-0.9013,-0.9387,-0.9387,-0.926,-0.9103,-0.8918,-0.8697,-0.8451,-0.8358,-0.824,-0.8062,-0.7792,-0.7335,-0.6736,-0.6548,-0.6371,-0.6169,-0.5979,-0.5883,-0.5803,-0.5649,-0.5417,-0.5275,-0.4948,-0.476,-0.4574,-0.4457,-0.4333,-0.414,-0.3952,-0.3799,-0.363,-0.3463,-0.3411,-0.3302,-0.3249,-0.3249,-0.3249,-0.3135,-0.2965,-0.274,-0.2406,-0.2127,-0.1902,-0.1768,-0.1701,-0.1589,-0.1513,-0.1395,-0.1234,-0.0967,-0.0746,-0.0625,-0.0677,-0.0568,-0.0455,-0.0807,-0.1211,-0.1666,-0.1717,-0.1767,-0.192,-0.192,-0.1833,-0.1714,-0.1717,-0.1626,-0.1441,-0.1002,-0.0625,-0.0575,-0.043,-0.0274,-0.0055,-0.0111,-0.0168,-0.0224,-0.0224,-0.0393,-0.0897,-0.101,-0.1121,-0.1288,-0.1456,-0.1792,-0.2237,-0.2536,-0.2698,-0.2767,-0.2821,-0.2957,-0.3124,-0.2996,-0.2815,-0.2812,-0.2987,-0.3211,-0.3435,-0.37,-0.3921,-0.4136,-0.4439,-0.4705,-0.4888,-0.5193,-0.5496,-0.5669,-0.597,-0.6264,-0.6483,-0.6859,-0.7314,-0.769,-0.7995,-0.8118,-0.9841,-1.0218,-1.0218,-1.0187,-1.0014,-0.9947,-0.9723,-0.9399,-0.9254,-0.9092,-0.8935,-0.8803,-0.8376,-0.7722,-0.7335,-0.7138,-0.6937,-0.6806,-0.6679,-0.6597,-0.6342,-0.6157,-0.5942,-0.5732,-0.5525,-0.5391,-0.5225,-0.5026,-0.4738,-0.4425,-0.4241,-0.4126,-0.4036,-0.3913,-0.3808,-0.3749,-0.3749,-0.3691,-0.3635,-0.358,-0.3466,-0.3077,-0.2687,-0.2406,-0.2293,-0.2183,-0.2071,-0.2071,-0.2015,-0.1959,-0.1682,-0.1554,-0.1515,-0.1459,-0.1334,-0.1147,-0.1507,-0.1819,-0.1819,-0.1924,-0.2028,-0.2134,-0.2184,-0.2156,-0.2091,-0.2103,-0.2072,-0.2054,-0.1588,-0.1242,-0.1029,-0.0939,-0.0896,-0.101,-0.0953,-0.0896,-0.1008,-0.1008,-0.1233,-0.174,-0.185,-0.2074,-0.2296,-0.246,-0.2683,-0.2903,-0.3123,-0.3309,-0.3573,-0.3595,-0.3658,-0.3903,-0.3886,-0.3751,-0.348,-0.3612,-0.3877,-0.4052,-0.4272,-0.4535,-0.4748,-0.5009,-0.527,-0.5453,-0.5761,-0.6019,-0.6179,-0.6477,-0.6859,-0.7063,-0.7398,-0.7773,-0.8144,-0.8406,-0.8618,-1.0663,-1.1037,-1.1043,-1.1019,-1.1001,-1.084,-1.0713,-1.061,-1.0158,-0.9989,-0.9874,-0.9456,-0.9151,-0.8835,-0.8252,-0.7857,-0.7661,-0.7526,-0.7326,-0.7199,-0.712,-0.6985,-0.665,-0.6549,-0.6396,-0.6253,-0.5875,-0.5601,-0.5385,-0.51,-0.4962,-0.4894,-0.4654,-0.4359,-0.42,-0.42,-0.4082,-0.4021,-0.3968,-0.3965,-0.3968,-0.3796,-0.3461,-0.2961,-0.285,-0.2796,-0.2689,-0.2691,-0.2579,-0.2465,-0.2296,-0.2125,-0.2009,-0.1896,-0.1835,-0.1943,-0.2001,-0.2057,-0.2166,-0.2216,-0.2218,-0.2279,-0.2434,-0.2506,-0.25,-0.2615,-0.2674,-0.2633,-0.2512,-0.2169,-0.1667,-0.1505,-0.1624,-0.1964,-0.2018,-0.2015,-0.2015,-0.1958,-0.1959,-0.2071,-0.2352,-0.2631,-0.285,-0.3292,-0.3516,-0.368,-0.3901,-0.4187,-0.4277,-0.4325,-0.4417,-0.4534,-0.455,-0.4403,-0.4012,-0.4144,-0.436,-0.4622,-0.484,-0.5053,-0.5275,-0.5534,-0.5755,-0.6013,-0.6349,-0.6605,-0.6725,-0.7021,-0.744,-0.769,-0.7848,-0.8185,-0.8513,-0.8732,-0.8943,-1.1484,-1.1855,-1.1855,-1.1855,-1.1842,-1.1752,-1.1689,-1.1501,-1.13,-1.1024,-1.0763,-1.0435,-1.0052,-0.9777,-0.9356,-0.8835,-0.8252,-0.8047,-0.7912,-0.7787,-0.7591,-0.7466,-0.7326,-0.7066,-0.697,-0.6888,-0.6638,-0.6358,-0.6109,-0.5812,-0.5596,-0.5455,-0.5197,-0.5,-0.4819,-0.4734,-0.4625,-0.457,-0.4522,-0.4467,-0.4411,-0.4353,-0.4128,-0.3907,-0.3522,-0.3302,-0.3307,-0.3249,-0.3251,-0.3193,-0.291,-0.274,-0.2685,-0.2519,-0.241,-0.2465,-0.2517,-0.2627,-0.2629,-0.274,-0.2796,-0.2798,-0.2965,-0.3077,-0.3079,-0.3193,-0.3249,-0.3249,-0.3249,-0.3079,-0.2854,-0.2406,-0.2184,-0.2354,-0.2519,-0.2627,-0.2627,-0.2627,-0.274,-0.291,-0.3132,-0.3463,-0.3683,-0.4015,-0.4236,-0.4457,-0.4732,-0.4973,-0.5181,-0.5241,-0.5253,-0.5316,-0.5306,-0.5261,-0.5111,-0.4937,-0.5024,-0.528,-0.5496,-0.5663,-0.5884,-0.613,-0.6392,-0.6477,-0.6859,-0.7112,-0.7231,-0.7474,-0.7938,-0.8193,-0.8349,-0.8553,-0.8846,-0.9065,-0.9274,-1.2378,-1.2599,-1.2673,-1.2673,-1.2673,-1.2673,-1.2563,-1.2298,-1.2203,-1.1968,-1.1612,-1.1269,-1.0889,-1.052,-1.0276,-0.9744,-0.9092,-0.8694,-0.8495,-0.8366,-0.8182,-0.7992,-0.7857,-0.7591,-0.7521,-0.7461,-0.7269,-0.7001,-0.6744,-0.6423,-0.621,-0.6014,-0.5842,-0.5607,-0.5427,-0.5261,-0.5187,-0.5026,-0.4904,-0.4798,-0.4798,-0.4684,-0.4625,-0.457,-0.4242,-0.3971,-0.3808,-0.3808,-0.3805,-0.3691,-0.3466,-0.3299,-0.3244,-0.3079,-0.297,-0.3026,-0.3077,-0.3132,-0.3132,-0.319,-0.3299,-0.3297,-0.3524,-0.358,-0.3688,-0.3802,-0.386,-0.3913,-0.3913,-0.3916,-0.3805,-0.3469,-0.3132,-0.3021,-0.3074,-0.3183,-0.3241,-0.3408,-0.3574,-0.3799,-0.4073,-0.4291,-0.4512,-0.4787,-0.5011,-0.523,-0.55,-0.5773,-0.6023,-0.6034,-0.6069,-0.6201,-0.6013,-0.6032,-0.5996,-0.593,-0.5723,-0.5879,-0.605,-0.6227,-0.6441,-0.6732,-0.6894,-0.6985,-0.7238,-0.753,-0.778,-0.8021,-0.8308,-0.8602,-0.8797,-0.8958,-0.9168,-0.9386,-0.9585,-1.3207,-1.3294,-1.3419,-1.3492,-1.3419,-1.3419,-1.3339,-1.3114,-1.2949,-1.2685,-1.2473,-1.2054,-1.1648,-1.1281,-1.0969,-1.0594,-1.0187,-0.9643,-0.9168,-0.8829,-0.877,-0.8571,-0.8236,-0.8172,-0.8107,-0.7917,-0.7797,-0.7531,-0.7233,-0.699,-0.6831,-0.6684,-0.6524,-0.6232,-0.5912,-0.5846,-0.5688,-0.5397,-0.5195,-0.5128,-0.5073,-0.5011,-0.4956,-0.4952,-0.4897,-0.4684,-0.4249,-0.4193,-0.4135,-0.4024,-0.391,-0.3747,-0.3635,-0.3638,-0.3638,-0.3583,-0.3585,-0.3585,-0.3638,-0.3638,-0.3691,-0.3799,-0.3962,-0.4076,-0.4236,-0.4405,-0.4519,-0.4515,-0.4515,-0.4515,-0.4519,-0.4574,-0.4353,-0.3907,-0.3793,-0.3907,-0.4021,-0.4128,-0.4346,-0.4684,-0.4904,-0.512,-0.5336,-0.5555,-0.5778,-0.5941,-0.6213,-0.6485,-0.6637,-0.6702,-0.6813,-0.6991,-0.685,-0.6725,-0.6814,-0.6856,-0.6606,-0.6471,-0.6598,-0.6774,-0.695,-0.716,-0.7314,-0.7447,-0.7731,-0.807,-0.8316,-0.8513,-0.8675,-0.8967,-0.9159,-0.9319,-0.9536,-0.9704,-0.9853,-1.4037,-1.4156,-1.4011,-1.3912,-1.392,-1.3912,-1.3848,-1.384,-1.3727,-1.3554,-1.3287,-1.2868,-1.2527,-1.2261,-1.188,-1.1402,-1.0934,-1.0588,-1.0037,-0.9426,-0.9215,-0.9017,-0.8759,-0.8635,-0.8436,-0.8177,-0.8042,-0.7912,-0.7772,-0.7648,-0.756,-0.7393,-0.7221,-0.6969,-0.6619,-0.6388,-0.6085,-0.5862,-0.5686,-0.5572,-0.5572,-0.5517,-0.5517,-0.5517,-0.5517,-0.5403,-0.5179,-0.4849,-0.4684,-0.4622,-0.4463,-0.4356,-0.4245,-0.4242,-0.4187,-0.419,-0.419,-0.4242,-0.4242,-0.4242,-0.4298,-0.4408,-0.4574,-0.4684,-0.4791,-0.4952,-0.5062,-0.5062,-0.5062,-0.512,-0.5234,-0.5289,-0.5069,-0.4522,-0.4574,-0.4684,-0.4794,-0.5011,-0.5285,-0.5508,-0.5673,-0.5782,-0.605,-0.6322,-0.6485,-0.6652,-0.6923,-0.7192,-0.723,-0.7382,-0.7512,-0.7708,-0.7517,-0.7456,-0.7616,-0.7613,-0.7428,-0.7199,-0.723,-0.7245,-0.7412,-0.7621,-0.7739,-0.7938,-0.8267,-0.8513,-0.8765,-0.8975,-0.9128,-0.9288,-0.9448,-0.9655,-0.9862,-1.0019,-1.0166,-1.4976,-1.4918,-1.478,-1.4607,-1.4489,-1.4482,-1.4497,-1.4425,-1.4425,-1.4281,-1.3947,-1.3709,-1.3323,-1.3064,-1.2651,-1.2248,-1.1769,-1.1445,-1.0889,-1.018,-0.9682,-0.9472,-0.928,-0.9087,-0.8823,-0.856,-0.8501,-0.8436,-0.8312,-0.8187,-0.8052,-0.7887,-0.7782,-0.7535,-0.7207,-0.7024,-0.6773,-0.6487,-0.629,-0.6142,-0.6028,-0.595,-0.5946,-0.5955,-0.595,-0.5891,-0.5782,-0.5555,-0.5281,-0.5117,-0.4959,-0.4901,-0.4791,-0.4791,-0.4791,-0.4787,-0.4791,-0.4791,-0.4791,-0.4791,-0.4901,-0.5069,-0.5175,-0.5336,-0.5504,-0.5609,-0.5664,-0.566,-0.5719,-0.5773,-0.5896,-0.6005,-0.5891,-0.5563,-0.5454,-0.5508,-0.5563,-0.5891,-0.6109,-0.6273,-0.6431,-0.6593,-0.6761,-0.6972,-0.7133,-0.73,-0.7622,-0.7836,-0.7889,-0.8043,-0.8235,-0.8313,-0.8307,-0.8324,-0.8393,-0.8332,-0.8209,-0.8031,-0.7884,-0.7824,-0.7836,-0.8111,-0.8267,-0.8513,-0.8765,-0.8918,-0.9168,-0.9297,-0.9466,-0.9625,-0.9734,-0.9971,-1.0127,-1.0283,-1.0428,-1.591,-1.5675,-1.5774,-1.5551,-1.5262,-1.5221,-1.507,-1.4935,-1.4864,-1.4713,-1.4489,-1.4386,-1.4103,-1.3738,-1.3459,-1.3056,-1.2616,-1.2108,-1.168,-1.1149,-1.0509,-0.9983,-0.9734,-0.9466,-0.921,-0.9017,-0.9011,-0.8888,-0.8765,-0.8576,-0.8441,-0.8296,-0.8151,-0.795,-0.7787,-0.7731,-0.7431,-0.708,-0.6845,-0.6656,-0.643,-0.6322,-0.6209,-0.6263,-0.6268,-0.6213,-0.6209,-0.6154,-0.5932,-0.5445,-0.5386,-0.5386,-0.5332,-0.5336,-0.5332,-0.5332,-0.5336,-0.5336,-0.5332,-0.5386,-0.55,-0.5773,-0.5828,-0.5937,-0.6209,-0.6263,-0.6263,-0.6263,-0.6376,-0.6436,-0.6544,-0.6707,-0.6874,-0.6874,-0.6436,-0.6213,-0.6436,-0.6766,-0.6874,-0.6982,-0.7192,-0.7402,-0.7515,-0.7676,-0.7777,-0.7931,-0.8256,-0.8421,-0.8474,-0.8633,-0.8903,-0.9003,-0.901,-0.9069,-0.9129,-0.9136,-0.9011,-0.8849,-0.8664,-0.8474,-0.8356,-0.8521,-0.8756,-0.9007,-0.9168,-0.9328,-0.9448,-0.9585,-0.9744,-0.9853,-1.0049,-1.0244,-1.0438,-1.0544,-1.0659,-1.6968,-1.6885,-1.6427,-1.6147,-1.6012,-1.5623,-1.5434,-1.5363,-1.5213,-1.5133,-1.4991,-1.4856,-1.4673,-1.4514,-1.4205,-1.3893,-1.3485,-1.2886,-1.2321,-1.1826,-1.1263,-1.0561,-1.0053,-0.9856,-0.9658,-0.9396,-0.9396,-0.921,-0.8958,-0.8894,-0.8823,-0.8818,-0.8689,-0.8608,-0.8468,-0.8248,-0.7922,-0.7633,-0.7183,-0.6964,-0.6834,-0.6673,-0.6593,-0.6539,-0.6588,-0.6588,-0.6539,-0.6539,-0.6426,-0.6041,-0.5991,-0.5987,-0.5987,-0.5932,-0.5932,-0.5932,-0.5987,-0.5932,-0.5991,-0.5987,-0.61,-0.6431,-0.6431,-0.6588,-0.681,-0.6864,-0.6864,-0.6864,-0.6972,-0.7079,-0.7192,-0.7408,-0.7574,-0.7735,-0.7348,-0.7074,-0.7192,-0.7354,-0.7509,-0.7664,-0.783,-0.7996,-0.8156,-0.8262,-0.8415,-0.8573,-0.8791,-0.9001,-0.9054,-0.9211,-0.9472,-0.9681,-0.9724,-0.9811,-0.9823,-0.9891,-0.9853,-0.9703,-0.9483,-0.9207,-0.9047,-0.8935,-0.9168,-0.9368,-0.9496,-0.9655,-0.9734,-0.9853,-0.9971,-1.0118,-1.0273,-1.0467,-1.0659,-1.085,-1.0937,-1.7787,-1.7735,-1.7133,-1.6793,-1.6602,-1.6085,-1.585,-1.585,-1.5709,-1.563,-1.5559,-1.5363,-1.5229,-1.515,-1.4848,-1.4609,-1.4245,-1.3707,-1.3096,-1.2525,-1.1772,-1.101,-1.0491,-1.0308,-1.011,-0.9843,-0.9786,-0.9594,-0.9402,-0.9274,-0.9204,-0.9139,-0.9075,-0.8952,-0.8877,-0.8701,-0.8425,-0.8191,-0.7843,-0.7645,-0.7394,-0.7255,-0.7122,-0.7063,-0.7031,-0.7031,-0.7031,-0.7031,-0.6864,-0.6534,-0.6426,-0.6431,-0.6485,-0.649,-0.6544,-0.6539,-0.6588,-0.6593,-0.6588,-0.6588,-0.6756,-0.6977,-0.7031,-0.7187,-0.7348,-0.745,-0.7456,-0.745,-0.7628,-0.7794,-0.7895,-0.8055,-0.8268,-0.8427,-0.8256,-0.8096,-0.799,-0.8109,-0.8209,-0.8315,-0.8421,-0.8586,-0.8738,-0.8844,-0.9001,-0.9106,-0.9316,-0.942,-0.9532,-0.9792,-0.9991,-1.0146,-1.0352,-1.0412,-1.0458,-1.0489,-1.0552,-1.0418,-1.0374,-1.0063,-0.9706,-0.9533,-0.9609,-0.9808,-0.989,-1.0009,-1.0154,-1.0263,-1.0273,-1.038,-1.0495,-1.0708,-1.0919,-1.1088,-1.1174,-1.8558,-1.827,-1.7765,-1.7456,-1.718,-1.6617,-1.6351,-1.6342,-1.6272,-1.6202,-1.6061,-1.5938,-1.5726,-1.5568,-1.5355,-1.5133,-1.4966,-1.4375,-1.3771,-1.3065,-1.2289,-1.1508,-1.0989,-1.0751,-1.0555,-1.0301,-1.0174,-1.0047,-0.9919,-0.9652,-0.9582,-0.9524,-0.9274,-0.9145,-0.9145,-0.9058,-0.8954,-0.8754,-0.8567,-0.8291,-0.7942,-0.779,-0.7644,-0.7436,-0.7408,-0.7408,-0.7408,-0.7408,-0.7246,-0.6864,-0.681,-0.6869,-0.6933,-0.6987,-0.7036,-0.7085,-0.7133,-0.7133,-0.7192,-0.7187,-0.73,-0.7521,-0.7574,-0.7729,-0.7931,-0.7984,-0.7984,-0.7984,-0.8293,-0.8453,-0.8586,-0.8745,-0.8903,-0.9061,-0.9159,-0.9099,-0.8896,-0.885,-0.891,-0.891,-0.9008,-0.9113,-0.9263,-0.9413,-0.9517,-0.9681,-0.9836,-0.994,-1.0102,-1.0257,-1.0462,-1.0667,-1.0863,-1.1015,-1.1031,-1.1092,-1.1151,-1.1165,-1.1168,-1.0985,-1.0489,-1.0287,-1.0245,-1.0347,-1.063,-1.0762,-1.0785,-1.0815,-1.0804,-1.0921,-1.1232,-1.1253,-1.1259,-1.1319,-1.1421,-1.9423,-1.944,-1.8704,-1.8424,-1.8154,-1.722,-1.676,-1.6769,-1.6491,-1.6342,-1.6272,-1.6202,-1.614,-1.614,-1.5788,-1.5655,-1.5463,-1.4902,-1.4069,-1.3187,-1.2827,-1.2294,-1.1744,-1.131,-1.0933,-1.0681,-1.0555,-1.0364,-1.0238,-1.0047,-0.9919,-0.9849,-0.9792,-0.9792,-0.9728,-0.946,-0.9378,-0.9255,-0.8983,-0.8601,-0.8316,-0.8103,-0.7835,-0.7609,-0.7515,-0.7521,-0.7461,-0.7461,-0.7574,-0.7574,-0.7467,-0.7359,-0.7359,-0.7359,-0.7461,-0.7509,-0.7563,-0.761,-0.7717,-0.7717,-0.783,-0.8002,-0.8162,-0.8256,-0.8415,-0.8527,-0.8586,-0.8646,-0.8831,-0.9095,-0.9263,-0.9354,-0.9517,-0.9629,-0.974,-0.9844,-0.9844,-0.9621,-0.9472,-0.9472,-0.9584,-0.9688,-0.9784,-0.9999,-1.0102,-1.03,-1.0403,-1.0506,-1.0616,-1.0777,-1.0922,-1.1116,-1.1267,-1.1418,-1.1584,-1.1666,-1.1792,-1.1883,-1.192,-1.1986,-1.147,-1.125,-1.1305,-1.142,-1.1541,-1.1578,-1.147,-1.1727,-1.1789,-1.1911,-1.1938,-1.193,-1.1925,-1.1845,-1.1744,-1.9794,-1.9778,-1.9042,-1.8682,-1.855,-1.7619,-1.7185,-1.7116,-1.6978,-1.6839,-1.6839,-1.67,-1.6551,-1.6551,-1.6211,-1.6079,-1.5843,-1.5334,-1.4454,-1.3631,-1.3155,-1.2759,-1.2305,-1.1809,-1.1435,-1.1185,-1.0933,-1.0744,-1.0618,-1.0434,-1.0308,-1.0238,-1.011,-0.9989,-0.9989,-0.9849,-0.9779,-0.9709,-0.9454,-0.9199,-0.8975,-0.8703,-0.8303,-0.7979,-0.7889,-0.7889,-0.7883,-0.7883,-0.7996,-0.8049,-0.8002,-0.7895,-0.7842,-0.7842,-0.7889,-0.799,-0.8043,-0.8096,-0.8196,-0.8249,-0.8309,-0.8527,-0.8639,-0.8791,-0.889,-0.9054,-0.9106,-0.9218,-0.9389,-0.9598,-0.988,-1.0035,-1.0095,-1.0205,-1.0257,-1.0419,-1.0462,-1.0249,-1.0043,-1.0043,-1.0102,-1.0205,-1.0316,-1.047,-1.0616,-1.071,-1.0761,-1.0863,-1.1074,-1.1226,-1.1368,-1.1519,-1.1669,-1.1877,-1.2076,-1.2227,-1.2425,-1.257,-1.2663,-1.2752,-1.266,-1.2544,-1.2507,-1.243,-1.2259,-1.2191,-1.2163,-1.2468,-1.2637,-1.2603,-1.2587,-1.2633,-1.2611,-1.2497,-1.2384,-2.006,-1.9936,-1.9163,-1.8883,-1.8629,-1.7932,-1.7529,-1.7608,-1.7539,-1.7401,-1.747,-1.7116,-1.6968,-1.6908,-1.656,-1.6394,-1.6017,-1.5669,-1.4899,-1.4139,-1.3696,-1.334,-1.2908,-1.2492,-1.2117,-1.1814,-1.1394,-1.1192,-1.1059,-1.0877,-1.0688,-1.0618,-1.0364,-1.0238,-1.0174,-1.011,-1.0047,-1.0047,-0.9913,-0.9781,-0.9553,-0.9263,-0.8852,-0.8422,-0.8315,-0.8315,-0.8315,-0.8315,-0.8427,-0.848,-0.848,-0.8427,-0.8374,-0.8268,-0.8328,-0.8421,-0.8474,-0.858,-0.8679,-0.8732,-0.8844,-0.9054,-0.9113,-0.9211,-0.9361,-0.9517,-0.9621,-0.9732,-0.9895,-1.0102,-1.0387,-1.0498,-1.0616,-1.0769,-1.082,-1.0871,-1.0922,-1.082,-1.0718,-1.0565,-1.0616,-1.0718,-1.0769,-1.0863,-1.1023,-1.1124,-1.1175,-1.1276,-1.1477,-1.1628,-1.1769,-1.1918,-1.2076,-1.2264,-1.2471,-1.2706,-1.2909,-1.3092,-1.3253,-1.3412,-1.3523,-1.3491,-1.3296,-1.2979,-1.2813,-1.2827,-1.2979,-1.3226,-1.3336,-1.3225,-1.3295,-1.3398,-1.3331,-1.3191,-1.311,-2.0755,-2.0367,-1.9879,-1.9461,-1.8993,-1.8282,-1.794,-1.7872,-1.7676,-1.7539,-1.7539,-1.7392,-1.7392,-1.7323,-1.6978,-1.6441,-1.5949,-1.5627,-1.5225,-1.4649,-1.4284,-1.4045,-1.3638,-1.3068,-1.2838,-1.2632,-1.2022,-1.156,-1.1435,-1.1185,-1.1059,-1.0996,-1.087,-1.0807,-1.0618,-1.0561,-1.0428,-1.0301,-1.0168,-0.9976,-0.9801,-0.9407,-0.8991,-0.8551,-0.8474,-0.848,-0.848,-0.848,-0.8593,-0.8884,-0.8818,-0.885,-0.8903,-0.8685,-0.8633,-0.8745,-0.885,-0.8949,-0.9106,-0.9211,-0.9256,-0.9361,-0.9524,-0.9636,-0.9792,-0.9999,-1.0102,-1.0257,-1.0411,-1.0659,-1.0939,-1.0956,-1.1065,-1.1167,-1.1267,-1.1368,-1.1368,-1.1427,-1.1326,-1.1175,-1.1175,-1.1175,-1.1217,-1.1276,-1.1436,-1.1536,-1.1637,-1.1678,-1.1819,-1.1977,-1.2175,-1.2323,-1.2431,-1.2666,-1.2852,-1.3094,-1.3314,-1.3457,-1.3637,-1.3826,-1.3993,-1.4154,-1.4028,-1.3712,-1.3656,-1.3822,-1.3956,-1.407,-1.4183,-1.4171,-1.4179,-1.4161,-1.4105,-1.4022,-1.3877,-2.0517,-2.0086,-1.9726,-1.9414,-1.9093,-1.8526,-1.8279,-1.8212,-1.8076,-1.8008,-1.794,-1.7881,-1.7735,-1.7609,-1.7069,-1.6425,-1.5858,-1.5701,-1.529,-1.4757,-1.4551,-1.423,-1.3891,-1.338,-1.3189,-1.2929,-1.2437,-1.1996,-1.1817,-1.1498,-1.1373,-1.131,-1.1185,-1.1059,-1.0933,-1.087,-1.0807,-1.0681,-1.0478,-1.0362,-1.0177,-0.9741,-0.9217,-0.8857,-0.8692,-0.8745,-0.885,-0.8844,-0.8903,-0.9068,-0.9061,-0.9159,-0.9211,-0.9218,-0.9113,-0.9113,-0.9159,-0.9316,-0.9472,-0.9584,-0.9681,-0.9895,-0.9999,-1.0162,-1.0265,-1.0411,-1.0573,-1.0718,-1.0972,-1.1167,-1.1309,-1.1368,-1.1418,-1.1519,-1.1619,-1.1669,-1.1769,-1.1877,-1.1828,-1.1669,-1.1569,-1.1569,-1.1628,-1.1737,-1.1805,-1.1954,-1.2045,-1.2135,-1.2175,-1.2363,-1.251,-1.2715,-1.2871,-1.3055,-1.3286,-1.3478,-1.3705,-1.3858,-1.4046,-1.4186,-1.4373,-1.4523,-1.4558,-1.4426,-1.4536,-1.4616,-1.4606,-1.4598,-1.4869,-1.504,-1.4934,-1.4891,-1.4908,-1.4872,-1.469,-2.0368,-1.9839,-1.9575,-1.9371,-1.9239,-1.8846,-1.8617,-1.8617,-1.8482,-1.8482,-1.8482,-1.8202,-1.8027,-1.7783,-1.7158,-1.6365,-1.5716,-1.5697,-1.5332,-1.4836,-1.4577,-1.4258,-1.3881,-1.3525,-1.3453,-1.3335,-1.2846,-1.2498,-1.2189,-1.1872,-1.1685,-1.1622,-1.1373,-1.1247,-1.1185,-1.1122,-1.1129,-1.1059,-1.0989,-1.085,-1.0595,-1.0132,-0.9615,-0.9192,-0.9095,-0.9061,-0.9113,-0.9159,-0.9204,-0.9256,-0.9316,-0.9368,-0.9524,-0.9658,-0.971,-0.9629,-0.9621,-0.9732,-0.9844,-1.0007,-1.0102,-1.0316,-1.0419,-1.0573,-1.0726,-1.082,-1.0972,-1.1226,-1.1427,-1.1578,-1.1619,-1.1778,-1.1828,-1.1877,-1.1977,-1.2026,-1.2076,-1.2175,-1.2274,-1.2126,-1.1968,-1.1968,-1.2026,-1.2076,-1.2144,-1.2243,-1.2332,-1.244,-1.2529,-1.2706,-1.2852,-1.3055,-1.3248,-1.3478,-1.3668,-1.3858,-1.4046,-1.4186,-1.4362,-1.4547,-1.4697,-1.4811,-1.4891,-1.4971,-1.5028,-1.5085,-1.5108,-1.5108,-1.521,-1.5345,-1.5468,-1.5531,-1.5453,-1.5488,-1.5411,-2.0688,-2.0255,-2.0202,-1.9938,-1.9533,-1.9173,-1.8998,-1.9008,-1.8674,-1.8482,-1.8556,-1.8432,-1.8231,-1.77,-1.7056,-1.6311,-1.5828,-1.559,-1.5368,-1.4967,-1.4905,-1.4827,-1.4716,-1.4279,-1.3913,-1.3704,-1.3202,-1.2821,-1.256,-1.2243,-1.2065,-1.2003,-1.1809,-1.1615,-1.1553,-1.1435,-1.1185,-1.1122,-1.1059,-1.0933,-1.0599,-1.0265,-0.9903,-0.9631,-0.9358,-0.9211,-0.9316,-0.942,-0.9465,-0.9562,-0.9681,-0.9792,-0.9947,-1.011,-1.0272,-1.0308,-1.03,-1.0182,-1.0257,-1.0419,-1.0573,-1.0726,-1.082,-1.0972,-1.1124,-1.1276,-1.1477,-1.1628,-1.1778,-1.1877,-1.1977,-1.2116,-1.2274,-1.2323,-1.2382,-1.2382,-1.2431,-1.251,-1.2559,-1.2569,-1.2412,-1.2412,-1.2421,-1.2421,-1.2431,-1.2529,-1.2676,-1.2783,-1.2881,-1.3055,-1.3228,-1.3478,-1.3621,-1.3858,-1.4035,-1.4186,-1.4373,-1.4569,-1.4697,-1.4869,-1.5017,-1.5119,-1.5267,-1.5345,-1.5447,-1.5492,-1.5435,-1.548,-1.5525,-1.5614,-1.5748,-1.5824,-1.5932,-1.5978,-1.6009,-2.0441,-1.9924,-1.9913,-1.9807,-1.9626,-1.9407,-1.9407,-1.9341,-1.9208,-1.8986,-1.8723,-1.8486,-1.7988,-1.7232,-1.6663,-1.6174,-1.5652,-1.5534,-1.5355,-1.5083,-1.4963,-1.4864,-1.4637,-1.4417,-1.4153,-1.3935,-1.3561,-1.3285,-1.2972,-1.2621,-1.2375,-1.2313,-1.212,-1.1934,-1.1872,-1.1809,-1.1685,-1.1498,-1.1288,-1.1015,-1.0597,-1.0289,-1.0038,-0.9893,-0.9638,-0.9501,-0.9629,-0.9681,-0.9784,-0.9888,-1.0007,-1.011,-1.0265,-1.0427,-1.0589,-1.0718,-1.0795,-1.0795,-1.0667,-1.0828,-1.093,-1.1074,-1.1226,-1.1368,-1.1519,-1.1728,-1.1877,-1.2026,-1.2175,-1.2274,-1.2323,-1.2382,-1.2431,-1.2529,-1.2676,-1.2725,-1.2774,-1.29,-1.2939,-1.29,-1.29,-1.2852,-1.2813,-1.2822,-1.2813,-1.29,-1.2997,-1.3045,-1.3248,-1.3392,-1.361,-1.3884,-1.4035,-1.4233,-1.4373,-1.4558,-1.4697,-1.488,-1.4994,-1.5153,-1.5289,-1.5424,-1.557,-1.5659,-1.5748,-1.5748,-1.576,-1.5792,-1.5824,-1.5925,-1.6025,-1.6144,-1.6219,-1.6293,-1.6391,-2.0399,-1.9868,-1.9878,-1.9878,-1.9868,-1.9813,-1.9802,-1.9726,-1.9532,-1.9222,-1.8839,-1.8407,-1.7585,-1.6779,-1.6517,-1.6157,-1.5566,-1.5478,-1.5313,-1.5137,-1.4902,-1.4812,-1.469,-1.4465,-1.4276,-1.4121,-1.3787,-1.364,-1.345,-1.3155,-1.2805,-1.2691,-1.2375,-1.2251,-1.2182,-1.2127,-1.1941,-1.1864,-1.1615,-1.1374,-1.1013,-1.0624,-1.0442,-1.024,-0.9976,-0.9777,-0.9991,-1.0102,-1.0102,-1.0162,-1.0368,-1.0522,-1.0616,-1.0785,-1.0938,-1.1074,-1.12,-1.1301,-1.1217,-1.1276,-1.1326,-1.1477,-1.1628,-1.1828,-1.1977,-1.2126,-1.2224,-1.2372,-1.252,-1.2569,-1.2618,-1.2666,-1.2706,-1.2813,-1.2861,-1.292,-1.3017,-1.3094,-1.3122,-1.3084,-1.3132,-1.3228,-1.319,-1.3152,-1.32,-1.3228,-1.3314,-1.3362,-1.3563,-1.3763,-1.3999,-1.4269,-1.4408,-1.4558,-1.4697,-1.488,-1.5062,-1.5198,-1.53,-1.5447,-1.5558,-1.5691,-1.5836,-1.5969,-1.6044,-1.6088,-1.6144,-1.6132,-1.6132,-1.6231,-1.6275,-1.6405,-1.6534,-1.662,-1.6735,-2.068,-2.0604,-2.0604,-2.0616,-2.0616,-2.0399,-2.0259,-1.9944,-1.9404,-1.9062,-1.871,-1.7991,-1.7378,-1.6943,-1.6537,-1.6226,-1.5856,-1.573,-1.5546,-1.5371,-1.5196,-1.5088,-1.4911,-1.4666,-1.4478,-1.4419,-1.4121,-1.3941,-1.3812,-1.3571,-1.3277,-1.2989,-1.2683,-1.2621,-1.2498,-1.2367,-1.2189,-1.212,-1.1996,-1.1996,-1.1684,-1.1314,-1.0971,-1.0804,-1.0371,-0.9999,-0.9999,-1.0308,-1.047,-1.047,-1.0667,-1.0871,-1.1023,-1.1124,-1.1276,-1.1418,-1.156,-1.166,-1.1719,-1.1669,-1.1719,-1.1868,-1.2076,-1.2283,-1.2431,-1.2431,-1.2529,-1.2676,-1.2764,-1.2861,-1.2949,-1.3035,-1.3084,-1.3084,-1.3142,-1.3238,-1.3286,-1.3286,-1.3314,-1.3266,-1.3314,-1.3467,-1.3563,-1.3573,-1.3488,-1.3525,-1.3705,-1.3752,-1.3988,-1.4186,-1.4373,-1.4558,-1.4731,-1.4915,-1.5062,-1.5198,-1.5334,-1.5468,-1.5614,-1.5703,-1.5792,-1.5925,-1.6144,-1.6188,-1.6262,-1.6392,-1.6479,-1.6479,-1.6522,-1.6522,-1.6577,-1.6705,-1.6833,-1.6947,-1.7128,-2.1319,-2.1319,-2.1308,-2.1065,-2.0669,-2.0604,-2.0362,-2.0009,-1.9695,-1.9109,-1.8311,-1.7683,-1.7209,-1.6859,-1.667,-1.6431,-1.6202,-1.6019,-1.5836,-1.5662,-1.5488,-1.5313,-1.5137,-1.4961,-1.4793,-1.4725,-1.4478,-1.43,-1.424,-1.3932,-1.3821,-1.3528,-1.3103,-1.2928,-1.2744,-1.2613,-1.2552,-1.2436,-1.2305,-1.2243,-1.2104,-1.1608,-1.1277,-1.1287,-1.0775,-1.0502,-1.0565,-1.0667,-1.0769,-1.0879,-1.1074,-1.1226,-1.1377,-1.1469,-1.1619,-1.1778,-1.1868,-1.2026,-1.2076,-1.2026,-1.2026,-1.2283,-1.2431,-1.2569,-1.2725,-1.2764,-1.2852,-1.2997,-1.3045,-1.3142,-1.3132,-1.3218,-1.3314,-1.3362,-1.3409,-1.3515,-1.3563,-1.3563,-1.361,-1.36,-1.3705,-1.381,-1.3905,-1.3952,-1.3858,-1.3821,-1.401,-1.4197,-1.4373,-1.4605,-1.4743,-1.488,-1.5062,-1.5187,-1.5334,-1.5468,-1.5614,-1.5748,-1.5881,-1.5969,-1.6057,-1.6219,-1.6392,-1.6479,-1.6565,-1.6693,-1.6791,-1.6876,-1.6876,-1.6833,-1.6876,-1.696,-1.7128,-1.7282,-1.7461,-2.1228,-2.1228,-2.1228,-2.1063,-2.0814,-2.0751,-2.0404,-1.9862,-1.9648,-1.8974,-1.7909,-1.7522,-1.7278,-1.6987,-1.6874,-1.6694,-1.6477,-1.6306,-1.6134,-1.5961,-1.572,-1.5546,-1.543,-1.5254,-1.5088,-1.5039,-1.4843,-1.4656,-1.4675,-1.4309,-1.4181,-1.3941,-1.3649,-1.3346,-1.3103,-1.2989,-1.2858,-1.2805,-1.2674,-1.249,-1.2456,-1.2011,-1.1631,-1.16,-1.1153,-1.09,-1.092,-1.0972,-1.1074,-1.1226,-1.1377,-1.1528,-1.1678,-1.1778,-1.1927,-1.2076,-1.2224,-1.2332,-1.2431,-1.2431,-1.2421,-1.2618,-1.2764,-1.29,-1.2949,-1.3045,-1.318,-1.3266,-1.3362,-1.3409,-1.3409,-1.3563,-1.3621,-1.3668,-1.3716,-1.3773,-1.381,-1.3858,-1.3952,-1.3988,-1.4104,-1.4197,-1.4233,-1.4326,-1.4326,-1.428,-1.4408,-1.4558,-1.4697,-1.4926,-1.5062,-1.521,-1.539,-1.5525,-1.5647,-1.5792,-1.5925,-1.6044,-1.6175,-1.6275,-1.6405,-1.6522,-1.665,-1.6693,-1.682,-1.7002,-1.7086,-1.7212,-1.717,-1.7099,-1.7183,-1.7295,-1.7461,-1.7625,-1.7733,-2.0194,-2.0147,-2.0194,-2.0476,-2.078,-2.0899,-2.0377,-1.9572,-1.9126,-1.8544,-1.7823,-1.7711,-1.7545,-1.7334,-1.7211,-1.7043,-1.6751,-1.6545,-1.6374,-1.6259,-1.6029,-1.5856,-1.5672,-1.5546,-1.5391,-1.5303,-1.5107,-1.497,-1.5048,-1.4675,-1.4538,-1.4419,-1.4121,-1.3761,-1.345,-1.3164,-1.305,-1.2989,-1.3042,-1.2981,-1.289,-1.2621,-1.2291,-1.1975,-1.1656,-1.1393,-1.1234,-1.1276,-1.1377,-1.1528,-1.1678,-1.1828,-1.2036,-1.2076,-1.2234,-1.2431,-1.2588,-1.2735,-1.2871,-1.2881,-1.292,-1.2997,-1.3084,-1.318,-1.3228,-1.3324,-1.3467,-1.3563,-1.3705,-1.381,-1.3915,-1.3973,-1.3973,-1.402,-1.4067,-1.4114,-1.4161,-1.4208,-1.4291,-1.4326,-1.4477,-1.4616,-1.4662,-1.4697,-1.4743,-1.4743,-1.4823,-1.4915,-1.5062,-1.5198,-1.5379,-1.5558,-1.5703,-1.5824,-1.5957,-1.61,-1.6244,-1.6362,-1.6436,-1.6534,-1.6663,-1.6778,-1.6863,-1.696,-1.7128,-1.7295,-1.7432,-1.7556,-1.7543,-1.7529,-1.7584,-1.7666,-1.7828,-1.7949,-1.8016,-2.0689,-2.0689,-2.0689,-2.0535,-2.0349,-2.0358,-2.0018,-1.94,-1.8899,-1.8452,-1.8064,-1.7986,-1.7822,-1.7601,-1.7379,-1.7267,-1.7099,-1.6807,-1.6648,-1.6534,-1.6316,-1.6134,-1.5951,-1.5788,-1.5682,-1.5566,-1.5381,-1.5205,-1.5166,-1.4911,-1.4852,-1.4725,-1.4478,-1.4181,-1.3881,-1.3709,-1.3649,-1.3657,-1.3588,-1.3519,-1.3485,-1.3168,-1.28,-1.2415,-1.21,-1.1852,-1.1512,-1.1628,-1.1728,-1.1877,-1.2026,-1.2175,-1.2323,-1.2421,-1.2578,-1.2725,-1.2881,-1.3055,-1.3296,-1.344,-1.343,-1.3372,-1.342,-1.3515,-1.3563,-1.3726,-1.3821,-1.3858,-1.3999,-1.4093,-1.4129,-1.4291,-1.4384,-1.4384,-1.4488,-1.4534,-1.4581,-1.4592,-1.4638,-1.4673,-1.4754,-1.4937,-1.5028,-1.5153,-1.5153,-1.5244,-1.5289,-1.5322,-1.5424,-1.557,-1.5703,-1.5869,-1.6044,-1.6175,-1.6262,-1.6405,-1.6547,-1.662,-1.6705,-1.6791,-1.6918,-1.7044,-1.7128,-1.7253,-1.7419,-1.7597,-1.7747,-1.7909,-1.8016,-1.8042,-1.8055,-1.8029,-1.8135,-1.8214,-1.8293,-2.0422,-2.0477,-2.0465,-2.0226,-1.9855,-1.9969,-1.9728,-1.9144,-1.8767,-1.8464,-1.8302,-1.8259,-1.8084,-1.7822,-1.7601,-1.7434,-1.7379,-1.7099,-1.6864,-1.674,-1.6524,-1.6353,-1.6192,-1.6019,-1.5904,-1.5788,-1.5672,-1.5498,-1.5391,-1.5205,-1.5088,-1.497,-1.4784,-1.4606,-1.4369,-1.4189,-1.395,-1.389,-1.383,-1.383,-1.3768,-1.3549,-1.3274,-1.2826,-1.2565,-1.2359,-1.204,-1.2017,-1.2126,-1.2224,-1.2372,-1.2471,-1.2627,-1.2725,-1.2871,-1.3017,-1.3248,-1.343,-1.3716,-1.3858,-1.3847,-1.3905,-1.3858,-1.3847,-1.3952,-1.4104,-1.4161,-1.4244,-1.4326,-1.4373,-1.4466,-1.4627,-1.4697,-1.4743,-1.48,-1.4857,-1.4903,-1.4914,-1.496,-1.4994,-1.5074,-1.5255,-1.539,-1.5525,-1.5603,-1.5703,-1.5792,-1.5792,-1.5836,-1.5925,-1.6057,-1.6175,-1.6349,-1.6479,-1.662,-1.6705,-1.6833,-1.6931,-1.7015,-1.7099,-1.7212,-1.7337,-1.7419,-1.7556,-1.7706,-1.7855,-1.8069,-1.8268,-1.8372,-1.8489,-1.8503,-1.8464,-1.845,-1.8528,-1.862,-1.9433,-1.942,-1.942,-1.9457,-1.9478,-1.9806,-1.9492,-1.8822,-1.8691,-1.8614,-1.8572,-1.8476,-1.8313,-1.8139,-1.7963,-1.7744,-1.7534,-1.7379,-1.72,-1.6965,-1.6807,-1.6591,-1.642,-1.6249,-1.6134,-1.5972,-1.5856,-1.5788,-1.5672,-1.5546,-1.5313,-1.5088,-1.502,-1.4902,-1.4725,-1.4488,-1.4249,-1.4189,-1.4198,-1.4198,-1.4145,-1.4013,-1.3606,-1.3212,-1.2914,-1.269,-1.2406,-1.2323,-1.2421,-1.2529,-1.2618,-1.2774,-1.2929,-1.2968,-1.32,-1.343,-1.3668,-1.3905,-1.414,-1.4222,-1.4316,-1.4419,-1.4373,-1.4269,-1.4269,-1.4419,-1.4512,-1.4616,-1.4708,-1.4765,-1.4822,-1.4891,-1.4949,-1.5006,-1.5062,-1.5119,-1.5165,-1.521,-1.5312,-1.5357,-1.5424,-1.5603,-1.5748,-1.5881,-1.6001,-1.6144,-1.6188,-1.6262,-1.6262,-1.6318,-1.6405,-1.6479,-1.6663,-1.6803,-1.6931,-1.7044,-1.7128,-1.7267,-1.735,-1.7432,-1.7543,-1.7625,-1.7747,-1.7868,-1.7962,-1.8161,-1.8425,-1.862,-1.8788,-1.8865,-1.8889,-1.8851,-1.8851,-1.8889,-1.8941,-1.9772,-1.9708,-1.9708,-1.9617,-1.9537,-1.954,-1.9344,-1.9076,-1.9011,-1.8958,-1.8744,-1.8691,-1.8572,-1.8452,-1.8193,-1.8018,-1.7865,-1.7711,-1.7434,-1.7267,-1.7099,-1.692,-1.6694,-1.6524,-1.6353,-1.6249,-1.6134,-1.6019,-1.5856,-1.573,-1.5546,-1.5303,-1.5313,-1.5196,-1.5029,-1.4793,-1.4725,-1.4666,-1.4675,-1.4616,-1.4505,-1.4366,-1.3951,-1.3606,-1.3215,-1.2959,-1.2681,-1.2676,-1.2774,-1.2861,-1.2997,-1.3142,-1.3238,-1.3382,-1.3563,-1.3931,-1.4129,-1.4337,-1.4477,-1.4593,-1.4731,-1.488,-1.4891,-1.488,-1.4777,-1.4766,-1.4869,-1.4983,-1.5085,-1.5131,-1.5176,-1.5244,-1.5277,-1.5367,-1.5424,-1.548,-1.5525,-1.5614,-1.5671,-1.5748,-1.5824,-1.5957,-1.6144,-1.6231,-1.6362,-1.6534,-1.662,-1.6693,-1.6693,-1.6748,-1.6791,-1.6863,-1.7002,-1.717,-1.7267,-1.7391,-1.7515,-1.761,-1.7679,-1.7788,-1.7855,-1.7975,-1.8069,-1.8214,-1.8358,-1.8567,-1.8788,-1.8979,-1.913,-1.9242,-1.9302,-1.9242,-1.9242,-1.9242,-1.928,-2.0016,-1.9952,-1.9965,-1.9862,-1.9772,-1.9617,-1.946,-1.9368,-1.9328,-1.917,-1.8958,-1.8893,-1.8786,-1.8614,-1.8398,-1.8236,-1.8084,-1.792,-1.7711,-1.749,-1.739,-1.7155,-1.6987,-1.6818,-1.6637,-1.6524,-1.6353,-1.6239,-1.6087,-1.5914,-1.573,-1.5604,-1.5604,-1.5488,-1.5381,-1.5381,-1.5381,-1.5264,-1.5147,-1.5088,-1.4858,-1.4601,-1.4248,-1.3917,-1.3503,-1.3181,-1.2969,-1.3007,-1.3104,-1.319,-1.3324,-1.3467,-1.3621,-1.3752,-1.3999,-1.4316,-1.4501,-1.4651,-1.4789,-1.4926,-1.5051,-1.5198,-1.5345,-1.5379,-1.5322,-1.5266,-1.5289,-1.5345,-1.5402,-1.5447,-1.5525,-1.5614,-1.5647,-1.568,-1.5792,-1.5893,-1.5937,-1.6013,-1.6057,-1.61,-1.6231,-1.6392,-1.6491,-1.6577,-1.6705,-1.6931,-1.7086,-1.7157,-1.717,-1.7141,-1.7157,-1.7186,-1.7365,-1.7515,-1.7638,-1.776,-1.7828,-1.7949,-1.8016,-1.8095,-1.8175,-1.8307,-1.8478,-1.862,-1.8798,-1.9003,-1.9153,-1.9265,-1.9413,-1.956,-1.9669,-1.9669,-1.9632,-1.956,-1.9596,-2.0029,-2.0003,-2.0041,-1.9864,-1.9864,-1.9736,-1.9659,-1.9567,-1.9475,-1.9368,-1.9223,-1.9052,-1.8946,-1.8839,-1.8625,-1.8464,-1.8302,-1.8139,-1.7975,-1.77,-1.7545,-1.7379,-1.7267,-1.7054,-1.6931,-1.6818,-1.6705,-1.6467,-1.6374,-1.6259,-1.6077,-1.5972,-1.5914,-1.5856,-1.5798,-1.574,-1.573,-1.572,-1.5342,-1.51,-1.5023,-1.4772,-1.4431,-1.4188,-1.3848,-1.3492,-1.3329,-1.3314,-1.3409,-1.3563,-1.3658,-1.3821,-1.3999,-1.4222,-1.4466,-1.4662,-1.4834,-1.5017,-1.5153,-1.53,-1.5468,-1.5614,-1.576,-1.5836,-1.5812,-1.5635,-1.5603,-1.5703,-1.5804,-1.5836,-1.5913,-1.5957,-1.5988,-1.6088,-1.6144,-1.6244,-1.6287,-1.6362,-1.6479,-1.6522,-1.6607,-1.6778,-1.6876,-1.696,-1.7086,-1.7308,-1.7461,-1.757,-1.7625,-1.7584,-1.7584,-1.7598,-1.772,-1.7868,-1.7989,-1.8109,-1.8175,-1.8279,-1.8358,-1.8436,-1.8567,-1.8697,-1.8841,-1.9003,-1.9176,-1.9325,-1.9487,-1.9596,-1.9741,-1.9884,-1.999,-2.0061,-2.001,-1.9975,-1.994,-1.8999,-1.8904,-1.8904,-1.8869,-1.8885,-1.923,-1.9345,-1.9346,-1.9597,-1.9515,-1.9368,-1.9198,-1.9117,-1.9064,-1.8851,-1.8679,-1.8625,-1.841,-1.8193,-1.803,-1.781,-1.7645,-1.7545,-1.7323,-1.7222,-1.7099,-1.6931,-1.6761,-1.6648,-1.6534,-1.6477,-1.6316,-1.6259,-1.6202,-1.6029,-1.5972,-1.6009,-1.5975,-1.5649,-1.5243,-1.5093,-1.4775,-1.441,-1.4093,-1.372,-1.3575,-1.3515,-1.3668,-1.38,-1.3988,-1.4082,-1.4233,-1.4477,-1.4686,-1.488,-1.5074,-1.5165,-1.5334,-1.5525,-1.5659,-1.578,-1.5957,-1.6088,-1.6219,-1.6163,-1.5988,-1.5957,-1.6057,-1.6156,-1.6188,-1.6262,-1.6349,-1.6392,-1.6436,-1.6491,-1.6534,-1.659,-1.6748,-1.6905,-1.6989,-1.7031,-1.717,-1.7253,-1.7378,-1.7461,-1.7611,-1.7801,-1.7922,-1.8055,-1.8055,-1.8095,-1.8121,-1.8121,-1.8254,-1.8347,-1.8464,-1.8514,-1.8644,-1.8721,-1.8836,-1.8912,-1.9116,-1.9265,-1.9413,-1.956,-1.9705,-1.9797,-1.9904,-2.0061,-2.0166,-2.027,-2.0357,-2.0475,-2.0441,-2.0373,-1.8878,-1.874,-1.8647,-1.8601,-1.8605,-1.8805,-1.8885,-1.8887,-1.9117,-1.9046,-1.8982,-1.9162,-1.9316,-1.9263,-1.9064,-1.8845,-1.8804,-1.8691,-1.8518,-1.829,-1.8058,-1.7975,-1.781,-1.7523,-1.7545,-1.7379,-1.7155,-1.6987,-1.68,-1.6761,-1.6648,-1.656,-1.6503,-1.6436,-1.6275,-1.6275,-1.6151,-1.6088,-1.5787,-1.5463,-1.5151,-1.4759,-1.4512,-1.4171,-1.3931,-1.3815,-1.3847,-1.3999,-1.4197,-1.4362,-1.4455,-1.4697,-1.488,-1.5096,-1.5244,-1.5435,-1.557,-1.5703,-1.5881,-1.6013,-1.6144,-1.6306,-1.6392,-1.6534,-1.665,-1.6522,-1.6392,-1.6504,-1.6461,-1.6504,-1.662,-1.6693,-1.6778,-1.6833,-1.6918,-1.696,-1.7002,-1.7128,-1.7282,-1.7378,-1.7461,-1.7584,-1.7666,-1.7788,-1.7868,-1.8016,-1.8161,-1.8305,-1.8436,-1.8528,-1.8567,-1.8644,-1.863,-1.8644,-1.8697,-1.8812,-1.8874,-1.9003,-1.9116,-1.9228,-1.9325,-1.9508,-1.9705,-1.9777,-1.9884,-2.0025,-2.0166,-2.022,-2.0339,-2.0475,-2.0577,-2.0677,-2.0777,-2.0859,-2.0793,-1.899,-1.8864,-1.8598,-1.8507,-1.8533,-1.8472,-1.8405,-1.8384,-1.8414,-1.8383,-1.838,-1.9108,-1.9317,-1.9211,-1.9068,-1.8964,-1.8722,-1.8374,-1.8389,-1.8201,-1.7989,-1.7756,-1.7661,-1.7625,-1.7396,-1.7289,-1.7192,-1.6917,-1.6611,-1.6708,-1.6761,-1.6759,-1.6693,-1.6671,-1.6682,-1.6563,-1.635,-1.6106,-1.5786,-1.5558,-1.5142,-1.469,-1.462,-1.4461,-1.4323,-1.4172,-1.4233,-1.4362,-1.4523,-1.4708,-1.488,-1.5108,-1.5289,-1.5468,-1.5647,-1.578,-1.5913,-1.6088,-1.6231,-1.6417,-1.6547,-1.6675,-1.6761,-1.6888,-1.7002,-1.7044,-1.696,-1.6931,-1.6888,-1.6888,-1.7002,-1.7128,-1.717,-1.7253,-1.7295,-1.7323,-1.7447,-1.7543,-1.7666,-1.7788,-1.7868,-1.7989,-1.8069,-1.8189,-1.8293,-1.8411,-1.8567,-1.8721,-1.8874,-1.895,-1.8988,-1.9101,-1.9161,-1.9139,-1.9093,-1.9153,-1.925,-1.9325,-1.945,-1.9581,-1.9726,-1.9884,-2.0025,-2.008,-2.02,-2.0339,-2.0426,-2.0512,-2.0628,-2.0744,-2.0843,-2.0941,-2.1023,-2.1087,-2.1183,-1.7918,-1.7779,-1.7679,-1.7663,-1.7686,-1.7891,-1.7996,-1.8055,-1.8349,-1.8427,-1.8354,-1.8421,-1.8493,-1.8239,-1.8118,-1.8093,-1.8139,-1.7905,-1.7635,-1.7414,-1.7475,-1.733,-1.7229,-1.722,-1.6775,-1.6744,-1.6841,-1.6691,-1.6554,-1.6718,-1.6629,-1.626,-1.6205,-1.6142,-1.5964,-1.5964,-1.6038,-1.5913,-1.5723,-1.5373,-1.5394,-1.5022,-1.4677,-1.4551,-1.4496,-1.4488,-1.4558,-1.4686,-1.4834,-1.5062,-1.5334,-1.5558,-1.5736,-1.5869,-1.6044,-1.6175,-1.6306,-1.6436,-1.6577,-1.6748,-1.6918,-1.7002,-1.7086,-1.7308,-1.7419,-1.7502,-1.7502,-1.7584,-1.7515,-1.7378,-1.7461,-1.7502,-1.7597,-1.772,-1.776,-1.7814,-1.7841,-1.7975,-1.8095,-1.8175,-1.8293,-1.8386,-1.8425,-1.8542,-1.8669,-1.8784,-1.8912,-1.9101,-1.9213,-1.9325,-1.9413,-1.9508,-1.9654,-1.9581,-1.9523,-1.9545,-1.9617,-1.969,-1.9797,-1.994,-2.008,-2.02,-2.0304,-2.0426,-2.0527,-2.0644,-2.0728,-2.0811,-2.0925,-2.1038,-2.1087,-2.1167,-2.1246,-2.1293,-2.1388]},{"header":{"parameterUnit":"m.s-1","parameterCategory":1,"la1":31.0,"la2":29.5877,"lo1":-88.7671,"lo2":-86.6584,"dy":0.0162,"dx":0.0185,"nx":115,"ny":88,"refTime":"2023-09-08T18:00:00:Z","depth":0,"parameterNumber":3,"parameterNumberName":"V-component_of_WINDS"},"data":[0.0,0.0,0.0,0.0,0.0,0.0,0.0,0.0,0.0,0.0,0.0,0.0,0.0,0.0,0.0,0.0,0.0,0.0,0.0,0.0,0.0,0.0,0.0,0.0,0.0,0.0,0.0,0.0,0.0,0.0,0.0,0.0,0.0,0.0,0.0,0.0,0.0,0.0,0.0,0.0,0.0,0.0,0.0,0.0,0.0,0.0,0.0,0.0,0.0,0.0,0.0,0.0,0.0,0.0,0.0,0.0,0.0,0.0,0.0,0.0,0.0,0.0,0.0,0.0,0.0,0.0,0.0,0.0,0.0,0.0,0.0,0.0,0.0,0.0,0.0,0.0,0.0,0.0,0.0,0.0,0.0,0.0,0.0,0.0,0.0,0.0,0.0,0.0,0.0,0.0,0.0,0.0,0.0,0.0,0.0,0.0,0.0,0.0,0.0,0.0,0.0,0.0,0.0,0.0,0.0,0.0,0.0,0.0,0.0,0.0,0.0,0.0,0.0,0.0,0.0,0.0,0.0,0.0,0.0,0.0,0.0,0.0,0.0,0.0,0.0,0.0,0.0,0.0,0.0,0.0,0.0,0.0,0.0,0.0,0.0,0.0,0.0,0.0,0.0,0.0,0.0,0.0,0.0,0.0,0.0,0.0,0.0,0.0,0.0,0.0,0.0,0.0,0.0,0.0,0.0,0.0,0.0,0.0,0.0,0.0,0.0,0.0,0.0,0.0,0.0,0.0,0.0,0.0,0.0,0.0,0.0,0.0,0.0,0.0,0.0,0.0,0.0,0.0,0.0,0.0,0.0,0.0,0.0,0.0,0.0,0.0,0.0,0.0,0.0,0.0,0.0,0.0,0.0,0.0,0.0,0.0,0.0,0.0,0.0,0.0,0.0,0.0,0.0,0.0,0.0,0.0,0.0,0.0,0.0,0.0,0.0,0.0,0.0,0.0,0.0,0.0,0.0,0.0,0.0,0.0,0.0,0.0,0.0,0.0,0.0,0.0,0.0,0.0,0.0,0.0,0.0,0.0,0.0,0.0,0.0,0.0,0.0,0.0,0.0,0.0,0.0,0.0,0.0,0.0,0.0,0.0,0.0,0.0,0.0,0.0,0.0,0.0,0.0,0.0,0.0,0.0,0.0,0.0,0.0,0.0,0.0,0.0,0.0,0.0,0.0,0.0,0.0,0.0,0.0,0.0,0.0,0.0,0.0,0.0,0.0,0.0,0.0,0.0,0.0,0.0,0.0,0.0,0.0,0.0,0.0,0.0,0.0,0.0,0.0,0.0,0.0,0.0,0.0,0.0,0.0,0.0,0.0,0.0,0.0,0.0,0.0,0.0,0.0,0.0,0.0,0.0,0.0,0.0,0.0,0.0,0.0,0.0,0.0,0.0,0.0,0.0,0.0,0.0,0.0,0.0,0.0,0.0,0.0,0.0,0.0,0.0,0.0,0.0,0.0,0.0,0.0,0.0,0.0,0.0,0.0,0.0,0.0,0.0,0.0,0.0,0.0,0.0,0.0,0.0,0.0,0.0,0.0,0.0,0.0,0.0,0.0,0.0,0.0,0.0,0.0,0.0,0.0,0.0,0.0,0.0,0.0,0.0,0.0,0.0,0.0,0.0,0.0,0.0,0.0,0.0,0.0,0.0,0.0,0.0,0.0,0.0,0.0,0.0,0.0,0.0,0.0,0.0,0.0,0.0,0.0,0.0,0.0,0.0,0.0,0.0,0.0,0.0,0.0,0.0,0.0,0.0,0.0,0.0,0.0,0.0,0.0,0.0,0.0,0.0,0.0,0.0,0.0,0.0,0.0,0.0,0.0,0.0,0.0,0.0,0.0,0.0,0.0,0.0,0.0,0.0,0.0,0.0,0.0,0.0,0.0,0.0,0.0,0.0,0.0,0.0,0.0,0.0,0.0,0.0,0.0,0.0,0.0,0.0,0.0,0.0,0.0,0.0,0.0,0.0,0.0,0.0,0.0,0.0,0.0,0.0,0.0,0.0,0.0,0.0,0.0,0.0,0.0,0.0,0.0,0.0,0.0,0.0,0.0,0.0,0.0,0.0,0.0,0.0,0.0,0.0,0.0,0.0,0.0,0.0,0.0,0.0,0.0,0.0,0.0,0.0,0.0,0.0,0.0,0.0,0.0,0.0,0.0,0.0,0.0,0.0,0.0,0.0,0.0,0.0,0.0,0.0,0.0,0.0,0.0,0.0,0.0,0.0,0.0,0.0,0.0,0.0,0.0,0.0,0.0,0.0,0.0,0.0,0.0,0.0,0.0,0.0,0.0,0.0,0.0,0.0,0.0,0.0,0.0,0.0,0.0,0.0,0.0,0.0,0.0,0.0,0.0,0.0,0.0,0.0,0.0,0.0,0.0,0.0,0.0,0.0,0.0,0.0,0.0,0.0,0.0,0.0,0.0,0.0,0.0,0.0,0.0,0.0,0.0,0.0,0.0,0.0,0.0,0.0,0.0,0.0,0.0,0.0,0.0,0.0,0.0,0.0,0.0,0.0,0.0,0.0,0.0,0.0,0.0,0.0,0.0,0.0,0.0,0.0,0.0,0.0,0.0,0.0,0.0,0.0,0.0,0.0,0.0,0.0,0.0,0.0,0.0,0.0,0.0,0.0,0.0,0.0,0.0,0.0,0.0,0.0,0.0,0.0,0.0,0.0,0.0,0.0,0.0,0.0,0.0,0.0,0.0,0.0,0.0,0.0,0.0,0.0,0.0,0.0,0.0,0.0,0.0,0.0,0.0,0.0,0.0,0.0,0.0,0.0,0.0,0.0,0.0,0.0,0.0,0.0,0.0,0.0,0.0,0.0,0.0,0.0,0.0,0.0,0.0,0.0,0.0,0.0,0.0,0.0,0.0,0.0,0.0,0.0,0.0,0.0,0.0,0.0,0.0,0.0,0.0,0.0,0.0,0.0,0.0,0.0,0.0,0.0,0.0,0.0,0.0,0.0,0.0,0.0,0.0,0.0,0.0,0.0,0.0,0.0,0.0,0.0,0.0,0.0,0.0,0.0,0.0,0.0,0.0,0.0,0.0,0.0,0.0,0.0,0.0,0.0,0.0,0.0,0.0,0.0,0.0,0.0,0.0,0.0,0.0,0.0,0.0,0.0,0.0,0.0,0.0,0.0,0.0,0.0,0.0,0.0,0.0,0.0,0.0,0.0,0.0,0.0,0.0,0.0,0.0,0.0,0.0,0.0,0.0,0.0,0.0,0.0,0.0,0.0,0.0,0.0,0.0,0.0,0.0,0.0,0.0,0.0,0.0,0.0,0.0,0.0,0.0,0.0,0.0,0.0,0.0,0.0,0.0,0.0,0.0,0.0,0.0,0.0,0.0,0.0,0.0,0.0,0.0,0.0,0.0,0.0,0.0,0.0,0.0,0.0,0.0,0.0,0.0,0.0,0.0,0.0,0.0,0.0,0.0,0.0,0.0,0.0,0.0,0.0,0.0,0.0,0.0,0.0,0.0,0.0,0.0,0.0,0.0,0.0,0.0,0.0,0.0,0.0,0.0,0.0,0.0,0.0,0.0,0.0,0.0,0.0,0.0,0.0,0.0,0.0,0.0,0.0,0.0,0.0,0.0,0.0,0.0,0.0,0.0,0.0,0.0,0.0,0.0,0.0,0.0,0.0,0.0,0.0,0.0,0.0,0.0,0.0,0.0,0.0,0.0,0.0,0.0,0.0,0.0,0.0,0.0,0.0,0.0,0.0,0.0,0.0,0.0,0.0,0.0,0.0,0.0,0.0,0.0,0.0,0.0,0.0,0.0,0.0,0.0,0.0,0.0,0.0,0.0,0.0,0.0,0.0,0.0,0.0,0.0,0.0,0.0,0.0,0.0,0.0,0.0,0.0,0.0,0.0,0.0,0.0,0.0,0.0,0.0,0.0,0.0,0.0,0.0,0.0,0.0,0.0,0.0,0.0,0.0,0.0,0.0,0.0,0.0,0.0,0.0,0.0,0.0,0.0,0.0,0.0,0.0,0.0,0.0,0.0,0.0,0.0,0.0,0.0,0.0,0.0,0.0,0.0,0.0,0.0,0.0,0.0,0.0,0.0,0.0,0.0,0.0,0.0,0.0,0.0,0.0,0.0,0.0,0.0,0.0,0.0,0.0,0.0,0.0,0.0,0.0,0.0,0.0,0.0,0.0,0.0,0.0,0.0,0.0,0.0,0.0,0.0,0.0,0.0,0.0,0.0,0.0,0.0,0.0,0.0,0.0,0.0,0.0,0.0,0.0,0.0,0.0,0.0,0.0,0.0,-0.2179,0.0,0.0,0.0,0.0,0.0,0.0,0.0,0.0,0.0,0.0,0.0,0.0,0.0,0.0,0.0,0.0,0.0,0.0,0.0,0.0,0.0,0.0,0.0,0.0,0.0,0.0,0.0,0.0,0.0,0.0,0.0,0.0,0.0,0.0,0.0,0.0,0.0,0.0,0.0,0.0,0.0,0.0,0.0,0.0,0.0,0.0,0.0,0.0,0.0,0.0,0.0,0.0,0.0,0.0,0.0,0.0,0.0,0.0,0.0,0.0,0.0,0.0,0.0,0.0,0.0,0.0,0.0,0.0,0.0,0.0,0.0,0.0,0.0,0.0,0.0,0.0,0.0,0.0,0.0,0.0,0.0,0.0,0.0,0.0,0.0,0.0,0.0,0.0,0.0,0.0,0.0,0.0,0.0,0.0,0.0,0.0,0.0,0.0,0.0,0.0,0.0,0.0,0.0,0.0,0.0,0.0,0.0,0.0,0.0,0.0,-0.1264,-0.1281,-0.134,-0.1604,-0.2116,0.0,0.0,0.0,0.0,0.0,0.0,0.0,0.0,0.0,0.0,0.0,0.0,0.0,0.0,0.0,0.0,0.0,0.0,0.0,0.0,0.0,0.0,0.0,0.0,0.0,0.0,0.0,0.0,0.0,0.0,0.0,0.0,0.0,0.0,0.0,0.0,0.0,0.0,0.0,0.0,0.0,0.0,0.0,0.0,0.0,0.0,0.0,0.0,0.0,0.0,0.0,0.0,0.0,0.0,0.0,0.0,0.0,0.0,0.0,0.0,0.0,0.0,0.0,0.0,0.0,0.0,0.0,0.0,0.0,0.0,0.0,0.0,0.0,0.0,0.0,0.0,0.0,0.0,0.0,0.0,0.0,0.0,0.0,0.0,0.0,0.0,0.0,0.0,0.0,0.0,0.0,0.0,0.0,0.0,0.0,0.0,0.0,0.0,0.0,0.0,0.0,0.0,0.0,0.0,0.0,0.0,0.0,0.0,0.0,0.0,0.0,0.0,-0.1247,-0.1522,-0.2045,0.0,0.0,0.0,0.0,0.0,0.0,0.0,0.0,0.0,0.0,0.0,0.0,0.0,0.0,0.0,0.0,0.0,0.0,0.0,0.0,0.0,0.0,0.0,0.0,0.0,0.0,0.0,0.0,0.0,0.0,0.0,0.0,0.0,0.0,0.0,0.0,0.0,0.0,0.0,0.0,0.0,0.0,0.0,0.0,0.0,0.0,0.0,0.0,0.0,0.0,0.0,0.0,0.0,0.0,0.0,0.0,0.0,0.0,0.0,0.0,0.0,0.0,0.0,0.0,0.0,0.0,0.0,0.0,0.0,0.0,0.0,0.0,0.0,0.0,0.0,0.0,0.0,0.0,0.0,0.0,0.0,0.0,0.0,0.0,0.0,0.0,0.0,0.0,0.0,0.0,0.0,0.0,0.0,0.0,0.0,0.0,0.0,0.0,0.0,0.0,0.0,0.0,0.0,0.0,0.0,0.0,0.0,0.0,0.0,0.0,-0.1134,-0.1188,-0.1215,0.0,-0.1992,0.0,0.0,0.0,0.0,0.0,0.0,0.0,0.0,0.0,0.0,0.0,0.0,0.0,0.0,0.0,0.0,0.0,0.0,0.0,0.0,0.0,0.0,0.0,0.0,0.0,0.0,0.0,0.0,0.0,0.0,0.0,0.0,0.0,0.0,0.0,0.0,0.0,0.0,0.0,0.0,0.0,0.0,0.0,0.0,0.0,0.0,0.0,0.0,0.0,0.0,0.0,0.0,0.0,0.0,0.0,0.0,0.0,0.0,0.0,0.0,0.0,0.0,0.0,0.0,0.0,0.0,0.0,0.0,0.0,0.0,0.0,0.0,0.0,0.0,0.0,0.0,0.0,0.0,0.0,0.0,0.0,0.0,0.0,0.0,0.0,0.0,0.0,0.0,0.0,0.0,0.0,0.0,0.0,0.0,0.0,0.0,0.0,0.0,0.0,0.0,0.0,0.0,0.0,0.0,0.0,0.0,0.0,0.0,0.0,0.0,-0.1064,-0.1145,-0.1362,-0.1687,0.0,0.0,0.0,0.0,0.0,0.0,0.0,0.0,0.0,0.0,0.0,0.0,0.0,0.0,0.0,0.0,0.0,0.0,0.0,0.0,0.0,0.0,0.0,0.0,0.0,0.0,0.0,0.0,0.0,0.0,0.0,0.0,0.0,0.0,0.0,0.0,0.0,0.0,0.0,0.0,0.0,0.0,0.0,0.0,0.0,0.0,0.0,0.0,0.0,0.0,0.0,0.0,0.0,0.0,0.0,0.0,0.0,0.0,0.0,0.0,0.0,0.0,0.0,0.0,0.0,0.0,0.0,0.0,0.0,0.0,0.0,0.0,0.0,0.0,0.0,0.0,0.0,0.0,0.0,0.0,0.0,0.0,0.0,0.0,0.0,0.0,0.0,0.0,0.0,0.0,0.0,0.0,0.0,0.0,0.0,0.0,0.0,0.0,0.0,0.0,0.0,0.0,0.0,0.0,0.0,0.0,0.0,0.0,0.0,0.0,-0.0991,-0.1044,-0.1177,-0.1535,-0.1874,-0.2116,0.0,0.0,0.0,0.0,0.0,0.0,0.0,0.0,0.0,0.0,0.0,0.0,0.0,0.0,0.0,0.0,0.0,0.0,0.0,0.0,0.0,0.0,0.0,0.0,0.0,0.0,0.0,0.0,0.0,0.0,0.0,0.0,0.0,0.0,0.0,0.0,0.0,0.0,0.0,0.0,0.0,0.0,0.0,0.0,0.0,0.0,0.0,0.0,0.0,0.0,0.0,0.0,0.0,0.0,0.0,0.0,0.0,0.0,0.0,0.0,0.0,0.0,0.0,0.0,0.0,0.0,0.0,0.0,0.0,0.0,0.0,0.0,0.0,0.0,0.0,0.0,0.0,0.0,0.0,0.0,0.0,0.0,0.0,0.0,0.0,0.0,0.0,0.0,0.0,0.0,0.0,0.0,0.0,0.0,0.0,0.0,0.0,0.0,0.0,0.0,0.0,0.0,0.0,0.0,0.0,0.0,0.0,0.0,-0.0913,-0.098,-0.1086,-0.1291,-0.1666,-0.1934,0.0,0.0,0.0,0.0,0.0,0.0,0.0,0.0,0.0,0.0,0.0,0.0,0.0,0.0,0.0,0.0,0.0,0.0,0.0,0.0,0.0,0.0,0.0,0.0,0.0,0.0,0.0,0.0,0.0,0.0,0.0,0.0,0.0,0.0,0.0,0.0,0.0,0.0,0.0,0.0,0.0,0.0,0.0,0.0,0.0,0.0,0.0,0.0,0.0,0.0,0.0,0.0,0.0,0.0,0.0,0.0,0.0,0.0,0.0,0.0,0.0,0.0,0.0,0.0,0.0,0.0,0.0,0.0,0.0,0.0,0.0,0.0,0.0,0.0,0.0,0.0,0.0,0.0,0.0,0.0,0.0,0.0,0.0,0.0,0.0,0.0,0.0,0.0,0.0,0.0,0.0,0.0,0.0,0.0,0.0,0.0,0.0,0.0,0.0,0.0,0.0,0.0,0.0,0.0,0.0,0.0,0.0,0.0,0.0,-0.1015,-0.1192,-0.1345,-0.1562,-0.175,-0.1912,0.0,0.0,0.0,0.0,0.0,0.0,0.0,0.0,0.0,0.0,0.0,0.0,0.0,0.0,0.0,0.0,0.0,0.0,0.0,0.0,0.0,0.0,0.0,0.0,0.0,0.0,0.0,0.0,0.0,0.0,0.0,0.0,0.0,0.0,0.0,0.0,0.0,0.0,0.0,0.0,0.0,0.0,0.0,0.0,0.0,0.0,0.0,0.0,0.0,0.0,0.0,0.0,0.0,0.0,0.0,0.0,0.0,0.0,0.0,0.0,0.0,0.0,0.0,0.0,0.0,0.0,0.0,0.0,0.0,0.0,0.0,0.0,0.0,0.0,0.0,0.0,0.0,0.0,0.0,0.0,0.0,0.0,0.0,0.0,0.0,0.0,0.0,0.0,0.0,0.0,0.0,0.0,0.0,0.0,0.0,0.0,0.0,0.0,0.0,0.0,0.0,0.0,0.0,0.0,0.0,0.0,0.0,0.0,0.0,-0.1162,0.0,-0.1533,-0.1696,-0.1787,-0.192,0.0,0.0,0.0,0.0,0.0,0.0,0.0,0.0,0.0,0.0,0.0,0.0,0.0,0.0,0.0,0.0,0.0,0.0,0.0,0.0,0.0,0.0,0.0,0.0,0.0,0.0,0.0,0.0,0.0,0.0,0.0,0.0,0.0,0.0,0.0,0.0,0.0,0.0,0.0,0.0,0.0,0.0,0.0,0.0,0.0,0.0,0.0,0.0,0.0,0.0,0.0,0.0,0.0,0.0,0.0,0.0,0.0,0.0,0.0,0.0,0.0,0.0,0.0,0.0,0.0,0.0,0.0,0.0,0.0,0.0,0.0,0.0,0.0,0.0,0.0,0.0,0.0,0.0,0.0,0.0,0.0,0.0,0.0,0.0,0.0,0.0,0.0,0.0,0.0,0.0,0.0,0.0,0.0,0.0,0.0,0.0,0.0,0.0,0.0,0.0,0.0,0.0,0.0,0.0,0.0,0.0,0.0,0.0,-0.138,-0.1307,-0.1517,-0.1632,-0.1711,-0.1836,-0.1964,0.0,0.0,0.0,0.0,0.0,0.0,0.0,0.0,0.0,0.0,0.0,0.0,0.0,0.0,0.0,0.0,0.0,0.0,0.0,0.0,0.0,0.0,0.0,0.0,0.0,0.0,0.0,0.0,0.0,0.0,0.0,0.0,0.0,0.0,0.0,0.0,0.0,0.0,0.0,0.0,0.0,0.0,0.0,0.0,0.0,0.0,0.0,0.0,0.0,0.0,0.0,0.0,0.0,0.0,0.0,0.0,0.0,0.0,0.0,0.0,0.0,0.0,0.0,0.0,0.0,0.0,0.0,0.0,0.0,0.0,0.0,0.0,0.0,0.0,0.0,0.0,0.0,0.0,0.0,0.0,0.0,0.0,0.0,0.0,0.0,0.0,0.0,0.0,0.0,0.0,0.0,0.0,0.0,0.0,0.0,0.0,0.0,0.0,0.0,0.0,0.0,0.0,0.0,0.0,0.0,0.0,0.0,0.0,0.0,-0.1592,-0.1693,-0.1772,-0.184,-0.1934,-0.2008,0.0,0.0,0.0,0.0,0.0,0.0,0.0,0.0,0.0,0.0,0.0,0.0,0.0,0.0,0.0,0.0,0.0,0.0,0.0,0.0,0.0,0.0,0.0,0.0,0.0,0.0,0.0,0.0,0.0,0.0,0.0,0.0,0.0,0.0,0.0,0.0,0.0,0.0,0.0,0.0,0.0,0.0,0.0,0.0,0.0,0.0,0.0,0.0,0.0,0.0,0.0,0.0,0.0,0.0,0.0,0.0,0.0,0.0,0.0,0.0,0.0,0.0,0.0,0.0,0.0,0.0,0.0,0.0,0.0,0.0,0.0,0.0,0.0,0.0,0.0,0.0,0.0,0.0,0.0,0.0,0.0,0.0,0.0,0.0,0.0,0.0,0.0,0.0,0.0,0.0,0.0,0.0,0.0,0.0,0.0,0.0,0.0,0.0,0.0,0.0,0.0,0.0,0.0,0.0,0.0,0.0,0.0,0.0,0.0,-0.2124,-0.2012,-0.1942,-0.192,-0.1986,-0.2034,-0.21,0.0,0.0,0.0,0.0,0.0,0.0,0.0,0.0,0.0,0.0,0.0,0.0,0.0,0.0,0.0,0.0,0.0,0.0,0.0,0.0,0.0,0.0,0.0,0.0,0.0,0.0,0.0,0.0,0.0,0.0,0.0,0.0,0.0,0.0,0.0,0.0,0.0,0.0,0.0,0.0,0.0,0.0,0.0,0.0,0.0,0.0,0.0,0.0,0.0,0.0,0.0,0.0,0.0,0.0,0.0,0.0,0.0,0.0,0.0,0.0,0.0,0.0,0.0,0.0,0.0,0.0,0.0,0.0,0.0,0.0,0.0,0.0,0.0,0.0,0.0,0.0,0.0,0.0,0.0,0.0,0.0,0.0,0.0,0.0,0.0,0.0,0.0,0.0,0.0,0.0,0.0,0.0,0.0,0.0,0.0,0.0,0.0,0.0,0.0,0.0,0.0,0.0,0.0,0.0,0.0,0.0,0.0,0.0,-0.2828,-0.244,-0.2197,-0.2045,-0.2027,-0.2068,0.0,0.0,0.0,0.0,0.0,0.0,0.0,0.0,0.0,0.0,0.0,0.0,0.0,0.0,0.0,0.0,0.0,0.0,0.0,0.0,0.0,0.0,0.0,0.0,0.0,0.0,0.0,0.0,0.0,0.0,0.0,0.0,0.0,0.0,0.0,0.0,0.0,0.0,0.0,0.0,0.0,0.0,0.0,0.0,0.0,0.0,0.0,0.0,0.0,0.0,0.0,0.0,0.0,0.0,0.0,0.0,0.0,0.0,0.0,0.0,0.0,0.0,0.0,0.0,0.0,0.0,0.0,0.0,0.0,0.0,0.0,0.0,0.0,0.0,0.0,0.0,0.0,0.0,0.0,0.0,0.0,0.0,0.0,0.0,0.0,0.0,0.0,0.0,0.0,0.0,0.0,0.0,0.0,0.0,0.0,0.0,0.0,0.0,0.0,0.0,0.0,0.0,0.0,0.0,0.0,0.0,0.0,0.0,0.0,-0.3109,-0.3154,-0.2905,-0.2408,-0.2376,-0.2291,0.0,0.0,0.0,0.0,0.0,0.0,0.0,0.0,0.0,0.0,0.0,0.0,0.0,0.0,0.0,0.0,0.0,0.0,0.0,0.0,0.0,0.0,0.0,0.0,0.0,0.0,0.0,0.0,0.0,0.0,0.0,0.0,0.0,0.0,0.0,0.0,0.0,0.0,0.0,0.0,0.0,0.0,0.0,0.0,0.0,0.0,0.0,0.0,0.0,0.0,0.0,0.0,0.0,0.0,0.0,0.0,0.0,0.0,0.0,0.0,0.0,0.0,0.0,0.0,0.0,0.0,0.0,0.0,0.0,0.0,0.0,0.0,0.0,0.0,0.0,0.0,0.0,0.0,0.0,0.0,0.0,0.0,0.0,0.0,0.0,0.0,0.0,0.0,0.0,0.0,0.0,0.0,0.0,0.0,0.0,0.0,0.0,0.0,0.0,0.0,0.0,0.0,0.0,0.0,0.0,0.0,0.0,0.0,-0.3793,-0.3721,-0.3821,-0.3638,-0.3098,-0.2793,-0.2581,0.0,0.0,0.0,0.0,0.0,0.0,0.0,0.0,0.0,0.0,0.0,0.0,0.0,0.0,0.0,0.0,0.0,0.0,0.0,0.0,0.0,0.0,0.0,0.0,0.0,0.0,0.0,0.0,0.0,0.0,0.0,0.0,0.0,0.0,0.0,0.0,0.0,0.0,0.0,0.0,0.0,0.0,0.0,0.0,0.0,0.0,0.0,0.0,0.0,0.0,0.0,0.0,0.0,0.0,0.0,0.0,0.0,0.0,0.0,0.0,0.0,0.0,0.0,0.0,0.0,0.0,0.0,0.0,0.0,0.0,0.0,0.0,0.0,0.0,0.0,0.0,0.0,0.0,0.0,0.0,0.0,0.0,0.0,0.0,0.0,0.0,0.0,0.0,0.0,0.0,0.0,0.0,0.0,0.0,0.0,0.0,0.0,0.0,0.0,0.0,0.0,0.0,0.0,0.0,0.0,0.0,0.0,0.0,-0.4344,-0.4473,-0.4479,-0.4308,-0.3995,-0.3287,-0.2866,0.0,0.0,0.0,0.0,0.0,0.0,0.0,0.0,0.0,0.0,0.0,0.0,0.0,0.0,0.0,0.0,0.0,0.0,0.0,0.0,0.0,0.0,0.0,0.0,0.0,0.0,0.0,0.0,0.0,0.0,0.0,0.0,0.0,0.0,0.0,0.0,0.0,0.0,0.0,0.0,0.0,0.0,0.0,0.0,0.0,0.0,0.0,0.0,0.0,0.0,0.0,0.0,0.0,0.0,0.0,0.0,0.0,0.0,0.0,0.0,0.0,0.0,0.0,0.0,0.0,0.0,0.0,0.0,0.0,0.0,0.0,0.0,0.0,0.0,0.0,0.0,0.0,0.0,0.0,0.0,0.0,0.0,0.0,0.0,0.0,0.0,0.0,0.0,0.0,0.0,0.0,0.0,0.0,0.0,0.0,0.0,0.0,0.0,0.0,0.0,0.0,0.0,0.0,0.0,0.0,0.0,0.0,0.0,-0.4834,-0.4864,-0.4826,-0.4764,-0.4709,-0.3962,-0.3421,0.0,0.0,0.0,0.0,0.0,0.0,0.0,0.0,0.0,0.0,0.0,0.0,0.0,0.0,0.0,0.0,0.0,0.0,0.0,0.0,0.0,0.0,0.0,0.0,0.0,0.0,0.0,0.0,0.0,0.0,0.0,0.0,0.0,0.0,0.0,0.0,0.0,0.0,0.0,0.0,0.0,0.0,0.0,0.0,0.0,0.0,0.0,0.0,-0.6858,0.0,0.0,0.0,0.0,0.0,0.0,0.0,0.0,0.0,0.0,0.0,0.0,0.0,0.0,0.0,0.0,0.0,0.0,0.0,0.0,0.0,0.0,0.0,0.0,0.0,0.0,0.0,0.0,0.0,0.0,0.0,0.0,0.0,0.0,0.0,0.0,0.0,0.0,0.0,0.0,0.0,0.0,0.0,0.0,0.0,0.0,0.0,0.0,0.0,0.0,0.0,0.0,0.0,0.0,0.0,0.0,0.0,0.0,0.0,-0.5428,-0.5372,-0.5334,-0.5239,-0.5131,-0.4648,-0.4158,0.0,0.0,0.0,0.0,0.0,0.0,0.0,0.0,0.0,0.0,0.0,0.0,0.0,0.0,0.0,0.0,0.0,0.0,0.0,0.0,0.0,0.0,0.0,0.0,0.0,0.0,0.0,0.0,0.0,0.0,0.0,0.0,0.0,0.0,0.0,0.0,0.0,0.0,0.0,0.0,0.0,0.0,0.0,0.0,0.0,0.0,0.0,0.0,0.0,0.0,0.0,0.0,0.0,0.0,0.0,0.0,0.0,0.0,0.0,0.0,0.0,0.0,0.0,0.0,0.0,0.0,0.0,0.0,0.0,0.0,0.0,0.0,0.0,0.0,0.0,0.0,0.0,0.0,0.0,0.0,0.0,0.0,0.0,0.0,0.0,0.0,0.0,0.0,0.0,0.0,0.0,0.0,0.0,0.0,0.0,0.0,0.0,0.0,0.0,0.0,0.0,0.0,0.0,0.0,0.0,0.0,0.0,-0.5913,-0.6021,-0.5905,-0.5905,-0.5765,-0.5547,-0.532,-0.4939,-0.437,0.0,0.0,0.0,0.0,0.0,0.0,0.0,0.0,0.0,0.0,0.0,0.0,0.0,0.0,0.0,0.0,0.0,0.0,0.0,0.0,0.0,0.0,0.0,0.0,0.0,0.0,0.0,0.0,0.0,0.0,0.0,0.0,0.0,0.0,0.0,0.0,0.0,0.0,-0.677,-0.6941,0.0,0.0,0.0,0.0,0.0,0.0,0.0,0.0,-0.736,0.0,0.0,0.0,0.0,0.0,0.0,0.0,0.0,0.0,0.0,0.0,0.0,0.0,0.0,0.0,0.0,0.0,0.0,0.0,0.0,0.0,0.0,0.0,0.0,0.0,0.0,0.0,0.0,0.0,0.0,0.0,0.0,0.0,0.0,0.0,0.0,0.0,0.0,0.0,0.0,0.0,0.0,0.0,0.0,0.0,0.0,0.0,0.0,0.0,0.0,0.0,0.0,0.0,0.0,0.0,0.0,-0.592,-0.625,-0.6429,-0.6407,-0.6329,-0.6268,-0.6153,-0.5842,-0.5505,-0.5032,0.0,0.0,0.0,0.0,0.0,0.0,0.0,0.0,0.0,0.0,0.0,0.0,0.0,0.0,0.0,0.0,0.0,0.0,0.0,0.0,0.0,0.0,0.0,0.0,0.0,0.0,0.0,0.0,0.0,0.0,0.0,0.0,0.0,0.0,0.0,0.0,0.0,0.0,0.0,-0.7201,-0.7345,0.0,0.0,0.0,0.0,0.0,0.0,0.0,0.0,-0.759,0.0,0.0,0.0,0.0,0.0,0.0,0.0,0.0,0.0,0.0,0.0,0.0,0.0,0.0,0.0,0.0,0.0,0.0,0.0,0.0,0.0,0.0,0.0,0.0,0.0,0.0,0.0,0.0,0.0,0.0,0.0,0.0,0.0,0.0,0.0,0.0,0.0,0.0,0.0,0.0,0.0,0.0,0.0,0.0,0.0,0.0,0.0,0.0,0.0,0.0,0.0,0.0,0.0,0.0,0.0,-0.6666,-0.6928,-0.7056,-0.7005,-0.6975,-0.6897,-0.6755,-0.6443,-0.6063,0.0,0.0,0.0,0.0,0.0,0.0,0.0,0.0,0.0,0.0,0.0,0.0,0.0,0.0,0.0,0.0,0.0,0.0,0.0,0.0,0.0,0.0,0.0,0.0,0.0,0.0,0.0,0.0,0.0,0.0,0.0,0.0,0.0,0.0,0.0,0.0,0.0,0.0,0.0,0.0,-0.7437,-0.759,-0.7694,0.0,0.0,0.0,0.0,0.0,0.0,-0.8425,-0.8483,0.0,0.0,0.0,0.0,0.0,0.0,0.0,0.0,0.0,0.0,0.0,0.0,0.0,0.0,0.0,0.0,0.0,0.0,0.0,0.0,0.0,0.0,0.0,0.0,0.0,0.0,0.0,0.0,0.0,0.0,0.0,0.0,0.0,0.0,0.0,0.0,0.0,0.0,0.0,0.0,0.0,0.0,0.0,0.0,0.0,0.0,0.0,0.0,0.0,0.0,0.0,0.0,0.0,0.0,0.0,-0.7482,-0.7666,-0.7734,-0.7686,-0.7686,-0.7588,-0.7432,-0.7007,-0.6545,0.0,0.0,0.0,0.0,0.0,0.0,0.0,0.0,0.0,0.0,0.0,0.0,0.0,0.0,0.0,0.0,0.0,0.0,0.0,0.0,0.0,0.0,0.0,0.0,0.0,0.0,0.0,0.0,0.0,0.0,0.0,0.0,0.0,0.0,0.0,0.0,0.0,0.0,0.0,0.0,0.0,-0.7797,-0.7942,-0.8041,0.0,0.0,0.0,0.0,-0.9141,-0.9266,0.0,0.0,0.0,0.0,0.0,0.0,0.0,0.0,0.0,0.0,0.0,0.0,0.0,0.0,0.0,0.0,0.0,0.0,0.0,0.0,0.0,0.0,0.0,0.0,0.0,0.0,0.0,0.0,0.0,0.0,0.0,0.0,0.0,0.0,0.0,0.0,0.0,0.0,0.0,0.0,0.0,0.0,0.0,0.0,0.0,0.0,0.0,0.0,0.0,0.0,0.0,0.0,0.0,0.0,0.0,0.0,-0.8156,-0.8184,-0.8251,-0.8298,-0.8298,-0.8241,-0.8166,-0.747,-0.6868,0.0,0.0,0.0,0.0,0.0,0.0,0.0,0.0,0.0,0.0,0.0,0.0,0.0,0.0,0.0,0.0,0.0,0.0,0.0,0.0,0.0,0.0,0.0,0.0,0.0,0.0,0.0,0.0,0.0,0.0,0.0,0.0,0.0,0.0,0.0,0.0,0.0,0.0,0.0,0.0,0.0,-0.8014,-0.8142,-0.8263,-0.834,0.0,0.0,-0.9347,-0.9383,-0.9907,0.0,0.0,0.0,0.0,0.0,0.0,0.0,0.0,0.0,0.0,0.0,0.0,0.0,0.0,0.0,0.0,0.0,0.0,0.0,0.0,0.0,0.0,0.0,0.0,0.0,0.0,0.0,0.0,0.0,0.0,0.0,0.0,0.0,0.0,0.0,0.0,0.0,0.0,0.0,0.0,0.0,0.0,0.0,0.0,0.0,0.0,0.0,0.0,0.0,0.0,0.0,0.0,0.0,0.0,0.0,-0.8737,-0.9242,-0.8985,-0.891,-0.9008,-0.9072,-0.8935,-0.8596,-0.8127,-0.7549,0.0,0.0,0.0,0.0,0.0,0.0,0.0,0.0,0.0,0.0,0.0,0.0,0.0,0.0,0.0,0.0,0.0,0.0,0.0,0.0,0.0,0.0,0.0,0.0,0.0,0.0,0.0,0.0,0.0,0.0,0.0,0.0,0.0,0.0,0.0,0.0,0.0,0.0,0.0,0.0,0.0,0.0,-0.8303,-0.8797,0.0,0.0,0.0,-1.0405,-1.0766,0.0,0.0,0.0,0.0,0.0,0.0,0.0,0.0,0.0,0.0,0.0,0.0,0.0,0.0,0.0,0.0,0.0,0.0,0.0,0.0,0.0,0.0,0.0,0.0,0.0,0.0,0.0,0.0,0.0,0.0,0.0,0.0,0.0,0.0,0.0,0.0,0.0,0.0,0.0,0.0,0.0,0.0,0.0,0.0,0.0,0.0,0.0,0.0,0.0,0.0,0.0,0.0,0.0,0.0,0.0,0.0,0.0,-1.0228,-0.9939,-0.9768,-0.9751,-0.9821,-0.9614,-0.9075,-0.8858,0.0,0.0,0.0,0.0,0.0,0.0,0.0,0.0,0.0,0.0,0.0,0.0,0.0,0.0,0.0,0.0,0.0,0.0,0.0,0.0,0.0,0.0,0.0,0.0,0.0,0.0,0.0,-0.4942,0.0,0.0,0.0,0.0,0.0,0.0,0.0,0.0,0.0,0.0,0.0,0.0,0.0,0.0,-0.8761,-0.8984,-0.959,-1.0046,0.0,0.0,-1.1424,-1.186,-1.2074,-1.2319,0.0,0.0,0.0,0.0,0.0,0.0,0.0,0.0,0.0,0.0,0.0,0.0,0.0,0.0,0.0,0.0,0.0,0.0,0.0,0.0,0.0,0.0,0.0,0.0,0.0,0.0,0.0,0.0,0.0,0.0,0.0,0.0,0.0,0.0,0.0,0.0,0.0,0.0,0.0,0.0,0.0,0.0,0.0,0.0,0.0,0.0,0.0,0.0,0.0,0.0,0.0,0.0,0.0,0.0,0.0,-1.0917,-1.1015,-1.086,-1.0447,-1.0555,-1.0361,-0.9851,-0.9498,-0.9043,0.0,0.0,0.0,0.0,0.0,0.0,0.0,0.0,0.0,0.0,0.0,0.0,0.0,0.0,0.0,0.0,0.0,0.0,0.0,0.0,0.0,0.0,0.0,0.0,0.0,0.0,0.0,0.0,0.0,0.0,0.0,0.0,0.0,0.0,0.0,0.0,0.0,0.0,0.0,0.0,0.0,-1.0415,-1.0617,-1.0801,-1.092,0.0,0.0,-1.218,-1.2104,-1.2673,-1.3073,-1.2997,0.0,0.0,0.0,0.0,0.0,0.0,0.0,0.0,0.0,0.0,0.0,0.0,0.0,0.0,0.0,0.0,0.0,0.0,0.0,0.0,0.0,0.0,0.0,0.0,0.0,0.0,0.0,0.0,0.0,0.0,0.0,0.0,0.0,0.0,0.0,0.0,0.0,0.0,0.0,0.0,0.0,0.0,0.0,0.0,0.0,0.0,0.0,0.0,0.0,0.0,0.0,0.0,0.0,-1.1908,-1.2088,-1.1881,-1.1562,-1.1141,-1.1279,-1.1176,-1.0776,-1.032,-0.9612,0.0,0.0,0.0,0.0,0.0,0.0,0.0,0.0,0.0,0.0,0.0,0.0,0.0,0.0,0.0,0.0,0.0,0.0,0.0,0.0,0.0,0.0,0.0,0.0,0.0,0.0,0.0,0.0,-0.4367,-0.4526,-0.5305,0.0,0.0,0.0,0.0,0.0,0.0,0.0,0.0,0.0,0.0,-1.0717,-1.096,-1.146,0.0,0.0,-1.2588,-1.3067,-1.2955,-1.3209,-1.3328,-1.3261,-1.321,0.0,0.0,0.0,0.0,0.0,0.0,0.0,0.0,0.0,0.0,0.0,0.0,0.0,0.0,0.0,0.0,0.0,0.0,0.0,0.0,0.0,0.0,0.0,0.0,0.0,0.0,0.0,0.0,0.0,0.0,0.0,0.0,0.0,0.0,0.0,0.0,0.0,0.0,0.0,0.0,0.0,0.0,0.0,0.0,0.0,0.0,0.0,0.0,0.0,0.0,0.0,0.0,-1.3178,-1.3371,-1.2925,-1.2452,-1.2059,-1.2081,-1.1932,-1.1561,-1.1083,-1.0344,0.0,0.0,0.0,0.0,0.0,0.0,0.0,0.0,0.0,0.0,0.0,0.0,0.0,0.0,0.0,0.0,0.0,0.0,0.0,0.0,0.0,0.0,0.0,0.0,0.0,0.0,0.0,0.0,-0.4403,-0.4845,-0.5685,0.0,0.0,0.0,0.0,0.0,0.0,0.0,0.0,0.0,0.0,-1.156,-1.1791,-1.2336,-1.2736,-1.2798,-1.3325,-1.3653,-1.3592,-1.3797,-1.3935,-1.3902,0.0,0.0,0.0,0.0,0.0,0.0,0.0,0.0,0.0,0.0,0.0,0.0,0.0,0.0,0.0,0.0,0.0,0.0,0.0,0.0,0.0,0.0,0.0,0.0,0.0,0.0,0.0,0.0,0.0,0.0,-1.314,0.0,0.0,0.0,0.0,0.0,0.0,0.0,0.0,0.0,0.0,0.0,0.0,0.0,0.0,0.0,0.0,0.0,0.0,0.0,0.0,0.0,0.0,-1.453,-1.468,-1.4202,-1.3783,-1.3372,-1.2993,-1.2621,-1.2203,-1.1729,-1.1278,-1.082,0.0,0.0,0.0,0.0,0.0,0.0,0.0,0.0,0.0,0.0,0.0,0.0,0.0,0.0,0.0,0.0,0.0,0.0,0.0,0.0,0.0,0.0,0.0,0.0,0.0,0.0,-0.3802,-0.4939,-0.5782,0.0,0.0,0.0,0.0,0.0,0.0,0.0,0.0,0.0,0.0,-1.2673,-1.3295,-1.3411,-1.3591,-1.3715,-1.3776,-1.3873,-1.3909,-1.3861,-1.4471,-1.4977,0.0,0.0,0.0,0.0,0.0,0.0,0.0,0.0,0.0,0.0,0.0,0.0,0.0,0.0,0.0,0.0,0.0,0.0,0.0,0.0,0.0,0.0,0.0,0.0,0.0,0.0,0.0,-1.477,-1.4733,0.0,0.0,0.0,0.0,0.0,0.0,0.0,0.0,0.0,0.0,0.0,-1.9521,-1.9653,0.0,0.0,0.0,0.0,0.0,0.0,0.0,0.0,0.0,0.0,0.0,0.0,-1.5697,-1.544,-1.5416,-1.4939,-1.4051,-1.4051,-1.3835,-1.3397,-1.2931,-1.1974,-1.0404,0.0,0.0,0.0,0.0,0.0,0.0,0.0,0.0,0.0,0.0,0.0,0.0,0.0,0.0,0.0,0.0,0.0,0.0,0.0,0.0,0.0,0.0,0.0,0.0,0.0,-0.4309,0.0,0.0,0.0,0.0,0.0,0.0,0.0,0.0,0.0,0.0,0.0,-1.2352,-1.289,-1.3324,-1.3811,-1.4408,-1.4652,-1.4952,0.0,0.0,0.0,0.0,0.0,0.0,0.0,0.0,0.0,0.0,0.0,0.0,0.0,0.0,-1.723,-1.6912,-1.7385,-1.7913,-1.8084,0.0,0.0,0.0,0.0,0.0,0.0,0.0,0.0,0.0,0.0,0.0,0.0,0.0,0.0,-1.7369,0.0,-1.7216,0.0,0.0,0.0,0.0,0.0,0.0,0.0,0.0,-2.1133,-2.1209,-2.147,-2.1408,-2.1164,0.0,-2.0952,-1.9802,0.0,0.0,0.0,0.0,0.0,0.0,0.0,0.0,-1.6718,-1.6455,-1.6403,-1.6017,-1.534,-1.5037,-1.477,-1.4576,-1.3604,-1.2123,-1.0183,-0.8261,-0.7059,0.0,0.0,0.0,0.0,0.0,0.0,0.0,0.0,0.0,0.0,0.0,0.0,0.0,0.0,0.0,0.0,0.0,0.0,0.0,0.0,0.0,0.0,0.0,-0.4558,0.0,0.0,0.0,0.0,0.0,0.0,0.0,0.0,0.0,-1.2454,-1.2628,-1.3121,-1.3979,-1.4191,-1.4559,-1.5429,0.0,0.0,0.0,0.0,0.0,0.0,0.0,-1.7118,-1.7151,-1.7413,-1.7658,-1.7697,-1.7794,-1.8066,-1.8659,0.0,0.0,-1.8109,-1.8535,-1.9023,-1.9126,-1.9676,-2.0129,-2.0212,-2.0308,-2.0371,0.0,0.0,0.0,0.0,0.0,0.0,0.0,0.0,-2.1261,-2.1243,0.0,-2.1058,0.0,0.0,0.0,0.0,0.0,-2.1204,0.0,0.0,-2.2152,-2.2205,-2.2922,-2.2868,-2.241,-2.1644,-2.2315,-2.2184,-2.1269,-2.042,0.0,0.0,0.0,0.0,0.0,0.0,-1.7625,-1.7703,-1.723,-1.7047,-1.715,-1.5962,-1.5442,-1.5643,-1.3712,-1.1934,-1.0399,-0.9392,-0.8502,-0.781,-0.6755,0.0,0.0,0.0,0.0,0.0,0.0,0.0,0.0,0.0,0.0,0.0,0.0,0.0,0.0,0.0,0.0,0.0,0.0,0.0,0.0,-0.4448,0.0,0.0,0.0,0.0,0.0,0.0,0.0,0.0,0.0,0.0,-1.3045,-1.3493,-1.4223,-1.514,0.0,0.0,0.0,0.0,-1.6783,-1.6904,-1.6945,-1.7017,-1.7012,-1.7656,-1.8153,-1.8246,0.0,0.0,-1.9564,-1.9638,-1.9676,-1.979,-1.9882,-1.9972,-1.9804,-1.9887,-2.0077,-2.0165,-2.0218,-2.0338,-2.0468,-2.0484,-2.0494,-2.4742,0.0,0.0,0.0,0.0,-2.1971,-2.1975,-2.195,-2.2002,-2.2017,-2.1998,-2.1879,0.0,0.0,0.0,0.0,0.0,0.0,-2.3341,-2.4211,-2.3998,-2.3986,-2.4116,-2.4085,-2.3923,-2.3667,-2.3854,-2.3801,-2.349,-2.3235,-2.2307,-2.0774,0.0,0.0,0.0,0.0,-1.8909,-1.8438,-1.8339,-1.8128,-1.7724,-1.7424,-1.6879,-1.6073,-1.4417,-1.3339,-1.2928,-1.0911,-0.9684,-0.9408,-0.8018,0.0,0.0,0.0,0.0,0.0,0.0,0.0,0.0,0.0,0.0,0.0,0.0,0.0,0.0,0.0,0.0,0.0,0.0,0.0,-0.4928,-0.5561,-0.6951,0.0,0.0,0.0,0.0,0.0,0.0,0.0,0.0,0.0,-1.5682,-1.576,-1.5976,0.0,0.0,-1.6771,-1.7605,-1.7785,-1.8042,-1.8638,-1.8776,0.0,-1.8894,-1.9093,-1.9268,-1.9313,-1.9576,-1.9769,-1.9816,-1.9858,-1.9943,-2.006,-2.0169,-2.0215,-2.0222,-2.0219,-2.028,-2.0328,-2.0402,-2.0444,-2.0503,-2.0504,-2.0504,-2.7181,-2.5282,-2.4698,-2.4278,-2.395,-2.3961,-2.3736,-2.3391,-2.3422,-2.3453,-2.3465,-2.3373,-2.3303,-2.329,-2.3172,0.0,0.0,0.0,-2.4455,-2.4975,-2.4949,-2.4911,-2.4831,-2.4804,-2.4762,-2.4685,-2.4718,-2.4689,-2.4625,-2.4622,-2.397,-2.2656,0.0,0.0,-2.1152,-2.0463,-1.9901,-1.95,-1.9259,-1.8958,-1.857,-1.8419,-1.7648,-1.6276,-1.5063,-1.4314,-1.404,-1.2232,-1.1048,-1.0664,-0.9394,-0.845,0.0,0.0,0.0,0.0,0.0,0.0,0.0,0.0,0.0,0.0,0.0,-0.7003,0.0,0.0,0.0,0.0,-0.6084,-0.6523,-0.6908,-0.777,0.0,0.0,0.0,0.0,0.0,0.0,0.0,-1.7355,-1.7417,-1.7486,-1.7826,-1.7858,-1.7748,-1.7426,-1.7383,-1.7712,-1.866,0.0,-1.9076,-1.9556,-1.9669,-1.9738,-1.9806,-1.9811,-1.9835,-1.9919,-1.9947,-1.9981,-2.0012,-2.005,-2.012,-2.025,-2.0327,-2.0346,-2.0429,-2.041,-2.0381,-2.0428,-2.0469,-2.0516,-2.0511,-2.0507,-2.0504,-2.9065,-2.8421,-2.821,-2.7565,-2.6728,-2.667,-2.6179,-2.5437,-2.5349,-2.5321,-2.5312,-2.5253,-2.5184,-2.5124,-2.5069,0.0,-2.513,-2.5212,-2.5224,-2.5216,-2.5216,-2.5215,-2.5233,-2.5173,-2.5091,-2.5015,-2.5046,-2.5041,-2.5043,-2.5041,-2.5027,-2.4996,-2.386,-2.3276,-2.3167,-2.1633,-2.0856,-2.0834,-2.0038,-1.9643,-1.9617,-1.9024,-1.8013,-1.6563,-1.5792,-1.5062,-1.4334,-1.3467,-1.2593,-1.1741,-1.0852,-0.9927,-0.8927,0.0,0.0,0.0,0.0,0.0,0.0,0.0,0.0,0.0,0.0,0.0,0.0,0.0,0.0,0.0,-0.7389,0.0,-0.9694,-1.0527,0.0,0.0,0.0,-1.5039,-1.5347,-1.6663,-1.7771,-1.8423,0.0,0.0,-1.942,-1.9577,-1.933,-1.8546,-1.8311,-1.8609,-1.9582,-1.9726,-1.9813,-1.9823,-1.9881,-1.9918,-1.9979,-2.0,-2.003,-2.0108,-2.0107,-2.0133,-2.0208,-2.0207,-2.0269,-2.0379,-2.0404,-2.0415,-2.0511,-2.0497,-2.0501,-2.0506,-2.0516,-2.0525,-2.0644,-2.0674,-2.0703,-3.1281,-3.1077,-3.04,-2.9187,-2.7744,-2.7725,-2.7614,-2.7368,-2.6701,-2.641,-2.6371,-2.5723,-2.5383,-2.5332,-2.5318,-2.5337,-2.5393,-2.5421,-2.5445,-2.5422,-2.5445,-2.541,-2.5429,-2.5346,-2.5309,-2.5301,-2.5301,-2.532,-2.5311,-2.532,-2.5318,-2.5297,-2.5013,-2.4445,-2.3663,-2.3209,-2.2665,-2.2083,-2.1221,-2.0513,-1.9931,-1.9211,-1.868,-1.8374,-1.7587,-1.6816,-1.6024,-1.516,-1.4283,-1.3376,-1.2447,-1.1256,-0.9714,-0.9352,0.0,0.0,0.0,0.0,0.0,0.0,0.0,0.0,0.0,-0.6524,-0.5339,0.0,-0.636,0.0,-0.914,-1.0614,-1.1278,-1.1825,0.0,0.0,-1.4686,-1.5873,-1.7708,-1.8236,-1.8705,-1.9313,-1.9395,-1.9482,-1.9701,-1.9738,-1.9717,-1.9598,-1.9515,-1.9578,-1.9904,-1.9934,-1.9966,-2.0019,-2.003,-2.006,-2.0079,-2.0124,-2.0186,-2.0238,-2.0246,-2.0282,-2.0354,-2.0338,-2.039,-2.0449,-2.0472,-2.0486,-2.0506,-2.0501,-2.0508,-2.0506,-2.0505,-2.0719,-2.1329,-2.1441,-2.159,-3.2417,-3.2068,-3.1561,-3.0579,-2.9291,-2.8899,-2.8493,-2.81,-2.7632,-2.7418,-2.7355,-2.651,-2.589,-2.5492,-2.5479,-2.5511,-2.5538,-2.5538,-2.557,-2.5582,-2.5609,-2.5583,-2.5544,-2.5512,-2.5479,-2.5505,-2.5485,-2.5485,-2.5485,-2.5485,-2.5492,-2.5486,-2.548,-2.5201,-2.4609,-2.411,-2.365,-2.3189,-2.1991,-2.1157,-2.0668,-1.9923,-1.9384,-1.9058,-1.8621,-1.7987,-1.7161,-1.6663,-1.5787,-1.4453,-1.3787,-1.2601,-1.0807,-1.0278,-1.0003,0.0,0.0,0.0,0.0,0.0,0.0,0.0,0.0,0.0,0.0,0.0,-0.7739,-0.8986,-1.0988,-1.2508,-1.3288,-1.3961,-1.4876,-1.6108,-1.6639,-1.7471,-1.8756,-1.9203,-1.9535,-1.9839,-1.9885,-1.9896,-1.9926,-1.9928,-1.9971,-2.006,-2.005,-2.0021,-2.0031,-2.006,-2.0108,-2.0134,-2.0161,-2.0205,-2.0188,-2.0227,-2.0288,-2.0347,-2.0332,-2.0374,-2.0429,-2.0452,-2.0445,-2.0494,-2.0504,-2.0503,-2.0508,-2.0506,-2.0515,-2.0503,-2.0477,-2.0792,-2.1558,-2.1697,-2.1901,-3.3099,-3.2409,-3.2174,-3.1669,-3.0889,-3.0019,-2.9214,-2.8528,-2.8411,-2.8314,-2.8136,-2.7279,-2.6493,-2.5769,-2.5649,-2.5615,-2.5595,-2.5615,-2.563,-2.5687,-2.5691,-2.5667,-2.5609,-2.5609,-2.5615,-2.5609,-2.5609,-2.5609,-2.5609,-2.5609,-2.5609,-2.5615,-2.56,-2.5617,-2.557,-2.4752,-2.4238,-2.4106,-2.2687,-2.1816,-2.1524,-2.083,-2.0089,-1.9329,-1.9275,-1.8861,-1.8033,-1.7973,-1.7149,-1.5459,-1.5101,-1.4083,-1.2194,-1.1287,-1.1112,0.0,-1.1488,0.0,0.0,0.0,0.0,0.0,0.0,0.0,0.0,-0.7777,-0.9478,-1.1125,-1.2973,-1.4481,-1.5444,-1.6345,-1.7186,-1.798,-1.8689,-1.9114,-1.9181,-1.9807,-2.0188,-2.0117,-2.0069,-2.0069,-2.0117,-2.0126,-2.0153,-2.0205,-2.02,-2.0188,-2.0156,-2.0175,-2.0211,-2.0223,-2.0272,-2.0314,-2.0328,-2.0371,-2.0394,-2.0415,-2.0433,-2.0441,-2.0492,-2.0506,-2.051,-2.0501,-2.0507,-2.0505,-2.0511,-2.0499,-2.0474,-2.0488,-2.0429,-2.0686,-2.1449,-2.1648,-2.1861,-3.428,-3.399,-3.2605,-3.1909,-3.1704,-3.0843,-3.042,-3.0253,-2.9549,-2.8865,-2.8143,-2.7344,-2.6894,-2.6679,-2.5993,-2.5698,-2.5679,-2.5679,-2.5698,-2.5697,-2.5697,-2.5696,-2.5693,-2.5673,-2.5672,-2.5689,-2.567,-2.567,-2.567,-2.567,-2.5691,-2.5694,-2.5676,-2.5694,-2.567,0.0,0.0,0.0,-2.3961,-2.3095,-2.174,-2.1526,-2.1046,-2.0264,-2.025,0.0,-1.8988,-1.8867,-1.8341,-1.7254,-1.703,0.0,0.0,0.0,0.0,0.0,0.0,0.0,0.0,0.0,0.0,0.0,-1.0039,-0.9844,-0.8964,-1.1042,-1.2976,-1.4169,-1.5355,-1.6417,-1.7304,-1.7606,-1.8082,-1.886,-1.9087,-1.942,-2.0037,-2.0237,-2.028,-2.0269,-2.0252,-2.026,-2.0342,-2.0273,-2.0296,-2.0378,-2.0302,-2.0302,-2.0371,-2.0334,-2.0302,-2.0347,-2.0383,-2.0415,-2.0468,-2.0478,-2.0467,-2.05,-2.0483,-2.0484,-2.0494,-2.0503,-2.0508,-2.0505,-2.0516,-2.0497,-2.0511,-2.0456,-2.0424,-2.0408,-2.0366,-2.0579,-2.143,-2.1562,-2.1743,-3.4948,0.0,-3.3584,-3.271,0.0,-3.1479,-3.108,-3.0667,-3.0279,-2.9604,-2.8789,-2.8408,-2.7766,-2.6925,-2.6479,-2.6091,-2.5701,-2.5701,-2.5701,-2.5703,-2.5689,-2.5694,-2.5699,-2.5699,-2.5699,-2.5699,-2.5699,-2.5699,-2.5699,-2.5699,-2.5699,-2.5697,-2.5697,-2.5701,-2.5703,-2.5702,-2.5457,-2.4997,-2.4565,-2.3914,-2.3041,-2.2185,-2.1547,-2.1138,-2.0725,0.0,0.0,0.0,0.0,0.0,0.0,0.0,0.0,-1.5514,0.0,-1.4625,-1.5182,-1.5024,-1.3986,-1.3822,-1.3442,-1.2612,-1.3232,-1.327,-1.235,-1.351,-1.4884,-1.6281,-1.6934,-1.7602,-1.8473,-1.8631,-1.8977,-1.9734,-1.9846,-2.0147,-2.0873,-2.1023,-2.1133,-2.1531,-2.1562,-2.1596,-2.1591,-2.1623,-2.163,-2.1596,-2.1283,-2.1041,-2.1036,-2.0667,-2.038,-2.0434,-2.0458,-2.0469,-2.0477,-2.0503,-2.0511,-2.0506,-2.0498,-2.0506,-2.0508,-2.0505,-2.0516,-2.0514,-2.0474,-2.0449,-2.043,-2.038,-2.0332,-2.0314,-2.0258,-2.0288,-2.076,-2.1109,-2.1646,-3.5339,-3.4672,-3.4459,-3.349,-3.2058,-3.1922,-3.138,-3.0557,0.0,0.0,0.0,-2.9502,-2.8685,-2.7356,-2.7181,-2.6656,-2.5912,-2.5892,-2.5814,-2.5683,-2.5682,-2.5683,-2.5681,-2.5681,-2.5665,-2.5684,-2.5684,-2.5684,-2.5684,-2.5684,-2.5665,-2.5684,-2.5665,-2.5696,-2.5693,-2.57,-2.5703,-2.5672,-2.5,-2.4559,-2.4368,-2.301,-2.2191,-2.2035,-2.1188,-2.0727,-2.0741,-2.0527,-2.0046,-1.9232,-1.8974,-1.8355,-1.7346,-1.7216,-1.7173,-1.7132,-1.7444,-1.7374,-1.6782,-1.675,-1.6443,-1.5713,-1.6278,-1.6362,-1.5626,-1.5592,-1.6265,-1.7898,-1.8084,-1.8501,-1.9427,-1.9668,-2.001,-2.0664,-2.0869,-2.123,-2.1847,-2.1942,-2.2158,-2.2785,-2.2836,-2.2926,-2.2874,-2.291,-2.3028,-2.2926,-2.2384,-2.1928,-2.1714,-2.0986,-2.0434,-2.048,-2.0497,-2.0514,-2.0513,-2.0502,-2.0505,-2.0508,-2.0507,-2.0502,-2.0508,-2.0497,-2.0474,-2.0476,-2.0434,-2.039,-2.0357,-2.0308,-2.0234,-2.0203,-2.0115,-2.0031,-2.0048,-2.0503,-2.1168,-3.5504,-3.5302,-3.4545,-3.3646,-3.2697,-3.1965,-3.1176,-3.0455,-3.0567,-3.0548,-3.0393,-2.9637,-2.9218,-2.8999,-2.8281,-2.7453,-2.6669,-2.665,-2.6267,-2.5624,-2.5609,-2.56,-2.56,-2.5609,-2.5613,-2.5613,-2.5601,-2.5625,-2.5625,-2.5625,-2.5625,-2.5605,-2.5605,-2.5658,-2.5698,-2.5698,-2.5701,-2.5685,-2.5585,-2.5155,-2.4412,-2.4154,-2.3682,-2.2935,-2.2067,-2.1608,-2.1606,-2.0898,-2.0422,-2.0285,-2.0187,-1.9689,-1.8794,-1.8708,-1.8364,-1.7676,-1.7696,-1.7761,-1.7711,-1.7714,-1.7656,-1.7549,-1.7617,-1.7597,-1.7443,-1.7412,-1.7874,-1.8885,-1.902,-1.9407,-2.033,-2.0996,-2.1457,-2.1633,-2.2276,-2.2785,-2.2881,-2.2863,-2.2892,-2.3091,-2.298,-2.3086,-2.3201,-2.3197,-2.3244,-2.3127,-2.3076,-2.2664,-2.1869,-2.1045,-2.0551,-2.0497,-2.0504,-2.0507,-2.0508,-2.0506,-2.0502,-2.05,-2.0514,-2.0487,-2.048,-2.0456,-2.04,-2.0413,-2.0346,-2.0289,-2.0234,-2.0164,-2.0133,-2.0117,-2.002,-1.9907,-1.9847,-1.9957,-2.0039,-3.5416,-3.534,-3.4928,-3.4242,-3.3346,-3.2043,-3.1046,-3.0312,-3.0359,-3.0409,-3.0442,-3.0057,-2.9661,-2.9226,-2.8846,-2.8216,-2.7392,-2.7427,-2.7268,-2.6888,-2.6403,-2.623,-2.6191,-2.5776,-2.556,-2.5609,-2.5595,-2.56,-2.56,-2.56,-2.56,-2.56,-2.5595,-2.5613,-2.5648,-2.5655,-2.5636,-2.5636,-2.5683,-2.5519,-2.5109,-2.4664,-2.4198,-2.3808,-2.2968,-2.2516,-2.2513,-2.2119,-2.1915,-2.1906,-2.1877,-2.1441,-2.0599,-2.0491,-2.0086,-1.9304,-1.926,-1.9273,-1.9313,-1.93,-1.9305,-1.9301,-1.9312,-1.9502,-1.9938,-1.9091,-1.8947,-1.9805,-2.0299,-2.0786,-2.1287,-2.203,-2.2509,-2.2522,-2.2876,-2.329,-2.3724,-2.3789,-2.3956,-2.436,-2.4466,-2.4487,-2.4514,-2.45,-2.4525,-2.4481,-2.4159,-2.332,-2.2028,-2.1478,-2.1012,-2.0604,-2.0506,-2.05,-2.0506,-2.0511,-2.0483,-2.0458,-2.0453,-2.0434,-2.0399,-2.0363,-2.034,-2.0314,-2.0253,-2.0227,-2.0161,-2.0098,-2.0049,-1.9988,-1.9881,-1.9788,-1.9701,-1.9536,-1.9471,-3.5223,-3.5193,-3.516,-3.4647,-3.3713,-3.2073,-3.0986,-3.0414,-3.0238,-3.0199,-3.0292,-3.0336,-2.9975,-2.9398,-2.9415,-2.8984,-2.8232,-2.8222,-2.8135,-2.7884,-2.7247,-2.6983,-2.6939,-2.618,-2.5795,-2.5822,-2.5674,-2.5577,-2.5577,-2.5577,-2.5577,-2.5589,-2.5579,-2.5581,-2.5571,-2.56,-2.5604,-2.5609,-2.5644,-2.5675,-2.5665,-2.5027,-2.4683,-2.4633,-2.3859,-2.3395,-2.3397,-2.3203,-2.3104,-2.3097,-2.3107,-2.2786,-2.2157,-2.2045,-2.1753,-2.1169,-2.1082,-2.1085,-2.1074,-2.1072,-2.1091,-2.108,-2.1091,-2.1372,-2.188,-2.0886,-2.0327,-2.1043,-2.1682,-2.2082,-2.2264,-2.2909,-2.3389,-2.3386,-2.3573,-2.3998,-2.4573,-2.4684,-2.4927,-2.559,-2.5697,-2.5657,-2.5691,-2.5699,-2.5624,-2.5486,-2.493,-2.3749,-2.2396,-2.1945,-2.1429,-2.0762,-2.0501,-2.0494,-2.0484,-2.0491,-2.0463,-2.0386,-2.0376,-2.0344,-2.0296,-2.0282,-2.0246,-2.0192,-2.0133,-2.0098,-2.0059,-1.9988,-1.9922,-1.9842,-1.9726,-1.9604,-1.9513,-1.932,-1.9212,-3.5056,-3.4945,-3.4908,-3.4471,-3.3562,-3.195,-3.121,-3.0983,-3.0281,-2.9921,-2.9969,-3.0123,-3.0169,-3.0113,-3.012,-2.9697,-2.8914,-2.8975,-2.8602,-2.7948,-2.7736,-2.7738,-2.7711,-2.6921,-2.6524,-2.6508,-2.5917,-2.5635,-2.5577,-2.5526,-2.5507,-2.5529,-2.5525,-2.5505,-2.5531,-2.5562,-2.5607,-2.5607,-2.5613,-2.56,-2.5601,-2.5547,-2.5515,-2.5564,-2.4732,-2.4286,-2.4271,-2.3534,-2.3114,-2.3103,-2.3164,-2.3085,-2.2986,-2.2964,-2.2925,-2.281,-2.2812,-2.2868,-2.2831,-2.2864,-2.2783,-2.2854,-2.2773,-2.2815,-2.2962,-2.2809,-2.2737,-2.2886,-2.2956,-2.2964,-2.3046,-2.3769,-2.4276,-2.4328,-2.4896,-2.5505,-2.5484,-2.5581,-2.564,-2.5661,-2.5702,-2.5703,-2.5703,-2.57,-2.5691,-2.5662,-2.5013,-2.4097,-2.3084,-2.2269,-2.1536,-2.074,-2.0467,-2.0465,-2.0419,-2.04,-2.0388,-2.0334,-2.0308,-2.0268,-2.0223,-2.0167,-2.0115,-2.0088,-2.002,-1.9947,-1.9881,-1.9811,-1.9738,-1.9694,-1.9555,-1.9394,-1.9264,-1.9135,-1.9069,-3.4849,-3.473,-3.473,-3.4259,-3.3391,-3.2712,-3.1902,-3.0997,-3.0658,-3.0225,-2.9828,-2.9859,-2.9975,-3.0075,-3.0157,-2.9975,-2.9658,-2.9717,-2.9577,-2.9174,-2.8727,-2.8533,-2.8461,-2.7706,-2.7343,-2.7335,-2.6998,-2.6603,-2.6139,-2.5674,-2.5421,-2.5426,-2.5449,-2.5476,-2.551,-2.5536,-2.5536,-2.5536,-2.5531,-2.5531,-2.5537,-2.5571,-2.5595,-2.5593,-2.529,-2.5118,-2.5086,-2.4739,-2.457,-2.4578,-2.461,-2.4403,-2.3878,-2.3858,-2.3645,-2.3179,-2.3111,-2.3113,-2.3104,-2.31,-2.3097,-2.3104,-2.3104,-2.3287,-2.3766,-2.3805,-2.4007,-2.443,-2.4159,-2.3859,-2.3938,-2.4645,-2.5155,-2.5234,-2.5508,-2.5703,-2.5702,-2.5702,-2.57,-2.5687,-2.5703,-2.5679,-2.5651,-2.5642,-2.5621,-2.5566,-2.5185,-2.4638,-2.3824,-2.2972,-2.2088,-2.1217,-2.0663,-2.0353,-2.0334,-2.0289,-2.0275,-2.0258,-2.0211,-2.0169,-2.0106,-2.0022,-1.9981,-1.9977,-1.99,-1.9818,-1.977,-1.9681,-1.9569,-1.9518,-1.9368,-1.918,-1.9033,-1.8949,-1.8896,-3.4604,-3.4495,-3.4495,-3.4117,-3.3537,-3.3312,-3.2564,-3.1478,-3.0992,-3.0449,-2.9925,-2.972,-2.9701,-2.9857,-2.9975,-3.0022,-3.0049,-3.0079,-3.0128,-3.0066,-2.9522,-2.9281,-2.9206,-2.8492,-2.8095,-2.8061,-2.7854,-2.7454,-2.6871,-2.6092,-2.5687,-2.5686,-2.5483,-2.5423,-2.5479,-2.5468,-2.5468,-2.5456,-2.5464,-2.5472,-2.5468,-2.5518,-2.5562,-2.5571,-2.5561,-2.5591,-2.56,-2.56,-2.5604,-2.5609,-2.5668,-2.5402,-2.4778,-2.4742,-2.4436,-2.3879,-2.378,-2.3778,-2.3778,-2.3789,-2.3781,-2.3791,-2.3767,-2.4044,-2.452,-2.4657,-2.4934,-2.5386,-2.5067,-2.4734,-2.4803,-2.5295,-2.5648,-2.5703,-2.5685,-2.5668,-2.5664,-2.5664,-2.5673,-2.5683,-2.5656,-2.5639,-2.56,-2.5546,-2.5523,-2.548,-2.5434,-2.5135,-2.427,-2.3358,-2.2458,-2.1583,-2.0713,-2.0241,-2.025,-2.0227,-2.0178,-2.0143,-2.0098,-2.004,-1.9971,-1.9907,-1.9839,-1.983,-1.9763,-1.9686,-1.9596,-1.9499,-1.9368,-1.9274,-1.9148,-1.8999,-1.8843,-1.877,-1.8695,-3.434,-3.4221,-3.424,-3.4165,-3.411,-3.3361,-3.2971,-3.2655,-3.1262,-3.0516,-3.0389,-2.9764,-2.9471,-2.9588,-2.9756,-2.9842,-2.9893,-2.9907,-2.9937,-2.9988,-2.9946,-2.9958,-2.9994,-2.9236,-2.885,-2.8802,-2.8243,-2.7841,-2.7704,-2.6864,-2.6453,-2.6406,-2.5735,-2.537,-2.5437,-2.5437,-2.5416,-2.5387,-2.5415,-2.5395,-2.5415,-2.5401,-2.543,-2.5493,-2.5505,-2.5531,-2.5582,-2.5601,-2.5613,-2.5604,-2.56,-2.5576,-2.5526,-2.5516,-2.5442,-2.5394,-2.5429,-2.5425,-2.5396,-2.5333,-2.5352,-2.5406,-2.5274,-2.5443,-2.5385,-2.5413,-2.5446,-2.5587,-2.5502,-2.5435,-2.5434,-2.5522,-2.5632,-2.5667,-2.5643,-2.5604,-2.5604,-2.5589,-2.5609,-2.56,-2.5595,-2.5568,-2.5505,-2.5432,-2.5422,-2.5379,-2.5346,-2.5023,-2.4255,-2.3333,-2.246,-2.156,-2.0737,-2.0069,-2.0171,-2.0144,-2.0079,-2.002,-1.9969,-1.9896,-1.9858,-1.9788,-1.9745,-1.9668,-1.9541,-1.9456,-1.9394,-1.9289,-1.9132,-1.9033,-1.8947,-1.8825,-1.8679,-1.862,-1.8542,-3.4074,-3.3947,-3.3947,-3.3947,-3.391,-3.3652,-3.3239,-3.2705,-3.2133,-3.1568,-3.1038,-3.0305,-3.0043,-3.0092,-2.9673,-2.9588,-2.9756,-2.9771,-2.9787,-2.9841,-2.9891,-2.9943,-2.9937,-2.9718,-2.9601,-2.954,-2.9336,-2.8979,-2.8433,-2.7638,-2.7204,-2.7113,-2.6427,-2.6028,-2.6002,-2.5542,-2.5264,-2.5274,-2.5322,-2.5332,-2.5341,-2.5332,-2.535,-2.5385,-2.5461,-2.551,-2.5549,-2.5536,-2.5556,-2.5543,-2.5538,-2.5537,-2.5543,-2.5579,-2.5609,-2.5604,-2.556,-2.5529,-2.5549,-2.5537,-2.5531,-2.555,-2.5531,-2.5518,-2.5538,-2.5543,-2.5536,-2.5536,-2.5536,-2.5538,-2.5544,-2.5571,-2.561,-2.5615,-2.5579,-2.5529,-2.5529,-2.5529,-2.5537,-2.5538,-2.5511,-2.5449,-2.5398,-2.5348,-2.5312,-2.5274,-2.5224,-2.4998,-2.4637,-2.3885,-2.2981,-2.2144,-2.1282,-2.0528,-1.9941,-1.9985,-1.9963,-1.9877,-1.9818,-1.9751,-1.9707,-1.9591,-1.9527,-1.9499,-1.9368,-1.9277,-1.9212,-1.9097,-1.893,-1.8843,-1.8753,-1.866,-1.8545,-1.8483,-1.84,-3.378,-3.3698,-3.3671,-3.3671,-3.3671,-3.3671,-3.3378,-3.2893,-3.2637,-3.2224,-3.1689,-3.0962,-3.0538,-3.0337,-2.9843,-2.9548,-2.951,-2.9589,-2.9626,-2.9663,-2.9755,-2.9827,-2.9842,-2.9891,-2.9888,-2.9924,-2.9991,-2.9734,-2.9212,-2.8384,-2.8011,-2.7994,-2.7192,-2.6663,-2.6381,-2.5857,-2.5493,-2.5267,-2.5231,-2.5271,-2.5271,-2.5273,-2.5264,-2.5274,-2.5351,-2.5434,-2.5479,-2.5479,-2.5459,-2.5456,-2.5468,-2.549,-2.5498,-2.5538,-2.557,-2.5564,-2.5518,-2.5511,-2.5511,-2.5524,-2.549,-2.5471,-2.548,-2.5472,-2.5437,-2.544,-2.5451,-2.5423,-2.5423,-2.5443,-2.5459,-2.5488,-2.5511,-2.5525,-2.5499,-2.5466,-2.5478,-2.5456,-2.5434,-2.5421,-2.5359,-2.5303,-2.5264,-2.5214,-2.519,-2.5145,-2.5068,-2.5006,-2.4847,-2.42,-2.3466,-2.2744,-2.1682,-2.0864,-2.0244,-2.0019,-1.9795,-1.9688,-1.9636,-1.9601,-1.9532,-1.9413,-1.9335,-1.9323,-1.923,-1.9117,-1.9017,-1.8895,-1.8771,-1.8659,-1.8547,-1.8469,-1.8388,-1.8322,-1.8218,-3.3528,-3.3535,-3.3422,-3.3393,-3.3422,-3.3422,-3.3433,-3.3291,-3.2664,-3.2411,-3.2283,-3.1608,-3.0947,-3.0375,-3.0344,-2.9918,-2.9377,-2.9458,-2.9527,-2.9569,-2.9607,-2.9645,-2.9699,-2.9717,-2.9735,-2.9806,-2.9878,-2.9926,-2.9839,-2.9114,-2.873,-2.8665,-2.798,-2.7266,-2.6397,-2.6371,-2.5926,-2.539,-2.5252,-2.5206,-2.5217,-2.519,-2.5201,-2.5182,-2.5192,-2.5273,-2.5389,-2.5398,-2.5388,-2.5406,-2.5404,-2.5448,-2.5464,-2.5484,-2.5484,-2.5492,-2.5511,-2.5511,-2.5484,-2.5484,-2.5456,-2.5421,-2.5376,-2.5378,-2.5312,-2.5303,-2.5303,-2.5284,-2.5284,-2.5284,-2.5303,-2.5293,-2.5332,-2.5385,-2.5382,-2.5385,-2.5387,-2.535,-2.5293,-2.5273,-2.5231,-2.5168,-2.5103,-2.5056,-2.5025,-2.4987,-2.4921,-2.4851,-2.4771,-2.4166,-2.3566,-2.3045,-2.223,-2.1328,-2.0663,-2.0052,-1.9744,-1.9481,-1.9438,-1.9398,-1.9357,-1.928,-1.918,-1.915,-1.9016,-1.8896,-1.8789,-1.8679,-1.8604,-1.8487,-1.8371,-1.829,-1.8222,-1.8155,-1.8053,-3.4099,-3.3965,-3.3412,-3.3178,-3.3196,-3.3178,-3.3226,-3.3208,-3.2937,-3.2925,-3.2886,-3.2254,-3.1801,-3.1528,-3.1151,-3.0497,-2.9837,-2.9899,-2.978,-2.9446,-2.9451,-2.9492,-2.957,-2.9626,-2.9664,-2.9736,-2.9753,-2.9787,-2.9784,-2.9574,-2.9496,-2.9377,-2.8695,-2.8214,-2.7837,-2.6868,-2.6097,-2.5907,-2.5387,-2.5132,-2.5132,-2.5144,-2.5144,-2.5144,-2.5144,-2.5149,-2.5176,-2.5241,-2.5273,-2.5244,-2.5313,-2.5351,-2.537,-2.5351,-2.536,-2.5379,-2.5379,-2.5351,-2.5351,-2.5351,-2.5341,-2.5322,-2.5293,-2.5273,-2.5233,-2.5182,-2.516,-2.516,-2.516,-2.5168,-2.5164,-2.5153,-2.5198,-2.5322,-2.5293,-2.5273,-2.5252,-2.519,-2.5134,-2.5106,-2.5069,-2.5044,-2.4961,-2.4893,-2.4851,-2.4827,-2.4753,-2.4676,-2.4604,-2.4335,-2.3824,-2.3206,-2.2467,-2.1808,-2.1068,-2.0362,-1.9868,-1.9515,-1.9337,-1.9248,-1.9184,-1.9102,-1.9034,-1.893,-1.8789,-1.8679,-1.8584,-1.8505,-1.8408,-1.8328,-1.8246,-1.8159,-1.807,-1.7983,-1.7878,-3.4443,-3.4106,-3.3591,-3.3198,-3.293,-3.2912,-3.2948,-3.2979,-3.2979,-3.3042,-3.3057,-3.2691,-3.2365,-3.2133,-3.171,-3.1093,-3.0462,-3.0209,-2.9916,-2.9566,-2.9363,-2.937,-2.9431,-2.9491,-2.9551,-2.9608,-2.9645,-2.9664,-2.9719,-2.9774,-2.979,-2.9693,-2.9297,-2.8877,-2.8638,-2.7657,-2.6915,-2.6261,-2.5706,-2.534,-2.5107,-2.5025,-2.5006,-2.5044,-2.5025,-2.5019,-2.5044,-2.5056,-2.5115,-2.5149,-2.522,-2.5212,-2.5233,-2.5233,-2.5233,-2.5214,-2.5233,-2.5233,-2.5233,-2.5233,-2.5212,-2.5198,-2.5157,-2.5103,-2.5087,-2.5043,-2.5031,-2.5012,-2.5019,-2.5006,-2.5038,-2.5012,-2.5019,-2.5094,-2.5118,-2.5106,-2.5094,-2.5019,-2.4966,-2.4926,-2.4865,-2.4823,-2.4798,-2.4719,-2.4673,-2.4645,-2.4547,-2.4479,-2.4462,-2.4392,-2.3915,-2.3474,-2.2978,-2.2264,-2.1443,-2.0753,-2.0065,-1.9632,-1.927,-1.9125,-1.9036,-1.8878,-1.8789,-1.8679,-1.8584,-1.8489,-1.8388,-1.8345,-1.8281,-1.8197,-1.8117,-1.7988,-1.79,-1.7811,-1.7704,-3.4711,-3.4002,-3.3827,-3.3349,-3.273,-3.2641,-3.269,-3.2773,-3.2805,-3.2852,-3.293,-3.289,-3.2629,-3.217,-3.2097,-3.1715,-3.103,-3.035,-3.0035,-2.982,-2.9471,-2.92,-2.9304,-2.9351,-2.9433,-2.9492,-2.9474,-2.9531,-2.9589,-2.9664,-2.9682,-2.9662,-2.9642,-2.9413,-2.881,-2.8602,-2.7733,-2.6654,-2.6231,-2.5735,-2.5088,-2.4893,-2.4902,-2.4888,-2.4907,-2.4921,-2.4902,-2.4915,-2.4949,-2.508,-2.5072,-2.5072,-2.5084,-2.5103,-2.5084,-2.5084,-2.5103,-2.5103,-2.5084,-2.5072,-2.5068,-2.5006,-2.4994,-2.4968,-2.4902,-2.4888,-2.4888,-2.4888,-2.4879,-2.4884,-2.4856,-2.4813,-2.4787,-2.4787,-2.4884,-2.4921,-2.4884,-2.4817,-2.4787,-2.4757,-2.4676,-2.4594,-2.458,-2.453,-2.4478,-2.4408,-2.4321,-2.4284,-2.4266,-2.421,-2.4133,-2.3762,-2.332,-2.273,-2.1904,-2.1393,-2.0723,-2.0112,-1.9574,-1.9146,-1.8878,-1.8697,-1.8566,-1.8467,-1.8388,-1.8307,-1.8246,-1.8218,-1.8134,-1.8053,-1.7944,-1.7833,-1.7721,-1.7635,-1.7566,-3.5574,-3.5203,-3.4058,-3.3477,-3.3196,-3.2754,-3.2541,-3.2574,-3.2623,-3.2639,-3.2705,-3.2787,-3.2763,-3.2599,-3.267,-3.2337,-3.1577,-3.0918,-3.0306,-2.9831,-2.915,-2.9017,-2.9197,-2.9243,-2.9289,-2.9353,-2.9353,-2.9433,-2.9531,-2.955,-2.9551,-2.9532,-2.957,-2.9533,-2.9289,-2.8763,-2.8327,-2.7759,-2.6808,-2.622,-2.5729,-2.5125,-2.4823,-2.4837,-2.4804,-2.4804,-2.4837,-2.4837,-2.4847,-2.4923,-2.4955,-2.4936,-2.4936,-2.4949,-2.4949,-2.4949,-2.4936,-2.4949,-2.4955,-2.4936,-2.4929,-2.4865,-2.4865,-2.4804,-2.4764,-2.4749,-2.4749,-2.4749,-2.4719,-2.4689,-2.4676,-2.4613,-2.4582,-2.4532,-2.461,-2.467,-2.4676,-2.4629,-2.4561,-2.4493,-2.4461,-2.4428,-2.4375,-2.4339,-2.4266,-2.421,-2.4153,-2.4075,-2.4056,-2.3996,-2.3894,-2.381,-2.3476,-2.2973,-2.2457,-2.1957,-2.1373,-2.0689,-1.9994,-1.9195,-1.8861,-1.8524,-1.8388,-1.8287,-1.8243,-1.8159,-1.8117,-1.8053,-1.7988,-1.7883,-1.7794,-1.7681,-1.7566,-1.7448,-1.7417,-3.6068,-3.557,-3.4364,-3.3682,-3.3298,-3.2617,-3.2318,-3.2318,-3.2387,-3.2404,-3.2438,-3.2574,-3.2659,-3.2674,-3.277,-3.262,-3.2184,-3.1524,-3.0851,-3.0053,-2.9137,-2.887,-2.9021,-2.9108,-2.9156,-2.9206,-2.9246,-2.931,-2.9372,-2.9412,-2.9414,-2.9434,-2.9454,-2.9512,-2.9494,-2.9139,-2.8671,-2.8332,-2.7578,-2.6883,-2.6,-2.5512,-2.5042,-2.4835,-2.4723,-2.4723,-2.4723,-2.4723,-2.4749,-2.4818,-2.4847,-2.4865,-2.4851,-2.487,-2.4856,-2.4837,-2.4804,-2.4823,-2.4804,-2.4804,-2.4779,-2.4738,-2.4723,-2.4657,-2.461,-2.4559,-2.4578,-2.4559,-2.4566,-2.4534,-2.4481,-2.4429,-2.4358,-2.4303,-2.4321,-2.4374,-2.4409,-2.4411,-2.4357,-2.4321,-2.4284,-2.4247,-2.4172,-2.4134,-2.4075,-2.4036,-2.3955,-2.3915,-2.3891,-2.3786,-2.3682,-2.3616,-2.3526,-2.3115,-2.2686,-2.224,-2.1756,-2.1126,-2.0471,-1.9643,-1.8948,-1.851,-1.836,-1.8254,-1.8121,-1.8056,-1.8132,-1.8048,-1.7794,-1.771,-1.7641,-1.7559,-1.7474,-1.7321,-1.7289,-3.6226,-3.5474,-3.4679,-3.3894,-3.3179,-3.2437,-3.209,-3.2073,-3.2108,-3.2144,-3.2214,-3.2319,-3.2422,-3.2456,-3.2557,-3.2639,-3.2651,-3.1912,-3.1112,-3.0227,-2.9305,-2.8844,-2.8815,-2.8947,-2.8998,-2.9089,-2.9134,-2.9178,-2.9222,-2.927,-2.9272,-2.9312,-2.9412,-2.9453,-2.9453,-2.9398,-2.9062,-2.8633,-2.8465,-2.7549,-2.6389,-2.5884,-2.5398,-2.4706,-2.4613,-2.4613,-2.4613,-2.4613,-2.466,-2.4749,-2.4764,-2.4768,-2.4791,-2.4776,-2.4742,-2.4707,-2.4673,-2.4673,-2.4676,-2.4657,-2.4645,-2.4599,-2.4582,-2.4513,-2.4408,-2.4391,-2.4391,-2.4391,-2.4431,-2.4377,-2.4247,-2.419,-2.4133,-2.4074,-2.4016,-2.4018,-2.4114,-2.4152,-2.4151,-2.4151,-2.4094,-2.4054,-2.3976,-2.3896,-2.3855,-2.381,-2.3747,-2.3703,-2.3656,-2.3589,-2.3499,-2.3407,-2.3295,-2.3223,-2.2869,-2.2492,-2.2004,-2.1448,-2.0894,-2.0127,-1.9218,-1.875,-1.8483,-1.8382,-1.8693,-1.864,-1.84,-1.8178,-1.798,-1.7909,-1.8062,-1.7749,-1.742,-1.7265,-1.7174,-3.6147,-3.5805,-3.4449,-3.3757,-3.3436,-3.2386,-3.1856,-3.1873,-3.2018,-3.2073,-3.2108,-3.2144,-3.2196,-3.2196,-3.2371,-3.2457,-3.2419,-3.1777,-3.0871,-2.9619,-2.95,-2.8963,-2.8706,-2.8712,-2.8858,-2.8952,-2.8998,-2.9067,-2.9112,-2.9178,-2.9222,-2.9225,-2.9265,-2.9265,-2.9286,-2.9332,-2.9297,-2.9132,-2.9155,-2.8353,-2.699,-2.6299,-2.5626,-2.4694,-2.458,-2.4599,-2.4596,-2.4596,-2.4582,-2.4582,-2.4615,-2.4647,-2.4647,-2.4647,-2.4596,-2.4561,-2.4545,-2.451,-2.4476,-2.4476,-2.4461,-2.4446,-2.4393,-2.4321,-2.4266,-2.4247,-2.4247,-2.4247,-2.4263,-2.4165,-2.3976,-2.3899,-2.3855,-2.3831,-2.3807,-2.3765,-2.3765,-2.3813,-2.3894,-2.3894,-2.3871,-2.3828,-2.3768,-2.37,-2.3656,-2.3549,-2.3504,-2.3458,-2.343,-2.3378,-2.3289,-2.3175,-2.3102,-2.3028,-2.2857,-2.253,-2.2177,-2.1773,-2.1284,-2.0865,-1.9967,-1.9486,-1.9386,-1.9387,-1.9496,-1.9269,-1.881,-1.895,-1.8866,-1.8696,-1.847,-1.8196,-1.7847,-1.7478,-1.7168,-3.6079,-3.5865,-3.4353,-3.3704,-3.3464,-3.2282,-3.1651,-3.1688,-3.1763,-3.1837,-3.1837,-3.191,-3.1965,-3.1965,-3.2161,-3.2249,-3.2126,-3.1614,-3.0822,-2.9911,-2.9547,-2.8997,-2.847,-2.851,-2.8662,-2.8761,-2.8858,-2.8929,-2.8975,-2.9062,-2.9108,-2.9112,-2.9156,-2.9218,-2.9218,-2.9225,-2.9228,-2.923,-2.9314,-2.8739,-2.7621,-2.6786,-2.5745,-2.4741,-2.4462,-2.4462,-2.4444,-2.4444,-2.4428,-2.441,-2.4446,-2.4481,-2.4498,-2.4498,-2.4462,-2.4409,-2.4392,-2.4374,-2.432,-2.4302,-2.4302,-2.4247,-2.4228,-2.4153,-2.4096,-2.4056,-2.4036,-2.4014,-2.399,-2.3907,-2.3707,-2.3642,-2.3638,-2.3611,-2.3589,-2.3539,-2.3499,-2.3571,-2.366,-2.366,-2.3656,-2.3611,-2.3585,-2.3517,-2.343,-2.3365,-2.3342,-2.3295,-2.3217,-2.3144,-2.3052,-2.2977,-2.2902,-2.2816,-2.2712,-2.252,-2.23,-2.1993,-2.1714,-2.1435,-2.0966,-2.0671,-2.0511,-2.0283,-1.9907,-1.9605,-1.9277,-1.9476,-1.9553,-1.9132,-1.8838,-1.8642,-1.835,-1.793,-1.7604,-3.582,-3.5598,-3.4218,-3.3546,-3.3264,-3.202,-3.1462,-3.144,-3.1479,-3.1555,-3.1517,-3.1688,-3.1746,-3.18,-3.1982,-3.2002,-3.1777,-3.1428,-3.0718,-3.015,-2.971,-2.9272,-2.8823,-2.873,-2.872,-2.8699,-2.8742,-2.8779,-2.881,-2.89,-2.897,-2.8975,-2.9067,-2.9112,-2.9134,-2.9156,-2.9178,-2.9178,-2.9203,-2.8815,-2.7943,-2.7093,-2.5892,-2.4635,-2.4321,-2.4321,-2.4321,-2.4321,-2.4303,-2.4284,-2.4284,-2.4303,-2.4321,-2.4358,-2.4358,-2.4284,-2.4266,-2.4229,-2.4173,-2.4154,-2.4134,-2.4056,-2.4054,-2.3996,-2.3917,-2.3855,-2.3813,-2.3789,-2.3743,-2.3656,-2.3468,-2.344,-2.343,-2.336,-2.3336,-2.3313,-2.3289,-2.3336,-2.3383,-2.3453,-2.343,-2.3383,-2.336,-2.3295,-2.3241,-2.3193,-2.3168,-2.3119,-2.302,-2.2944,-2.285,-2.2773,-2.2712,-2.2588,-2.2497,-2.2343,-2.2136,-2.2005,-2.184,-2.1674,-2.1536,-2.1279,-2.0871,-2.0471,-2.0113,-1.9942,-1.989,-2.0078,-1.9958,-1.9515,-1.9254,-1.9135,-1.8776,-1.8324,-1.8045,-3.5059,-3.4404,-3.358,-3.2874,-3.2244,-3.1506,-3.123,-3.1269,-3.1402,-3.1479,-3.1479,-3.1538,-3.1538,-3.1576,-3.1763,-3.1582,-3.1133,-3.0836,-3.0536,-3.0036,-2.9779,-2.9611,-2.9414,-2.9009,-2.9005,-2.9052,-2.8845,-2.8612,-2.8662,-2.8761,-2.881,-2.8834,-2.8881,-2.8905,-2.8975,-2.9017,-2.9044,-2.9089,-2.9115,-2.8769,-2.8064,-2.7126,-2.5927,-2.4487,-2.4266,-2.4284,-2.4284,-2.4284,-2.4266,-2.4244,-2.4226,-2.4152,-2.4133,-2.4191,-2.421,-2.419,-2.4152,-2.4095,-2.4036,-2.3996,-2.3958,-2.3917,-2.3873,-2.385,-2.3786,-2.37,-2.3656,-2.3589,-2.3522,-2.3389,-2.3194,-2.323,-2.3199,-2.3151,-2.3102,-2.3052,-2.3052,-2.3045,-2.3095,-2.3168,-2.3168,-2.3168,-2.3126,-2.3119,-2.3063,-2.3012,-2.2962,-2.2919,-2.2825,-2.2764,-2.2659,-2.2579,-2.2542,-2.2388,-2.226,-2.2118,-2.194,-2.1853,-2.1718,-2.1598,-2.1444,-2.1385,-2.1093,-2.0717,-2.073,-2.0784,-2.0789,-2.0665,-2.054,-2.0239,-1.997,-1.9671,-1.9326,-1.895,-1.8499,-3.4315,-3.3594,-3.283,-3.2311,-3.1934,-3.1295,-3.1032,-3.1072,-3.1151,-3.119,-3.123,-3.1286,-3.1346,-3.1283,-3.1113,-3.0729,-3.03,-3.0162,-2.9847,-2.9438,-2.9344,-2.9176,-2.9122,-2.8694,-2.861,-2.8536,-2.8434,-2.8432,-2.8528,-2.8637,-2.8687,-2.8712,-2.8761,-2.881,-2.8858,-2.8881,-2.8905,-2.8952,-2.8984,-2.886,-2.8346,-2.7319,-2.5847,-2.4669,-2.4209,-2.419,-2.4152,-2.4134,-2.4133,-2.4092,-2.4074,-2.4016,-2.3996,-2.4014,-2.4054,-2.4054,-2.4016,-2.3955,-2.3894,-2.3871,-2.381,-2.3743,-2.37,-2.3652,-2.3607,-2.3522,-2.3471,-2.3383,-2.3265,-2.3151,-2.306,-2.3052,-2.3028,-2.2977,-2.2927,-2.2902,-2.285,-2.2816,-2.2842,-2.2902,-2.2952,-2.2952,-2.2944,-2.2911,-2.292,-2.2842,-2.2773,-2.2703,-2.2659,-2.2535,-2.2453,-2.236,-2.2293,-2.2163,-2.2003,-2.1886,-2.1721,-2.1648,-2.1526,-2.1433,-2.1309,-2.123,-2.1183,-2.0989,-2.115,-2.1167,-2.1055,-2.0751,-2.0846,-2.0892,-2.0461,-2.0033,-1.9874,-1.9558,-1.9058,-3.3401,-3.2694,-3.21,-3.1766,-3.155,-3.1057,-3.0831,-3.0831,-3.0912,-3.0912,-3.0912,-3.1055,-3.1067,-3.0801,-3.0326,-2.9829,-2.9248,-2.9214,-2.8988,-2.8806,-2.8763,-2.8442,-2.8303,-2.8041,-2.8206,-2.8435,-2.8187,-2.8237,-2.8371,-2.8484,-2.8562,-2.8587,-2.8687,-2.8737,-2.8761,-2.8785,-2.8804,-2.881,-2.8815,-2.8827,-2.8338,-2.7281,-2.5889,-2.4421,-2.4165,-2.4074,-2.4054,-2.4016,-2.3978,-2.3958,-2.3955,-2.3935,-2.3873,-2.3904,-2.3883,-2.3831,-2.3813,-2.3789,-2.3765,-2.3718,-2.3656,-2.3585,-2.3539,-2.3471,-2.3401,-2.3336,-2.3265,-2.3144,-2.3045,-2.297,-2.2927,-2.2868,-2.2842,-2.2816,-2.2764,-2.2738,-2.2712,-2.2659,-2.2605,-2.2685,-2.2747,-2.2747,-2.2738,-2.2712,-2.272,-2.2667,-2.2596,-2.2559,-2.2487,-2.2343,-2.226,-2.2163,-2.2049,-2.1886,-2.1768,-2.1648,-2.1526,-2.1433,-2.1293,-2.1166,-2.1087,-2.1054,-2.0974,-2.0893,-2.0876,-2.0859,-2.0794,-2.0794,-2.0744,-2.0644,-2.0527,-2.0333,-2.0048,-1.9823,-1.9461,-3.2163,-3.149,-3.1407,-3.0997,-3.0514,-3.0534,-3.0551,-3.0568,-3.0773,-3.0912,-3.073,-3.0828,-3.0493,-2.99,-2.9394,-2.883,-2.8408,-2.8271,-2.8304,-2.8297,-2.833,-2.8635,-2.9196,-2.8956,-2.8526,-2.8411,-2.8152,-2.8134,-2.8209,-2.8327,-2.8424,-2.845,-2.851,-2.8569,-2.8594,-2.8662,-2.8761,-2.8785,-2.881,-2.8481,-2.7793,-2.6918,-2.5969,-2.509,-2.4379,-2.3996,-2.3955,-2.3915,-2.3876,-2.3816,-2.381,-2.3786,-2.3721,-2.3674,-2.3625,-2.3567,-2.3549,-2.3558,-2.3589,-2.3539,-2.3471,-2.3401,-2.3336,-2.3265,-2.3193,-2.3119,-2.302,-2.2944,-2.2868,-2.2816,-2.2764,-2.2668,-2.2605,-2.2579,-2.2569,-2.2569,-2.2542,-2.2453,-2.2426,-2.2443,-2.2508,-2.2508,-2.2525,-2.2525,-2.2542,-2.2487,-2.2405,-2.2366,-2.231,-2.2163,-2.2015,-2.1886,-2.1797,-2.1648,-2.1509,-2.1433,-2.1309,-2.1199,-2.1087,-2.0942,-2.086,-2.081,-2.0726,-2.0644,-2.0592,-2.0559,-2.0577,-2.0543,-2.0509,-2.0441,-2.0339,-2.0254,-2.012,-1.9908,-1.9682,-3.0738,-3.068,-3.0664,-3.05,-3.0222,-3.0316,-3.0316,-3.0359,-3.0443,-3.0237,-2.9963,-3.0019,-2.9499,-2.8678,-2.8289,-2.7874,-2.7386,-2.7318,-2.7419,-2.7636,-2.7702,-2.7954,-2.8117,-2.8143,-2.808,-2.8102,-2.7959,-2.7853,-2.7979,-2.8182,-2.8291,-2.8318,-2.838,-2.8458,-2.8484,-2.851,-2.8562,-2.8637,-2.8658,-2.8324,-2.7606,-2.6804,-2.598,-2.5114,-2.4312,-2.3967,-2.3831,-2.381,-2.3768,-2.3725,-2.3718,-2.3674,-2.3607,-2.3557,-2.3506,-2.3383,-2.3283,-2.3283,-2.3407,-2.3354,-2.3307,-2.3217,-2.3144,-2.3052,-2.2977,-2.2893,-2.2816,-2.2738,-2.2659,-2.2605,-2.2579,-2.2569,-2.2542,-2.2487,-2.2405,-2.2377,-2.2349,-2.2231,-2.2186,-2.2231,-2.2231,-2.226,-2.2304,-2.2321,-2.2304,-2.2231,-2.2175,-2.2147,-2.2049,-2.1961,-2.1781,-2.1584,-2.1509,-2.1402,-2.1309,-2.1183,-2.1087,-2.0958,-2.0924,-2.0761,-2.0662,-2.0561,-2.0475,-2.0407,-2.0339,-2.0339,-2.0354,-2.0304,-2.0254,-2.02,-2.0146,-2.0025,-1.994,-1.9854,-1.9621,-2.9681,-3.0017,-3.0033,-3.0033,-3.0017,-3.0076,-3.006,-3.0087,-2.9933,-2.9599,-2.9149,-2.8893,-2.8279,-2.7651,-2.7353,-2.7023,-2.6691,-2.6674,-2.6792,-2.6892,-2.7023,-2.7139,-2.7339,-2.7348,-2.7425,-2.7417,-2.7652,-2.7659,-2.773,-2.7893,-2.8099,-2.8172,-2.8291,-2.8345,-2.8353,-2.8398,-2.8476,-2.8466,-2.8569,-2.8329,-2.7779,-2.6799,-2.6009,-2.5185,-2.4386,-2.375,-2.3682,-2.3656,-2.3656,-2.3652,-2.3562,-2.3494,-2.343,-2.3395,-2.3324,-2.3217,-2.3091,-2.3042,-2.3126,-2.3119,-2.3095,-2.302,-2.2944,-2.2842,-2.2764,-2.2685,-2.2632,-2.2552,-2.247,-2.2443,-2.2415,-2.2388,-2.2343,-2.2304,-2.2276,-2.2265,-2.2209,-2.2118,-2.2056,-2.2101,-2.2073,-2.2015,-2.2061,-2.2106,-2.2077,-2.2015,-2.194,-2.1911,-2.1811,-2.1708,-2.1556,-2.1355,-2.1261,-2.1183,-2.1087,-2.0958,-2.0827,-2.0728,-2.0677,-2.0592,-2.046,-2.0357,-2.027,-2.0166,-2.008,-2.0045,-2.0025,-2.001,-2.001,-1.9955,-1.9919,-1.9812,-1.9705,-1.9632,-1.9508,-2.9534,-2.9563,-2.9563,-2.9579,-2.9579,-2.9681,-2.9754,-2.9708,-2.9316,-2.9074,-2.8674,-2.7837,-2.7278,-2.7114,-2.6723,-2.6478,-2.652,-2.6572,-2.6657,-2.6759,-2.6859,-2.6942,-2.704,-2.7152,-2.723,-2.7261,-2.7417,-2.7509,-2.7552,-2.7672,-2.7836,-2.8014,-2.8154,-2.8182,-2.8237,-2.8273,-2.8371,-2.838,-2.8432,-2.8432,-2.7864,-2.6982,-2.6003,-2.5607,-2.4581,-2.37,-2.37,-2.3567,-2.3517,-2.3517,-2.3407,-2.3313,-2.3241,-2.3193,-2.3119,-2.3028,-2.2935,-2.2884,-2.2876,-2.2902,-2.2876,-2.2799,-2.2712,-2.2623,-2.2542,-2.2542,-2.2487,-2.2405,-2.2332,-2.2276,-2.2203,-2.213,-2.2101,-2.2101,-2.2089,-2.2032,-2.2003,-2.2003,-2.194,-2.1969,-2.194,-2.1869,-2.1811,-2.1827,-2.1903,-2.1857,-2.1721,-2.1691,-2.154,-2.1433,-2.1309,-2.1183,-2.1039,-2.0909,-2.0827,-2.0728,-2.0628,-2.0527,-2.0441,-2.0373,-2.0304,-2.02,-2.0025,-1.999,-1.9904,-1.9797,-1.9726,-1.9726,-1.969,-1.969,-1.9669,-1.956,-1.945,-1.9325,-1.9191,-2.9076,-2.9076,-2.906,-2.9261,-2.9518,-2.9563,-2.9351,-2.8978,-2.8791,-2.8197,-2.7534,-2.659,-2.6248,-2.6336,-2.6294,-2.6168,-2.631,-2.6399,-2.6486,-2.6589,-2.6691,-2.6792,-2.6892,-2.699,-2.7105,-2.712,-2.723,-2.7324,-2.7355,-2.7491,-2.7569,-2.7736,-2.794,-2.8042,-2.8126,-2.8164,-2.8191,-2.8264,-2.83,-2.8327,-2.8004,-2.6856,-2.5936,-2.5804,-2.4343,-2.3588,-2.3453,-2.3407,-2.336,-2.333,-2.3217,-2.3144,-2.307,-2.3003,-2.2927,-2.2868,-2.2799,-2.2738,-2.2712,-2.2738,-2.2738,-2.2623,-2.2542,-2.2443,-2.2377,-2.2332,-2.226,-2.2175,-2.2147,-2.2089,-2.2073,-2.1998,-2.194,-2.1911,-2.1882,-2.184,-2.1811,-2.1811,-2.1781,-2.1764,-2.1721,-2.1678,-2.1617,-2.1587,-2.1648,-2.1694,-2.1573,-2.145,-2.1309,-2.1151,-2.1055,-2.0958,-2.0827,-2.0712,-2.0628,-2.0527,-2.0441,-2.0339,-2.0235,-2.0166,-2.0096,-1.994,-1.9797,-1.9726,-1.9654,-1.9545,-1.9487,-1.9413,-1.9413,-1.945,-1.9413,-1.9339,-1.9191,-1.9026,-1.8889,-2.8171,-2.8171,-2.8171,-2.8465,-2.8912,-2.8958,-2.8605,-2.8104,-2.7801,-2.7224,-2.6179,-2.5734,-2.5616,-2.5787,-2.586,-2.5954,-2.6115,-2.6222,-2.6329,-2.6434,-2.6555,-2.6657,-2.6725,-2.6825,-2.6942,-2.6992,-2.7055,-2.7135,-2.7169,-2.7341,-2.7386,-2.7509,-2.7677,-2.7824,-2.794,-2.8014,-2.8053,-2.8099,-2.8136,-2.8219,-2.7977,-2.6978,-2.5971,-2.575,-2.4473,-2.3644,-2.3419,-2.3265,-2.3217,-2.3144,-2.307,-2.2995,-2.2919,-2.2868,-2.279,-2.2712,-2.2632,-2.2596,-2.2542,-2.2542,-2.2525,-2.2415,-2.2332,-2.2231,-2.2203,-2.2147,-2.2044,-2.1969,-2.1911,-2.1882,-2.1882,-2.1811,-2.1797,-2.1768,-2.1738,-2.1724,-2.1678,-2.1648,-2.1587,-2.154,-2.1511,-2.145,-2.1402,-2.134,-2.134,-2.1371,-2.1261,-2.1183,-2.1087,-2.0925,-2.0827,-2.0744,-2.061,-2.0509,-2.0392,-2.0304,-2.02,-2.008,-1.9975,-1.9919,-1.9812,-1.969,-1.9581,-1.9545,-1.9435,-1.9302,-1.9228,-1.9116,-1.9153,-1.9242,-1.9168,-1.904,-1.8889,-1.8736,-1.8606,-2.6798,-2.6736,-2.6798,-2.7172,-2.7701,-2.7734,-2.7538,-2.7063,-2.6445,-2.5878,-2.5454,-2.5294,-2.541,-2.5578,-2.5637,-2.5749,-2.5917,-2.6096,-2.6203,-2.6274,-2.6415,-2.652,-2.6606,-2.6657,-2.6792,-2.691,-2.6976,-2.7007,-2.7009,-2.7169,-2.7198,-2.7261,-2.7417,-2.76,-2.773,-2.7911,-2.7986,-2.8014,-2.7968,-2.7996,-2.7802,-2.7065,-2.6357,-2.5535,-2.4713,-2.3887,-2.3291,-2.3119,-2.307,-2.2995,-2.2919,-2.2842,-2.2755,-2.2712,-2.2649,-2.2542,-2.2477,-2.2394,-2.2293,-2.231,-2.2265,-2.2175,-2.2101,-2.2044,-2.2015,-2.1957,-2.1869,-2.1811,-2.1721,-2.1678,-2.1634,-2.162,-2.162,-2.1589,-2.1559,-2.1528,-2.1497,-2.1466,-2.1388,-2.134,-2.1262,-2.1167,-2.1135,-2.1087,-2.1055,-2.1055,-2.0974,-2.0909,-2.0827,-2.0728,-2.0595,-2.046,-2.0373,-2.0254,-2.015,-2.0061,-1.997,-1.9848,-1.9762,-1.9705,-1.9596,-1.9472,-1.9398,-1.9339,-1.9191,-1.904,-1.8941,-1.8827,-1.8812,-1.8798,-1.8774,-1.8697,-1.8542,-1.8425,-1.8333,-2.6244,-2.6244,-2.6244,-2.6166,-2.6163,-2.6772,-2.6686,-2.6099,-2.5425,-2.5051,-2.5092,-2.51,-2.5217,-2.5371,-2.5524,-2.56,-2.5712,-2.5881,-2.6007,-2.6079,-2.6239,-2.6329,-2.6417,-2.6537,-2.6623,-2.6691,-2.6775,-2.6876,-2.6943,-2.704,-2.7072,-2.712,-2.723,-2.7386,-2.7539,-2.7647,-2.7677,-2.7694,-2.7707,-2.7719,-2.7648,-2.6999,-2.6244,-2.5454,-2.4673,-2.3902,-2.309,-2.2944,-2.2893,-2.2816,-2.2738,-2.2659,-2.2579,-2.2525,-2.246,-2.2377,-2.231,-2.2163,-2.202,-2.1932,-2.1915,-2.1928,-2.1899,-2.184,-2.1811,-2.1754,-2.1694,-2.1648,-2.1556,-2.1495,-2.1448,-2.1388,-2.1325,-2.1325,-2.1278,-2.1247,-2.1215,-2.1231,-2.1199,-2.1151,-2.1071,-2.0941,-2.0876,-2.0761,-2.0761,-2.0695,-2.0662,-2.0613,-2.0561,-2.0475,-2.0373,-2.022,-2.008,-1.9975,-1.9904,-1.9812,-1.972,-1.9632,-1.956,-1.9487,-1.9376,-1.9265,-1.9191,-1.9078,-1.8927,-1.8788,-1.862,-1.8464,-1.8333,-1.8279,-1.8293,-1.8347,-1.8214,-1.8135,-1.8055,-2.5332,-2.5288,-2.5272,-2.5089,-2.4961,-2.579,-2.5827,-2.529,-2.4792,-2.4726,-2.4846,-2.4902,-2.5005,-2.5217,-2.5371,-2.5486,-2.5524,-2.5712,-2.5844,-2.5901,-2.6063,-2.617,-2.6293,-2.6399,-2.6468,-2.6537,-2.6606,-2.6708,-2.6792,-2.6876,-2.6942,-2.7007,-2.7087,-2.7184,-2.731,-2.7404,-2.7526,-2.7557,-2.7587,-2.7587,-2.7465,-2.7028,-2.6336,-2.5446,-2.4659,-2.3996,-2.3128,-2.2721,-2.2685,-2.2632,-2.2552,-2.2497,-2.2432,-2.2377,-2.2293,-2.2209,-2.2049,-2.1915,-2.1738,-2.1648,-2.1631,-2.1617,-2.1648,-2.1631,-2.1587,-2.1511,-2.1497,-2.1419,-2.134,-2.1309,-2.1246,-2.1183,-2.1087,-2.1055,-2.1038,-2.1022,-2.099,-2.1006,-2.0973,-2.0924,-2.0843,-2.0711,-2.061,-2.0509,-2.0426,-2.0373,-2.0304,-2.0304,-2.027,-2.02,-2.0096,-1.9975,-1.9833,-1.9726,-1.9632,-1.956,-1.945,-1.9391,-1.9317,-1.9242,-1.9116,-1.9003,-1.8927,-1.8827,-1.8659,-1.8489,-1.8307,-1.8109,-1.7975,-1.7855,-1.7868,-1.7909,-1.7895,-1.7814,-1.7747,-2.3997,-2.3982,-2.3982,-2.4028,-2.4161,-2.49,-2.4948,-2.4529,-2.458,-2.4589,-2.4645,-2.4742,-2.4862,-2.4966,-2.5068,-2.5224,-2.5394,-2.5524,-2.5621,-2.5754,-2.5881,-2.6043,-2.6151,-2.6258,-2.6329,-2.645,-2.652,-2.6537,-2.6606,-2.6657,-2.6792,-2.6942,-2.6957,-2.7023,-2.712,-2.7247,-2.7373,-2.7404,-2.7421,-2.7421,-2.7317,-2.7209,-2.6276,-2.538,-2.4676,-2.3867,-2.3089,-2.2579,-2.2525,-2.2487,-2.2415,-2.2349,-2.2282,-2.2237,-2.2077,-2.1915,-2.1768,-2.1617,-2.1464,-2.1386,-2.1324,-2.1277,-2.1309,-2.1355,-2.1355,-2.1277,-2.1214,-2.1167,-2.1103,-2.1087,-2.107,-2.0974,-2.0861,-2.0844,-2.0827,-2.081,-2.0777,-2.0744,-2.0693,-2.066,-2.0561,-2.0426,-2.0339,-2.0235,-2.0115,-2.0025,-1.999,-1.9904,-1.9904,-1.9884,-1.9812,-1.9726,-1.9596,-1.9501,-1.9391,-1.9265,-1.9191,-1.9093,-1.9017,-1.8941,-1.8812,-1.8736,-1.862,-1.8503,-1.8358,-1.8161,-1.7949,-1.7747,-1.7597,-1.7515,-1.7461,-1.7502,-1.7502,-1.7461,-1.7432,-2.3668,-2.3696,-2.3696,-2.3797,-2.3912,-2.4237,-2.4319,-2.4307,-2.4333,-2.4374,-2.4539,-2.458,-2.4645,-2.471,-2.4926,-2.5029,-2.5162,-2.5294,-2.5486,-2.56,-2.5712,-2.5807,-2.5954,-2.6063,-2.617,-2.6258,-2.6329,-2.6399,-2.652,-2.6572,-2.6657,-2.6775,-2.6792,-2.6859,-2.6975,-2.7105,-2.712,-2.7152,-2.7169,-2.7201,-2.6994,-2.6736,-2.5829,-2.506,-2.4339,-2.35,-2.276,-2.2405,-2.2349,-2.2276,-2.2175,-2.2089,-2.2032,-2.1945,-2.1811,-2.1554,-2.1448,-2.1356,-2.1262,-2.1135,-2.1039,-2.0958,-2.0974,-2.0958,-2.1007,-2.0991,-2.0942,-2.0909,-2.0859,-2.0826,-2.0793,-2.0695,-2.0646,-2.0579,-2.0561,-2.0543,-2.0509,-2.0441,-2.0423,-2.0339,-2.0254,-2.015,-2.0025,-1.9955,-1.9848,-1.9705,-1.9632,-1.9545,-1.9545,-1.9523,-1.9487,-1.9398,-1.9302,-1.9153,-1.9093,-1.8979,-1.8865,-1.8803,-1.8711,-1.8581,-1.8489,-1.8372,-1.8307,-1.8135,-1.7962,-1.7774,-1.7597,-1.7391,-1.7225,-1.7099,-1.7002,-1.7099,-1.7099,-1.7099,-1.7057,-2.3436,-2.3465,-2.348,-2.3566,-2.3668,-2.3797,-2.3925,-2.4024,-2.4082,-2.4208,-2.4374,-2.44,-2.4482,-2.4589,-2.4751,-2.4871,-2.5005,-2.5123,-2.5294,-2.5448,-2.554,-2.5675,-2.5787,-2.5897,-2.599,-2.6063,-2.617,-2.6241,-2.638,-2.6485,-2.6572,-2.6623,-2.6623,-2.6691,-2.6775,-2.6775,-2.6775,-2.6842,-2.6909,-2.6942,-2.6667,-2.6207,-2.5442,-2.4598,-2.3867,-2.3061,-2.235,-2.2192,-2.2135,-2.2061,-2.1957,-2.1869,-2.1797,-2.1691,-2.1556,-2.1324,-2.1198,-2.1119,-2.1023,-2.0925,-2.0811,-2.0728,-2.0644,-2.0595,-2.0613,-2.063,-2.0662,-2.0644,-2.0626,-2.0592,-2.0509,-2.0441,-2.0392,-2.0342,-2.0304,-2.025,-2.0216,-2.0131,-2.0096,-2.0061,-1.9955,-1.9797,-1.9741,-1.9669,-1.956,-1.9391,-1.9228,-1.9139,-1.9153,-1.9205,-1.9139,-1.9087,-1.895,-1.8865,-1.875,-1.8634,-1.8542,-1.8425,-1.8333,-1.8254,-1.8175,-1.8069,-1.7922,-1.7747,-1.7529,-1.7337,-1.717,-1.7044,-1.6876,-1.6705,-1.6577,-1.6577,-1.662,-1.6705,-1.6663,-2.3142,-2.3112,-2.3157,-2.3155,-2.336,-2.3417,-2.3533,-2.3736,-2.3837,-2.4024,-2.4166,-2.4276,-2.4359,-2.4441,-2.4605,-2.4726,-2.4846,-2.4966,-2.5084,-2.5278,-2.541,-2.5524,-2.56,-2.5766,-2.5824,-2.5897,-2.597,-2.6099,-2.6203,-2.6274,-2.6364,-2.645,-2.6485,-2.652,-2.6554,-2.6589,-2.6572,-2.6555,-2.6573,-2.6554,-2.6418,-2.5976,-2.5249,-2.4329,-2.351,-2.279,-2.2182,-2.194,-2.1882,-2.1811,-2.1751,-2.1694,-2.1556,-2.1386,-2.1246,-2.1135,-2.099,-2.086,-2.0761,-2.0677,-2.0527,-2.0441,-2.0354,-2.027,-2.0239,-2.0376,-2.0426,-2.0373,-2.032,-2.027,-2.0185,-2.015,-2.01,-2.0045,-2.0025,-1.997,-1.9935,-1.9848,-1.9726,-1.969,-1.9617,-1.9472,-1.9413,-1.9339,-1.9228,-1.9055,-1.8889,-1.876,-1.8736,-1.8774,-1.8774,-1.8707,-1.8592,-1.8503,-1.8386,-1.8268,-1.8175,-1.8042,-1.7962,-1.7882,-1.7774,-1.7666,-1.7569,-1.7337,-1.7115,-1.6947,-1.6791,-1.6663,-1.6491,-1.6318,-1.6188,-1.61,-1.6132,-1.6175,-1.6219,-2.176,-2.1842,-2.1842,-2.1898,-2.2014,-2.2515,-2.275,-2.2852,-2.3458,-2.3779,-2.4024,-2.4135,-2.425,-2.4291,-2.4457,-2.4564,-2.4605,-2.4766,-2.4926,-2.5045,-2.5201,-2.5317,-2.541,-2.5562,-2.5654,-2.5712,-2.5824,-2.5934,-2.6007,-2.6079,-2.6115,-2.6239,-2.6274,-2.631,-2.6415,-2.645,-2.6382,-2.6197,-2.5915,-2.5748,-2.5496,-2.4958,-2.4221,-2.3455,-2.2722,-2.2262,-2.184,-2.1768,-2.1661,-2.154,-2.1479,-2.1402,-2.1262,-2.1071,-2.0958,-2.0843,-2.0777,-2.0628,-2.0509,-2.0407,-2.0289,-2.015,-2.0045,-1.994,-1.996,-2.01,-2.015,-2.0096,-2.0041,-1.999,-1.9904,-1.9833,-1.9797,-1.9762,-1.9741,-1.9705,-1.9683,-1.9523,-1.9362,-1.9288,-1.925,-1.9153,-1.9078,-1.8965,-1.8889,-1.8721,-1.8514,-1.8397,-1.8293,-1.8293,-1.8254,-1.8201,-1.8201,-1.8095,-1.8029,-1.7909,-1.7801,-1.7693,-1.7611,-1.7488,-1.7406,-1.7212,-1.7044,-1.6876,-1.6705,-1.6534,-1.6392,-1.6262,-1.61,-1.5969,-1.5836,-1.5691,-1.557,-1.5614,-1.5703,-2.1058,-2.1181,-2.1263,-2.1304,-2.1403,-2.1824,-2.2014,-2.2114,-2.2483,-2.2798,-2.313,-2.3663,-2.4067,-2.4109,-2.4291,-2.4338,-2.4395,-2.458,-2.4686,-2.4831,-2.4855,-2.5084,-2.5201,-2.5259,-2.541,-2.5524,-2.5675,-2.5787,-2.5746,-2.5934,-2.6007,-2.5994,-2.603,-2.6049,-2.6173,-2.6173,-2.5974,-2.5622,-2.5142,-2.4746,-2.4365,-2.3734,-2.3451,-2.2789,-2.2294,-2.179,-2.1631,-2.1556,-2.145,-2.1293,-2.123,-2.1087,-2.0958,-2.0778,-2.0695,-2.0577,-2.0475,-2.0373,-2.0235,-2.0131,-2.0025,-1.9869,-1.9797,-1.9705,-1.9581,-1.969,-1.9797,-1.9756,-1.9792,-1.9756,-1.9632,-1.9545,-1.9472,-1.945,-1.9376,-1.9339,-1.9302,-1.9191,-1.9026,-1.8965,-1.8889,-1.8774,-1.8697,-1.8581,-1.8503,-1.8333,-1.8161,-1.7988,-1.7882,-1.7814,-1.7774,-1.7693,-1.7679,-1.7693,-1.7666,-1.7543,-1.7447,-1.7337,-1.7212,-1.7086,-1.6947,-1.6735,-1.6534,-1.6448,-1.6318,-1.6144,-1.5969,-1.5869,-1.5748,-1.557,-1.5435,-1.53,-1.5165,-1.5085,-1.5176,-2.0454,-2.0676,-2.0837,-2.0918,-2.0947,-2.1156,-2.1266,-2.1336,-2.1465,-2.162,-2.1904,-2.2975,-2.3538,-2.3724,-2.3865,-2.3948,-2.3963,-2.3838,-2.4073,-2.4264,-2.4422,-2.4327,-2.442,-2.471,-2.4729,-2.4922,-2.5132,-2.5199,-2.5216,-2.5362,-2.5444,-2.5562,-2.5582,-2.555,-2.5566,-2.5504,-2.5176,-2.4683,-2.4192,-2.3617,-2.3096,-2.2621,-2.262,-2.2374,-2.1951,-2.1513,-2.1402,-2.1293,-2.123,-2.1103,-2.0958,-2.0794,-2.0662,-2.0527,-2.0392,-2.0289,-2.0185,-2.0045,-1.9955,-1.9827,-1.972,-1.9611,-1.9538,-1.9428,-1.9302,-1.9265,-1.9339,-1.9391,-1.9428,-1.9428,-1.9302,-1.9191,-1.9153,-1.9078,-1.904,-1.8988,-1.8874,-1.8812,-1.8697,-1.8581,-1.8503,-1.8386,-1.8307,-1.8189,-1.8055,-1.7935,-1.7774,-1.7611,-1.7447,-1.7365,-1.7323,-1.7199,-1.7102,-1.7157,-1.7267,-1.717,-1.7031,-1.6947,-1.6833,-1.665,-1.6479,-1.6318,-1.6144,-1.6044,-1.5925,-1.5748,-1.5603,-1.5457,-1.5334,-1.521,-1.5074,-1.4937,-1.4789,-1.4697,-1.4627,-1.913,-1.9233,-1.9378,-1.9445,-1.9556,-2.0133,-2.0431,-2.0587,-2.1108,-2.148,-2.149,-2.1664,-2.2039,-2.2224,-2.2373,-2.2543,-2.2906,-2.2917,-2.2879,-2.2901,-2.3295,-2.3208,-2.3284,-2.3702,-2.3517,-2.3802,-2.4163,-2.4172,-2.4313,-2.4438,-2.4309,-2.3994,-2.3913,-2.3932,-2.4005,-2.4005,-2.4002,-2.3592,-2.3201,-2.2684,-2.2504,-2.2167,-2.2069,-2.1777,-2.1391,-2.1278,-2.1183,-2.1071,-2.099,-2.0827,-2.0628,-2.046,-2.0323,-2.022,-2.008,-1.9975,-1.9869,-1.9762,-1.9669,-1.9523,-1.9376,-1.9302,-1.9228,-1.9055,-1.8927,-1.8851,-1.8851,-1.8774,-1.8865,-1.8965,-1.8889,-1.8851,-1.8788,-1.8673,-1.8634,-1.8528,-1.8475,-1.8372,-1.8254,-1.8175,-1.8055,-1.7989,-1.7949,-1.7828,-1.7639,-1.7516,-1.7406,-1.7199,-1.7073,-1.6947,-1.6876,-1.6735,-1.6565,-1.665,-1.6748,-1.6693,-1.6607,-1.6522,-1.6392,-1.6219,-1.6044,-1.5925,-1.5792,-1.5603,-1.5468,-1.5345,-1.5198,-1.5051,-1.4926,-1.48,-1.4765,-1.4616,-1.4466,-1.4362,-1.4291]}]]